Wetterdaten: Mittwoch, 25.01.2023
Datum Zeit Temp. 2m Temp +5 cm Feuchte A. Luftdruck Regen Wind Richtung Richtung Sonnenschein UV Solar Taupunkt Windchill Windben
25.01.2023 00:00 -2,6 C -1,1 C 93 % 1038,5 hPa 0,0 l/m 4,8 km/h (1 Bft) O-NO 67 0 min 0,0 UV-I 0 W/m -3,6 C -2,6 C 6,4 km/h (2 Bft)
25.01.2023 00:01 -2,6 C -1,1 C 93 % 1038,5 hPa 0,0 l/m 4,8 km/h (1 Bft) O 90 0 min 0,0 UV-I 0 W/m -3,6 C -2,6 C 6,4 km/h (2 Bft)
25.01.2023 00:02 -2,6 C -1,1 C 93 % 1038,5 hPa 0,0 l/m 4,8 km/h (1 Bft) O-NO 67 0 min 0,0 UV-I 0 W/m -3,6 C -2,6 C 8,0 km/h (2 Bft)
25.01.2023 00:03 -2,6 C -1,1 C 93 % 1038,5 hPa 0,0 l/m 4,8 km/h (1 Bft) O-NO 67 0 min 0,0 UV-I 0 W/m -3,6 C -2,6 C 6,4 km/h (2 Bft)
25.01.2023 00:04 -2,6 C -1,7 C 93 % 1038,7 hPa 0,0 l/m 3,2 km/h (1 Bft) O 90 0 min 0,0 UV-I 0 W/m -3,6 C -2,6 C 4,8 km/h (1 Bft)
25.01.2023 00:05 -2,6 C -2,2 C 93 % 1038,4 hPa 0,0 l/m 3,2 km/h (1 Bft) O-SO 112 0 min 0,0 UV-I 0 W/m -3,6 C -2,6 C 6,4 km/h (2 Bft)
25.01.2023 00:06 -2,6 C -2,2 C 93 % 1038,5 hPa 0,0 l/m 3,2 km/h (1 Bft) O 90 0 min 0,0 UV-I 0 W/m -3,6 C -2,6 C 4,8 km/h (1 Bft)
25.01.2023 00:07 -2,6 C -2,2 C 93 % 1038,5 hPa 0,0 l/m 1,6 km/h (1 Bft) O 90 0 min 0,0 UV-I 0 W/m -3,6 C -2,6 C 3,2 km/h (1 Bft)
25.01.2023 00:08 -2,6 C -1,7 C 93 % 1038,4 hPa 0,0 l/m 1,6 km/h (1 Bft) O 90 0 min 0,0 UV-I 0 W/m -3,6 C -2,6 C 3,2 km/h (1 Bft)
25.01.2023 00:09 -2,6 C -1,7 C 93 % 1038,3 hPa 0,0 l/m 3,2 km/h (1 Bft) O 90 0 min 0,0 UV-I 0 W/m -3,6 C -2,6 C 4,8 km/h (1 Bft)
25.01.2023 00:10 -2,6 C -2,2 C 93 % 1038,4 hPa 0,0 l/m 1,6 km/h (1 Bft) O 90 0 min 0,0 UV-I 0 W/m -3,6 C -2,6 C 3,2 km/h (1 Bft)
25.01.2023 00:11 -2,6 C -2,2 C 93 % 1038,4 hPa 0,0 l/m 3,2 km/h (1 Bft) O 90 0 min 0,0 UV-I 0 W/m -3,6 C -2,6 C 6,4 km/h (2 Bft)
25.01.2023 00:12 -2,6 C -2,2 C 93 % 1038,4 hPa 0,0 l/m 3,2 km/h (1 Bft) O-SO 112 0 min 0,0 UV-I 0 W/m -3,6 C -2,6 C 6,4 km/h (2 Bft)
25.01.2023 00:13 -2,6 C -2,2 C 93 % 1038,4 hPa 0,0 l/m 3,2 km/h (1 Bft) O-SO 112 0 min 0,0 UV-I 0 W/m -3,6 C -2,6 C 4,8 km/h (1 Bft)
25.01.2023 00:14 -2,6 C -1,7 C 93 % 1038,4 hPa 0,0 l/m 3,2 km/h (1 Bft) O 90 0 min 0,0 UV-I 0 W/m -3,6 C -2,6 C 4,8 km/h (1 Bft)
25.01.2023 00:15 -2,6 C -1,7 C 93 % 1038,3 hPa 0,0 l/m 3,2 km/h (1 Bft) O 90 0 min 0,0 UV-I 0 W/m -3,6 C -2,6 C 4,8 km/h (1 Bft)
25.01.2023 00:16 -2,6 C -1,7 C 93 % 1038,4 hPa 0,0 l/m 4,8 km/h (1 Bft) O 90 0 min 0,0 UV-I 0 W/m -3,6 C -2,6 C 6,4 km/h (2 Bft)
25.01.2023 00:17 -2,6 C -1,7 C 93 % 1038,3 hPa 0,0 l/m 3,2 km/h (1 Bft) O 90 0 min 0,0 UV-I 0 W/m -3,6 C -2,6 C 6,4 km/h (2 Bft)
25.01.2023 00:18 -2,6 C -1,7 C 93 % 1038,3 hPa 0,0 l/m 6,4 km/h (2 Bft) O 90 0 min 0,0 UV-I 0 W/m -3,6 C -2,6 C 8,0 km/h (2 Bft)
25.01.2023 00:19 -2,6 C -1,7 C 93 % 1038,3 hPa 0,0 l/m 8,0 km/h (2 Bft) O 90 0 min 0,0 UV-I 0 W/m -3,6 C -4,4 C 9,7 km/h (2 Bft)
25.01.2023 00:20 -2,6 C -1,7 C 93 % 1038,4 hPa 0,0 l/m 4,8 km/h (1 Bft) O 90 0 min 0,0 UV-I 0 W/m -3,6 C -2,6 C 8,0 km/h (2 Bft)
25.01.2023 00:21 -2,6 C -1,7 C 93 % 1038,3 hPa 0,0 l/m 3,2 km/h (1 Bft) O 90 0 min 0,0 UV-I 0 W/m -3,6 C -2,6 C 6,4 km/h (2 Bft)
25.01.2023 00:22 -2,6 C -2,2 C 93 % 1038,3 hPa 0,0 l/m 1,6 km/h (1 Bft) O 90 0 min 0,0 UV-I 0 W/m -3,6 C -2,6 C 1,6 km/h (1 Bft)
25.01.2023 00:23 -2,6 C -1,7 C 93 % 1038,3 hPa 0,0 l/m 0,0 km/h (0 Bft) O 90 0 min 0,0 UV-I 0 W/m -3,6 C -2,6 C 1,6 km/h (1 Bft)
25.01.2023 00:24 -2,6 C -1,7 C 93 % 1038,3 hPa 0,0 l/m 1,6 km/h (1 Bft) O 90 0 min 0,0 UV-I 0 W/m -3,6 C -2,6 C 3,2 km/h (1 Bft)
25.01.2023 00:25 -2,6 C -1,7 C 93 % 1038,3 hPa 0,0 l/m 1,6 km/h (1 Bft) O 90 0 min 0,0 UV-I 0 W/m -3,6 C -2,6 C 3,2 km/h (1 Bft)
25.01.2023 00:26 -2,6 C -1,7 C 93 % 1038,3 hPa 0,0 l/m 1,6 km/h (1 Bft) O 90 0 min 0,0 UV-I 0 W/m -3,6 C -2,6 C 3,2 km/h (1 Bft)
25.01.2023 00:27 -2,6 C -1,7 C 93 % 1038,3 hPa 0,0 l/m 3,2 km/h (1 Bft) O 90 0 min 0,0 UV-I 0 W/m -3,6 C -2,6 C 3,2 km/h (1 Bft)
25.01.2023 00:28 -2,6 C -1,7 C 93 % 1038,2 hPa 0,0 l/m 3,2 km/h (1 Bft) O 90 0 min 0,0 UV-I 0 W/m -3,6 C -2,6 C 4,8 km/h (1 Bft)
25.01.2023 00:29 -2,6 C -1,7 C 93 % 1038,3 hPa 0,0 l/m 3,2 km/h (1 Bft) O 90 0 min 0,0 UV-I 0 W/m -3,6 C -2,6 C 6,4 km/h (2 Bft)
25.01.2023 00:30 -2,6 C -1,1 C 93 % 1038,3 hPa 0,0 l/m 3,2 km/h (1 Bft) O 90 0 min 0,0 UV-I 0 W/m -3,6 C -2,6 C 6,4 km/h (2 Bft)
25.01.2023 00:31 -2,6 C -1,1 C 93 % 1038,2 hPa 0,0 l/m 1,6 km/h (1 Bft) O 90 0 min 0,0 UV-I 0 W/m -3,6 C -2,6 C 3,2 km/h (1 Bft)
25.01.2023 00:32 -2,6 C -1,7 C 94 % 1038,2 hPa 0,0 l/m 3,2 km/h (1 Bft) O 90 0 min 0,0 UV-I 0 W/m -3,4 C -2,6 C 4,8 km/h (1 Bft)
25.01.2023 00:33 -2,6 C -1,7 C 93 % 1038,2 hPa 0,0 l/m 3,2 km/h (1 Bft) O 90 0 min 0,0 UV-I 0 W/m -3,6 C -2,6 C 6,4 km/h (2 Bft)
25.01.2023 00:34 -2,6 C -1,7 C 93 % 1038,2 hPa 0,0 l/m 3,2 km/h (1 Bft) O-NO 67 0 min 0,0 UV-I 0 W/m -3,6 C -2,6 C 6,4 km/h (2 Bft)
25.01.2023 00:35 -2,6 C -1,1 C 93 % 1038,2 hPa 0,0 l/m 3,2 km/h (1 Bft) O-NO 67 0 min 0,0 UV-I 0 W/m -3,6 C -2,6 C 4,8 km/h (1 Bft)
25.01.2023 00:36 -2,6 C -1,1 C 93 % 1038,2 hPa 0,0 l/m 4,8 km/h (1 Bft) O 90 0 min 0,0 UV-I 0 W/m -3,6 C -2,6 C 6,4 km/h (2 Bft)
25.01.2023 00:37 -2,6 C -1,1 C 93 % 1038,2 hPa 0,0 l/m 4,8 km/h (1 Bft) O 90 0 min 0,0 UV-I 0 W/m -3,6 C -2,6 C 4,8 km/h (1 Bft)
25.01.2023 00:38 -2,6 C -1,7 C 94 % 1038,1 hPa 0,0 l/m 3,2 km/h (1 Bft) O 90 0 min 0,0 UV-I 0 W/m -3,4 C -2,6 C 4,8 km/h (1 Bft)
25.01.2023 00:39 -2,6 C -1,7 C 93 % 1038,1 hPa 0,0 l/m 3,2 km/h (1 Bft) O 90 0 min 0,0 UV-I 0 W/m -3,6 C -2,6 C 4,8 km/h (1 Bft)
25.01.2023 00:40 -2,6 C -2,2 C 93 % 1038,1 hPa 0,0 l/m 1,6 km/h (1 Bft) O 90 0 min 0,0 UV-I 0 W/m -3,6 C -2,6 C 1,6 km/h (1 Bft)
25.01.2023 00:41 -2,6 C -2,2 C 93 % 1038,1 hPa 0,0 l/m 0,0 km/h (0 Bft) O 90 0 min 0,0 UV-I 0 W/m -3,6 C -2,6 C 1,6 km/h (1 Bft)
25.01.2023 00:42 -2,6 C -2,2 C 93 % 1038,1 hPa 0,0 l/m 1,6 km/h (1 Bft) O 90 0 min 0,0 UV-I 0 W/m -3,6 C -2,6 C 4,8 km/h (1 Bft)
25.01.2023 00:43 -2,6 C -1,7 C 93 % 1038,1 hPa 0,0 l/m 3,2 km/h (1 Bft) O-NO 67 0 min 0,0 UV-I 0 W/m -3,6 C -2,6 C 4,8 km/h (1 Bft)
25.01.2023 00:44 -2,6 C -1,7 C 93 % 1038,1 hPa 0,0 l/m 4,8 km/h (1 Bft) O-NO 67 0 min 0,0 UV-I 0 W/m -3,6 C -2,6 C 6,4 km/h (2 Bft)
25.01.2023 00:45 -2,6 C -1,7 C 93 % 1038,1 hPa 0,0 l/m 3,2 km/h (1 Bft) O-NO 67 0 min 0,0 UV-I 0 W/m -3,6 C -2,6 C 6,4 km/h (2 Bft)
25.01.2023 00:46 -2,6 C -1,7 C 93 % 1038,1 hPa 0,0 l/m 6,4 km/h (2 Bft) N-NO 22 0 min 0,0 UV-I 0 W/m -3,6 C -2,6 C 8,0 km/h (2 Bft)
25.01.2023 00:47 -2,6 C -1,1 C 93 % 1038,1 hPa 0,0 l/m 6,4 km/h (2 Bft) N-NO 22 0 min 0,0 UV-I 0 W/m -3,6 C -2,6 C 8,0 km/h (2 Bft)
25.01.2023 00:48 -2,6 C -1,1 C 93 % 1038,1 hPa 0,0 l/m 6,4 km/h (2 Bft) N-NO 22 0 min 0,0 UV-I 0 W/m -3,6 C -2,6 C 8,0 km/h (2 Bft)
25.01.2023 00:49 -2,6 C -1,1 C 94 % 1038,1 hPa 0,0 l/m 6,4 km/h (2 Bft) NO 45 0 min 0,0 UV-I 0 W/m -3,4 C -2,6 C 8,0 km/h (2 Bft)
25.01.2023 00:50 -2,6 C -1,1 C 94 % 1038,0 hPa 0,0 l/m 6,4 km/h (2 Bft) NO 45 0 min 0,0 UV-I 0 W/m -3,4 C -2,6 C 8,0 km/h (2 Bft)
25.01.2023 00:51 -2,6 C -1,1 C 93 % 1038,1 hPa 0,0 l/m 6,4 km/h (2 Bft) NO 45 0 min 0,0 UV-I 0 W/m -3,6 C -2,6 C 8,0 km/h (2 Bft)
25.01.2023 00:52 -2,6 C -1,1 C 93 % 1038,0 hPa 0,0 l/m 4,8 km/h (1 Bft) N-NO 22 0 min 0,0 UV-I 0 W/m -3,6 C -2,6 C 8,0 km/h (2 Bft)
25.01.2023 00:53 -2,6 C -1,1 C 93 % 1038,1 hPa 0,0 l/m 6,4 km/h (2 Bft) N-NO 22 0 min 0,0 UV-I 0 W/m -3,6 C -2,6 C 8,0 km/h (2 Bft)
25.01.2023 00:54 -2,6 C -1,1 C 94 % 1038,1 hPa 0,0 l/m 6,4 km/h (2 Bft) NO 45 0 min 0,0 UV-I 0 W/m -3,4 C -2,6 C 6,4 km/h (2 Bft)
25.01.2023 00:55 -2,6 C -1,1 C 93 % 1038,1 hPa 0,0 l/m 4,8 km/h (1 Bft) N-NO 22 0 min 0,0 UV-I 0 W/m -3,6 C -2,6 C 8,0 km/h (2 Bft)
25.01.2023 00:56 -2,6 C -1,1 C 94 % 1038,1 hPa 0,0 l/m 3,2 km/h (1 Bft) N-NO 22 0 min 0,0 UV-I 0 W/m -3,4 C -2,6 C 4,8 km/h (1 Bft)
25.01.2023 00:57 -2,6 C -1,1 C 93 % 1038,1 hPa 0,0 l/m 1,6 km/h (1 Bft) N-NO 22 0 min 0,0 UV-I 0 W/m -3,6 C -2,6 C 3,2 km/h (1 Bft)
25.01.2023 00:58 -2,6 C -1,1 C 93 % 1038,1 hPa 0,0 l/m 3,2 km/h (1 Bft) N-NO 22 0 min 0,0 UV-I 0 W/m -3,6 C -2,6 C 4,8 km/h (1 Bft)
25.01.2023 00:59 -2,6 C -1,1 C 93 % 1038,0 hPa 0,0 l/m 3,2 km/h (1 Bft) N-NO 22 0 min 0,0 UV-I 0 W/m -3,6 C -2,6 C 4,8 km/h (1 Bft)
25.01.2023 01:00 -2,6 C -1,1 C 93 % 1037,9 hPa 0,0 l/m 3,2 km/h (1 Bft) N-NO 22 0 min 0,0 UV-I 0 W/m -3,6 C -2,6 C 4,8 km/h (1 Bft)
25.01.2023 01:01 -2,6 C -1,1 C 93 % 1037,9 hPa 0,0 l/m 6,4 km/h (2 Bft) N-NO 22 0 min 0,0 UV-I 0 W/m -3,6 C -2,6 C 6,4 km/h (2 Bft)
25.01.2023 01:02 -2,6 C -1,1 C 93 % 1037,9 hPa 0,0 l/m 3,2 km/h (1 Bft) N-NO 22 0 min 0,0 UV-I 0 W/m -3,6 C -2,6 C 6,4 km/h (2 Bft)
25.01.2023 01:03 -2,6 C -1,1 C 93 % 1037,9 hPa 0,0 l/m 1,6 km/h (1 Bft) N-NO 22 0 min 0,0 UV-I 0 W/m -3,6 C -2,6 C 3,2 km/h (1 Bft)
25.01.2023 01:04 -2,6 C -1,1 C 93 % 1037,9 hPa 0,0 l/m 3,2 km/h (1 Bft) N-NO 22 0 min 0,0 UV-I 0 W/m -3,6 C -2,6 C 4,8 km/h (1 Bft)
25.01.2023 01:05 -2,6 C -1,1 C 93 % 1037,9 hPa 0,0 l/m 4,8 km/h (1 Bft) NO 45 0 min 0,0 UV-I 0 W/m -3,6 C -2,6 C 6,4 km/h (2 Bft)
25.01.2023 01:06 -2,6 C -1,1 C 94 % 1037,9 hPa 0,0 l/m 3,2 km/h (1 Bft) NO 45 0 min 0,0 UV-I 0 W/m -3,4 C -2,6 C 4,8 km/h (1 Bft)
25.01.2023 01:07 -2,6 C -1,1 C 94 % 1037,8 hPa 0,0 l/m 3,2 km/h (1 Bft) NO 45 0 min 0,0 UV-I 0 W/m -3,4 C -2,6 C 4,8 km/h (1 Bft)
25.01.2023 01:08 -2,6 C -1,1 C 94 % 1037,8 hPa 0,0 l/m 3,2 km/h (1 Bft) NO 45 0 min 0,0 UV-I 0 W/m -3,4 C -2,6 C 6,4 km/h (2 Bft)
25.01.2023 01:09 -2,6 C -1,1 C 94 % 1037,8 hPa 0,0 l/m 4,8 km/h (1 Bft) NO 45 0 min 0,0 UV-I 0 W/m -3,4 C -2,6 C 6,4 km/h (2 Bft)
25.01.2023 01:10 -2,7 C -1,1 C 94 % 1037,8 hPa 0,0 l/m 4,8 km/h (1 Bft) NO 45 0 min 0,0 UV-I 0 W/m -3,5 C -2,7 C 6,4 km/h (2 Bft)
25.01.2023 01:11 -2,6 C -1,1 C 94 % 1037,8 hPa 0,0 l/m 4,8 km/h (1 Bft) NO 45 0 min 0,0 UV-I 0 W/m -3,4 C -2,6 C 6,4 km/h (2 Bft)
25.01.2023 01:12 -2,6 C -1,1 C 93 % 1037,8 hPa 0,0 l/m 3,2 km/h (1 Bft) NO 45 0 min 0,0 UV-I 0 W/m -3,6 C -2,6 C 4,8 km/h (1 Bft)
25.01.2023 01:13 -2,6 C -1,1 C 93 % 1037,7 hPa 0,0 l/m 3,2 km/h (1 Bft) NO 45 0 min 0,0 UV-I 0 W/m -3,6 C -2,6 C 4,8 km/h (1 Bft)
25.01.2023 01:14 -2,6 C -1,1 C 93 % 1037,8 hPa 0,0 l/m 3,2 km/h (1 Bft) NO 45 0 min 0,0 UV-I 0 W/m -3,6 C -2,6 C 4,8 km/h (1 Bft)
25.01.2023 01:15 -2,7 C -1,1 C 93 % 1037,8 hPa 0,0 l/m 3,2 km/h (1 Bft) NO 45 0 min 0,0 UV-I 0 W/m -3,7 C -2,7 C 4,8 km/h (1 Bft)
25.01.2023 01:16 -2,6 C -1,1 C 94 % 1037,7 hPa 0,0 l/m 3,2 km/h (1 Bft) NO 45 0 min 0,0 UV-I 0 W/m -3,4 C -2,6 C 8,0 km/h (2 Bft)
25.01.2023 01:17 -2,6 C -1,1 C 94 % 1037,8 hPa 0,0 l/m 6,4 km/h (2 Bft) NO 45 0 min 0,0 UV-I 0 W/m -3,4 C -2,6 C 8,0 km/h (2 Bft)
25.01.2023 01:18 -2,6 C -1,1 C 94 % 1037,7 hPa 0,0 l/m 6,4 km/h (2 Bft) NO 45 0 min 0,0 UV-I 0 W/m -3,4 C -2,6 C 9,7 km/h (2 Bft)
25.01.2023 01:19 -2,6 C -1,1 C 93 % 1037,7 hPa 0,0 l/m 4,8 km/h (1 Bft) NO 45 0 min 0,0 UV-I 0 W/m -3,6 C -2,6 C 6,4 km/h (2 Bft)
25.01.2023 01:20 -2,6 C -1,1 C 93 % 1037,7 hPa 0,0 l/m 4,8 km/h (1 Bft) NO 45 0 min 0,0 UV-I 0 W/m -3,6 C -2,6 C 8,0 km/h (2 Bft)
25.01.2023 01:21 -2,6 C -1,1 C 94 % 1037,7 hPa 0,0 l/m 8,0 km/h (2 Bft) N-NO 22 0 min 0,0 UV-I 0 W/m -3,4 C -4,4 C 9,7 km/h (2 Bft)
25.01.2023 01:22 -2,6 C -1,1 C 94 % 1037,7 hPa 0,0 l/m 6,4 km/h (2 Bft) N-NO 22 0 min 0,0 UV-I 0 W/m -3,4 C -2,6 C 8,0 km/h (2 Bft)
25.01.2023 01:23 -2,7 C -1,1 C 93 % 1037,7 hPa 0,0 l/m 4,8 km/h (1 Bft) N-NO 22 0 min 0,0 UV-I 0 W/m -3,7 C -2,7 C 6,4 km/h (2 Bft)
25.01.2023 01:24 -2,7 C -1,1 C 93 % 1037,6 hPa 0,0 l/m 6,4 km/h (2 Bft) N-NO 22 0 min 0,0 UV-I 0 W/m -3,7 C -2,7 C 8,0 km/h (2 Bft)
25.01.2023 01:25 -2,7 C -1,1 C 94 % 1037,7 hPa 0,0 l/m 6,4 km/h (2 Bft) NO 45 0 min 0,0 UV-I 0 W/m -3,5 C -2,7 C 9,7 km/h (2 Bft)
25.01.2023 01:26 -2,7 C -1,1 C 93 % 1037,6 hPa 0,0 l/m 6,4 km/h (2 Bft) NO 45 0 min 0,0 UV-I 0 W/m -3,7 C -2,7 C 8,0 km/h (2 Bft)
25.01.2023 01:27 -2,7 C -1,1 C 93 % 1037,7 hPa 0,0 l/m 4,8 km/h (1 Bft) NO 45 0 min 0,0 UV-I 0 W/m -3,7 C -2,7 C 6,4 km/h (2 Bft)
25.01.2023 01:28 -2,7 C -1,1 C 94 % 1037,7 hPa 0,0 l/m 6,4 km/h (2 Bft) NO 45 0 min 0,0 UV-I 0 W/m -3,5 C -2,7 C 8,0 km/h (2 Bft)
25.01.2023 01:29 -2,7 C -1,1 C 93 % 1037,6 hPa 0,0 l/m 3,2 km/h (1 Bft) O-NO 67 0 min 0,0 UV-I 0 W/m -3,7 C -2,7 C 4,8 km/h (1 Bft)
25.01.2023 01:30 -2,7 C -1,1 C 94 % 1037,6 hPa 0,0 l/m 3,2 km/h (1 Bft) O-NO 67 0 min 0,0 UV-I 0 W/m -3,5 C -2,7 C 4,8 km/h (1 Bft)
25.01.2023 01:31 -2,7 C -1,1 C 93 % 1037,6 hPa 0,0 l/m 4,8 km/h (1 Bft) O-NO 67 0 min 0,0 UV-I 0 W/m -3,7 C -2,7 C 6,4 km/h (2 Bft)
25.01.2023 01:32 -2,7 C -1,1 C 94 % 1037,6 hPa 0,0 l/m 4,8 km/h (1 Bft) O-NO 67 0 min 0,0 UV-I 0 W/m -3,5 C -2,7 C 8,0 km/h (2 Bft)
25.01.2023 01:33 -2,7 C -1,1 C 94 % 1037,5 hPa 0,0 l/m 4,8 km/h (1 Bft) O-NO 67 0 min 0,0 UV-I 0 W/m -3,5 C -2,7 C 6,4 km/h (2 Bft)
25.01.2023 01:34 -2,7 C -1,1 C 94 % 1037,6 hPa 0,0 l/m 1,6 km/h (1 Bft) O-NO 67 0 min 0,0 UV-I 0 W/m -3,5 C -2,7 C 3,2 km/h (1 Bft)
25.01.2023 01:35 -2,7 C -1,7 C 93 % 1037,6 hPa 0,0 l/m 1,6 km/h (1 Bft) O-NO 67 0 min 0,0 UV-I 0 W/m -3,7 C -2,7 C 3,2 km/h (1 Bft)
25.01.2023 01:36 -2,7 C -1,7 C 94 % 1037,5 hPa 0,0 l/m 3,2 km/h (1 Bft) O-NO 67 0 min 0,0 UV-I 0 W/m -3,5 C -2,7 C 4,8 km/h (1 Bft)
25.01.2023 01:37 -2,7 C -1,1 C 94 % 1037,5 hPa 0,0 l/m 1,6 km/h (1 Bft) O-NO 67 0 min 0,0 UV-I 0 W/m -3,5 C -2,7 C 3,2 km/h (1 Bft)
25.01.2023 01:38 -2,7 C -1,1 C 94 % 1037,5 hPa 0,0 l/m 1,6 km/h (1 Bft) O-NO 67 0 min 0,0 UV-I 0 W/m -3,5 C -2,7 C 3,2 km/h (1 Bft)
25.01.2023 01:39 -2,7 C -1,1 C 94 % 1037,5 hPa 0,0 l/m 0,0 km/h (0 Bft) N 0 0 min 0,0 UV-I 0 W/m -3,5 C -2,7 C 0,0 km/h (0 Bft)
25.01.2023 01:40 -2,7 C -1,1 C 94 % 1037,5 hPa 0,0 l/m 1,6 km/h (1 Bft) O-NO 67 0 min 0,0 UV-I 0 W/m -3,5 C -2,7 C 4,8 km/h (1 Bft)
25.01.2023 01:41 -2,7 C -1,1 C 94 % 1037,5 hPa 0,0 l/m 4,8 km/h (1 Bft) O-NO 67 0 min 0,0 UV-I 0 W/m -3,5 C -2,7 C 4,8 km/h (1 Bft)
25.01.2023 01:42 -2,7 C -1,1 C 94 % 1037,5 hPa 0,0 l/m 4,8 km/h (1 Bft) NO 45 0 min 0,0 UV-I 0 W/m -3,5 C -2,7 C 6,4 km/h (2 Bft)
25.01.2023 01:43 -2,7 C -1,1 C 94 % 1037,5 hPa 0,0 l/m 4,8 km/h (1 Bft) NO 45 0 min 0,0 UV-I 0 W/m -3,5 C -2,7 C 6,4 km/h (2 Bft)
25.01.2023 01:44 -2,7 C -1,1 C 94 % 1037,6 hPa 0,0 l/m 4,8 km/h (1 Bft) NO 45 0 min 0,0 UV-I 0 W/m -3,5 C -2,7 C 6,4 km/h (2 Bft)
25.01.2023 01:45 -2,7 C -1,1 C 94 % 1037,6 hPa 0,0 l/m 3,2 km/h (1 Bft) NO 45 0 min 0,0 UV-I 0 W/m -3,5 C -2,7 C 3,2 km/h (1 Bft)
25.01.2023 01:46 -2,7 C -1,1 C 94 % 1037,6 hPa 0,0 l/m 4,8 km/h (1 Bft) NO 45 0 min 0,0 UV-I 0 W/m -3,5 C -2,7 C 6,4 km/h (2 Bft)
25.01.2023 01:47 -2,7 C -1,1 C 94 % 1037,6 hPa 0,0 l/m 4,8 km/h (1 Bft) NO 45 0 min 0,0 UV-I 0 W/m -3,5 C -2,7 C 9,7 km/h (2 Bft)
25.01.2023 01:48 -2,7 C -1,1 C 94 % 1037,5 hPa 0,0 l/m 6,4 km/h (2 Bft) NO 45 0 min 0,0 UV-I 0 W/m -3,5 C -2,7 C 8,0 km/h (2 Bft)
25.01.2023 01:49 -2,7 C -1,1 C 94 % 1037,6 hPa 0,0 l/m 4,8 km/h (1 Bft) NO 45 0 min 0,0 UV-I 0 W/m -3,5 C -2,7 C 6,4 km/h (2 Bft)
25.01.2023 01:50 -2,7 C -1,1 C 94 % 1037,6 hPa 0,0 l/m 6,4 km/h (2 Bft) O-NO 67 0 min 0,0 UV-I 0 W/m -3,5 C -2,7 C 8,0 km/h (2 Bft)
25.01.2023 01:51 -2,7 C -1,1 C 94 % 1037,6 hPa 0,0 l/m 4,8 km/h (1 Bft) NO 45 0 min 0,0 UV-I 0 W/m -3,5 C -2,7 C 6,4 km/h (2 Bft)
25.01.2023 01:52 -2,7 C -1,1 C 94 % 1037,5 hPa 0,0 l/m 1,6 km/h (1 Bft) O 90 0 min 0,0 UV-I 0 W/m -3,5 C -2,7 C 4,8 km/h (1 Bft)
25.01.2023 01:53 -2,7 C -1,1 C 94 % 1037,6 hPa 0,0 l/m 3,2 km/h (1 Bft) O 90 0 min 0,0 UV-I 0 W/m -3,5 C -2,7 C 4,8 km/h (1 Bft)
25.01.2023 01:54 -2,7 C -1,1 C 93 % 1037,5 hPa 0,0 l/m 3,2 km/h (1 Bft) O-NO 67 0 min 0,0 UV-I 0 W/m -3,7 C -2,7 C 4,8 km/h (1 Bft)
25.01.2023 01:55 -2,7 C -1,1 C 94 % 1037,5 hPa 0,0 l/m 4,8 km/h (1 Bft) NO 45 0 min 0,0 UV-I 0 W/m -3,5 C -2,7 C 8,0 km/h (2 Bft)
25.01.2023 01:56 -2,8 C -1,1 C 94 % 1037,5 hPa 0,0 l/m 4,8 km/h (1 Bft) NO 45 0 min 0,0 UV-I 0 W/m -3,6 C -2,8 C 6,4 km/h (2 Bft)
25.01.2023 01:57 -2,7 C -1,1 C 94 % 1037,5 hPa 0,0 l/m 3,2 km/h (1 Bft) NO 45 0 min 0,0 UV-I 0 W/m -3,5 C -2,7 C 6,4 km/h (2 Bft)
25.01.2023 01:58 -2,7 C -1,1 C 94 % 1037,5 hPa 0,0 l/m 4,8 km/h (1 Bft) NO 45 0 min 0,0 UV-I 0 W/m -3,5 C -2,7 C 6,4 km/h (2 Bft)
25.01.2023 01:59 -2,7 C -1,1 C 94 % 1037,5 hPa 0,0 l/m 4,8 km/h (1 Bft) O-NO 67 0 min 0,0 UV-I 0 W/m -3,5 C -2,7 C 6,4 km/h (2 Bft)
25.01.2023 02:00 -2,7 C -1,1 C 94 % 1037,5 hPa 0,0 l/m 4,8 km/h (1 Bft) O-NO 67 0 min 0,0 UV-I 0 W/m -3,5 C -2,7 C 6,4 km/h (2 Bft)
25.01.2023 02:01 -2,7 C -1,1 C 94 % 1037,4 hPa 0,0 l/m 3,2 km/h (1 Bft) O-NO 67 0 min 0,0 UV-I 0 W/m -3,5 C -2,7 C 6,4 km/h (2 Bft)
25.01.2023 02:02 -2,7 C -1,1 C 94 % 1037,5 hPa 0,0 l/m 4,8 km/h (1 Bft) O-NO 67 0 min 0,0 UV-I 0 W/m -3,5 C -2,7 C 6,4 km/h (2 Bft)
25.01.2023 02:03 -2,7 C -1,1 C 94 % 1037,5 hPa 0,0 l/m 4,8 km/h (1 Bft) O-NO 67 0 min 0,0 UV-I 0 W/m -3,5 C -2,7 C 6,4 km/h (2 Bft)
25.01.2023 02:04 -2,7 C -1,1 C 94 % 1037,4 hPa 0,0 l/m 3,2 km/h (1 Bft) O-NO 67 0 min 0,0 UV-I 0 W/m -3,5 C -2,7 C 6,4 km/h (2 Bft)
25.01.2023 02:05 -2,8 C -1,1 C 93 % 1037,4 hPa 0,0 l/m 4,8 km/h (1 Bft) O-NO 67 0 min 0,0 UV-I 0 W/m -3,8 C -2,8 C 8,0 km/h (2 Bft)
25.01.2023 02:06 -2,7 C -1,1 C 94 % 1037,6 hPa 0,0 l/m 4,8 km/h (1 Bft) NO 45 0 min 0,0 UV-I 0 W/m -3,5 C -2,7 C 6,4 km/h (2 Bft)
25.01.2023 02:07 -2,7 C -1,1 C 93 % 1037,4 hPa 0,0 l/m 6,4 km/h (2 Bft) NO 45 0 min 0,0 UV-I 0 W/m -3,7 C -2,7 C 8,0 km/h (2 Bft)
25.01.2023 02:08 -2,7 C -1,1 C 94 % 1037,5 hPa 0,0 l/m 4,8 km/h (1 Bft) NO 45 0 min 0,0 UV-I 0 W/m -3,5 C -2,7 C 8,0 km/h (2 Bft)
25.01.2023 02:09 -2,8 C -1,1 C 94 % 1037,5 hPa 0,0 l/m 4,8 km/h (1 Bft) NO 45 0 min 0,0 UV-I 0 W/m -3,6 C -2,8 C 6,4 km/h (2 Bft)
25.01.2023 02:10 -2,7 C -1,1 C 94 % 1037,5 hPa 0,0 l/m 4,8 km/h (1 Bft) NO 45 0 min 0,0 UV-I 0 W/m -3,5 C -2,7 C 4,8 km/h (1 Bft)
25.01.2023 02:11 -2,7 C -1,1 C 94 % 1037,5 hPa 0,0 l/m 4,8 km/h (1 Bft) NO 45 0 min 0,0 UV-I 0 W/m -3,5 C -2,7 C 6,4 km/h (2 Bft)
25.01.2023 02:12 -2,7 C -1,1 C 94 % 1037,5 hPa 0,0 l/m 3,2 km/h (1 Bft) NO 45 0 min 0,0 UV-I 0 W/m -3,5 C -2,7 C 4,8 km/h (1 Bft)
25.01.2023 02:13 -2,7 C -1,1 C 94 % 1037,5 hPa 0,0 l/m 4,8 km/h (1 Bft) NO 45 0 min 0,0 UV-I 0 W/m -3,5 C -2,7 C 11,3 km/h (2 Bft)
25.01.2023 02:14 -2,7 C -1,1 C 94 % 1037,4 hPa 0,0 l/m 6,4 km/h (2 Bft) NO 45 0 min 0,0 UV-I 0 W/m -3,5 C -2,7 C 9,7 km/h (2 Bft)
25.01.2023 02:15 -2,7 C -1,1 C 94 % 1037,6 hPa 0,0 l/m 4,8 km/h (1 Bft) NO 45 0 min 0,0 UV-I 0 W/m -3,5 C -2,7 C 4,8 km/h (1 Bft)
25.01.2023 02:16 -2,7 C -1,1 C 94 % 1037,4 hPa 0,0 l/m 4,8 km/h (1 Bft) NO 45 0 min 0,0 UV-I 0 W/m -3,5 C -2,7 C 6,4 km/h (2 Bft)
25.01.2023 02:17 -2,7 C -1,1 C 94 % 1037,5 hPa 0,0 l/m 3,2 km/h (1 Bft) NO 45 0 min 0,0 UV-I 0 W/m -3,5 C -2,7 C 4,8 km/h (1 Bft)
25.01.2023 02:18 -2,7 C -1,1 C 94 % 1037,4 hPa 0,0 l/m 3,2 km/h (1 Bft) NO 45 0 min 0,0 UV-I 0 W/m -3,5 C -2,7 C 4,8 km/h (1 Bft)
25.01.2023 02:19 -2,7 C -1,1 C 94 % 1037,4 hPa 0,0 l/m 4,8 km/h (1 Bft) NO 45 0 min 0,0 UV-I 0 W/m -3,5 C -2,7 C 9,7 km/h (2 Bft)
25.01.2023 02:20 -2,7 C -1,1 C 94 % 1037,4 hPa 0,0 l/m 6,4 km/h (2 Bft) NO 45 0 min 0,0 UV-I 0 W/m -3,5 C -2,7 C 8,0 km/h (2 Bft)
25.01.2023 02:21 -2,7 C -1,1 C 94 % 1037,4 hPa 0,0 l/m 4,8 km/h (1 Bft) NO 45 0 min 0,0 UV-I 0 W/m -3,5 C -2,7 C 6,4 km/h (2 Bft)
25.01.2023 02:22 -2,7 C -1,1 C 94 % 1037,4 hPa 0,0 l/m 6,4 km/h (2 Bft) NO 45 0 min 0,0 UV-I 0 W/m -3,5 C -2,7 C 11,3 km/h (2 Bft)
25.01.2023 02:23 -2,7 C -1,1 C 94 % 1037,4 hPa 0,0 l/m 6,4 km/h (2 Bft) NO 45 0 min 0,0 UV-I 0 W/m -3,5 C -2,7 C 11,3 km/h (2 Bft)
25.01.2023 02:24 -2,7 C -1,1 C 94 % 1037,4 hPa 0,0 l/m 4,8 km/h (1 Bft) N-NO 22 0 min 0,0 UV-I 0 W/m -3,5 C -2,7 C 6,4 km/h (2 Bft)
25.01.2023 02:25 -2,7 C -1,1 C 94 % 1037,4 hPa 0,0 l/m 6,4 km/h (2 Bft) NO 45 0 min 0,0 UV-I 0 W/m -3,5 C -2,7 C 8,0 km/h (2 Bft)
25.01.2023 02:26 -2,7 C -1,1 C 94 % 1037,5 hPa 0,0 l/m 6,4 km/h (2 Bft) NO 45 0 min 0,0 UV-I 0 W/m -3,5 C -2,7 C 8,0 km/h (2 Bft)
25.01.2023 02:27 -2,7 C -1,1 C 94 % 1037,4 hPa 0,0 l/m 6,4 km/h (2 Bft) O-NO 67 0 min 0,0 UV-I 0 W/m -3,5 C -2,7 C 8,0 km/h (2 Bft)
25.01.2023 02:28 -2,7 C -1,1 C 94 % 1037,5 hPa 0,0 l/m 6,4 km/h (2 Bft) O-NO 67 0 min 0,0 UV-I 0 W/m -3,5 C -2,7 C 9,7 km/h (2 Bft)
25.01.2023 02:29 -2,8 C -1,1 C 94 % 1037,6 hPa 0,0 l/m 6,4 km/h (2 Bft) O-NO 67 0 min 0,0 UV-I 0 W/m -3,6 C -2,8 C 9,7 km/h (2 Bft)
25.01.2023 02:30 -2,7 C -1,1 C 94 % 1037,5 hPa 0,0 l/m 4,8 km/h (1 Bft) O-NO 67 0 min 0,0 UV-I 0 W/m -3,5 C -2,7 C 6,4 km/h (2 Bft)
25.01.2023 02:31 -2,8 C -1,1 C 93 % 1037,5 hPa 0,0 l/m 3,2 km/h (1 Bft) O-NO 67 0 min 0,0 UV-I 0 W/m -3,8 C -2,8 C 4,8 km/h (1 Bft)
25.01.2023 02:32 -2,8 C -1,1 C 93 % 1037,5 hPa 0,0 l/m 1,6 km/h (1 Bft) O-NO 67 0 min 0,0 UV-I 0 W/m -3,8 C -2,8 C 3,2 km/h (1 Bft)
25.01.2023 02:33 -2,8 C -1,1 C 93 % 1037,5 hPa 0,0 l/m 1,6 km/h (1 Bft) O-NO 67 0 min 0,0 UV-I 0 W/m -3,8 C -2,8 C 3,2 km/h (1 Bft)
25.01.2023 02:34 -2,8 C -1,1 C 93 % 1037,4 hPa 0,0 l/m 3,2 km/h (1 Bft) O 90 0 min 0,0 UV-I 0 W/m -3,8 C -2,8 C 6,4 km/h (2 Bft)
25.01.2023 02:35 -2,8 C -1,1 C 93 % 1037,4 hPa 0,0 l/m 4,8 km/h (1 Bft) O-NO 67 0 min 0,0 UV-I 0 W/m -3,8 C -2,8 C 6,4 km/h (2 Bft)
25.01.2023 02:36 -2,8 C -1,1 C 94 % 1037,6 hPa 0,0 l/m 3,2 km/h (1 Bft) O-NO 67 0 min 0,0 UV-I 0 W/m -3,6 C -2,8 C 4,8 km/h (1 Bft)
25.01.2023 02:37 -2,8 C -1,1 C 93 % 1037,4 hPa 0,0 l/m 1,6 km/h (1 Bft) O-NO 67 0 min 0,0 UV-I 0 W/m -3,8 C -2,8 C 3,2 km/h (1 Bft)
25.01.2023 02:38 -2,8 C -1,1 C 93 % 1037,4 hPa 0,0 l/m 1,6 km/h (1 Bft) O-NO 67 0 min 0,0 UV-I 0 W/m -3,8 C -2,8 C 4,8 km/h (1 Bft)
25.01.2023 02:39 -2,8 C -1,1 C 93 % 1037,4 hPa 0,0 l/m 4,8 km/h (1 Bft) O-NO 67 0 min 0,0 UV-I 0 W/m -3,8 C -2,8 C 6,4 km/h (2 Bft)
25.01.2023 02:40 -2,8 C -1,1 C 93 % 1037,5 hPa 0,0 l/m 4,8 km/h (1 Bft) NO 45 0 min 0,0 UV-I 0 W/m -3,8 C -2,8 C 6,4 km/h (2 Bft)
25.01.2023 02:41 -2,8 C -1,1 C 93 % 1037,5 hPa 0,0 l/m 4,8 km/h (1 Bft) NO 45 0 min 0,0 UV-I 0 W/m -3,8 C -2,8 C 8,0 km/h (2 Bft)
25.01.2023 02:42 -2,8 C -1,1 C 93 % 1037,6 hPa 0,0 l/m 6,4 km/h (2 Bft) O-NO 67 0 min 0,0 UV-I 0 W/m -3,8 C -2,8 C 8,0 km/h (2 Bft)
25.01.2023 02:43 -2,8 C -1,1 C 93 % 1037,4 hPa 0,0 l/m 6,4 km/h (2 Bft) NO 45 0 min 0,0 UV-I 0 W/m -3,8 C -2,8 C 8,0 km/h (2 Bft)
25.01.2023 02:44 -2,8 C -1,1 C 93 % 1037,5 hPa 0,0 l/m 4,8 km/h (1 Bft) O-NO 67 0 min 0,0 UV-I 0 W/m -3,8 C -2,8 C 6,4 km/h (2 Bft)
25.01.2023 02:45 -2,8 C -1,1 C 93 % 1037,4 hPa 0,0 l/m 3,2 km/h (1 Bft) O-NO 67 0 min 0,0 UV-I 0 W/m -3,8 C -2,8 C 3,2 km/h (1 Bft)
25.01.2023 02:46 -2,8 C -1,1 C 93 % 1037,4 hPa 0,0 l/m 3,2 km/h (1 Bft) O-NO 67 0 min 0,0 UV-I 0 W/m -3,8 C -2,8 C 4,8 km/h (1 Bft)
25.01.2023 02:47 -2,8 C -1,1 C 93 % 1037,4 hPa 0,0 l/m 4,8 km/h (1 Bft) O-NO 67 0 min 0,0 UV-I 0 W/m -3,8 C -2,8 C 4,8 km/h (1 Bft)
25.01.2023 02:48 -2,8 C -1,1 C 93 % 1037,4 hPa 0,0 l/m 3,2 km/h (1 Bft) O-NO 67 0 min 0,0 UV-I 0 W/m -3,8 C -2,8 C 4,8 km/h (1 Bft)
25.01.2023 02:49 -2,8 C -1,1 C 93 % 1037,4 hPa 0,0 l/m 1,6 km/h (1 Bft) O-NO 67 0 min 0,0 UV-I 0 W/m -3,8 C -2,8 C 3,2 km/h (1 Bft)
25.01.2023 02:50 -2,8 C -1,1 C 93 % 1037,4 hPa 0,0 l/m 1,6 km/h (1 Bft) O-NO 67 0 min 0,0 UV-I 0 W/m -3,8 C -2,8 C 1,6 km/h (1 Bft)
25.01.2023 02:51 -2,8 C -1,1 C 93 % 1037,4 hPa 0,0 l/m 3,2 km/h (1 Bft) O-NO 67 0 min 0,0 UV-I 0 W/m -3,8 C -2,8 C 6,4 km/h (2 Bft)
25.01.2023 02:52 -2,8 C -1,1 C 93 % 1037,4 hPa 0,0 l/m 4,8 km/h (1 Bft) O 90 0 min 0,0 UV-I 0 W/m -3,8 C -2,8 C 6,4 km/h (2 Bft)
25.01.2023 02:53 -2,8 C -1,7 C 93 % 1037,4 hPa 0,0 l/m 3,2 km/h (1 Bft) O 90 0 min 0,0 UV-I 0 W/m -3,8 C -2,8 C 4,8 km/h (1 Bft)
25.01.2023 02:54 -2,8 C -1,7 C 93 % 1037,4 hPa 0,0 l/m 1,6 km/h (1 Bft) O 90 0 min 0,0 UV-I 0 W/m -3,8 C -2,8 C 3,2 km/h (1 Bft)
25.01.2023 02:55 -2,8 C -1,7 C 93 % 1037,4 hPa 0,0 l/m 1,6 km/h (1 Bft) O 90 0 min 0,0 UV-I 0 W/m -3,8 C -2,8 C 3,2 km/h (1 Bft)
25.01.2023 02:56 -2,8 C -1,7 C 93 % 1037,4 hPa 0,0 l/m 1,6 km/h (1 Bft) O 90 0 min 0,0 UV-I 0 W/m -3,8 C -2,8 C 3,2 km/h (1 Bft)
25.01.2023 02:57 -2,8 C -1,7 C 93 % 1037,4 hPa 0,0 l/m 1,6 km/h (1 Bft) O 90 0 min 0,0 UV-I 0 W/m -3,8 C -2,8 C 3,2 km/h (1 Bft)
25.01.2023 02:58 -2,8 C -1,1 C 93 % 1037,3 hPa 0,0 l/m 3,2 km/h (1 Bft) O 90 0 min 0,0 UV-I 0 W/m -3,8 C -2,8 C 6,4 km/h (2 Bft)
25.01.2023 02:59 -2,8 C -1,1 C 93 % 1037,3 hPa 0,0 l/m 3,2 km/h (1 Bft) O 90 0 min 0,0 UV-I 0 W/m -3,8 C -2,8 C 4,8 km/h (1 Bft)
25.01.2023 03:00 -2,8 C -1,1 C 93 % 1037,4 hPa 0,0 l/m 0,0 km/h (0 Bft) O 90 0 min 0,0 UV-I 0 W/m -3,8 C -2,8 C 1,6 km/h (1 Bft)
25.01.2023 03:01 -2,8 C -1,7 C 93 % 1037,3 hPa 0,0 l/m 1,6 km/h (1 Bft) O 90 0 min 0,0 UV-I 0 W/m -3,8 C -2,8 C 3,2 km/h (1 Bft)
25.01.2023 03:02 -2,8 C -1,7 C 93 % 1037,3 hPa 0,0 l/m 3,2 km/h (1 Bft) O 90 0 min 0,0 UV-I 0 W/m -3,8 C -2,8 C 4,8 km/h (1 Bft)
25.01.2023 03:03 -2,8 C -1,7 C 93 % 1037,4 hPa 0,0 l/m 4,8 km/h (1 Bft) O 90 0 min 0,0 UV-I 0 W/m -3,8 C -2,8 C 6,4 km/h (2 Bft)
25.01.2023 03:04 -2,8 C -1,7 C 93 % 1037,3 hPa 0,0 l/m 3,2 km/h (1 Bft) O 90 0 min 0,0 UV-I 0 W/m -3,8 C -2,8 C 4,8 km/h (1 Bft)
25.01.2023 03:05 -2,8 C -1,7 C 93 % 1037,3 hPa 0,0 l/m 4,8 km/h (1 Bft) O-NO 67 0 min 0,0 UV-I 0 W/m -3,8 C -2,8 C 6,4 km/h (2 Bft)
25.01.2023 03:06 -2,8 C -1,7 C 93 % 1037,3 hPa 0,0 l/m 4,8 km/h (1 Bft) O-NO 67 0 min 0,0 UV-I 0 W/m -3,8 C -2,8 C 4,8 km/h (1 Bft)
25.01.2023 03:07 -2,8 C -1,7 C 93 % 1037,4 hPa 0,0 l/m 4,8 km/h (1 Bft) O-NO 67 0 min 0,0 UV-I 0 W/m -3,8 C -2,8 C 6,4 km/h (2 Bft)
25.01.2023 03:08 -2,8 C -1,7 C 93 % 1037,4 hPa 0,0 l/m 3,2 km/h (1 Bft) O-NO 67 0 min 0,0 UV-I 0 W/m -3,8 C -2,8 C 6,4 km/h (2 Bft)
25.01.2023 03:09 -2,8 C -1,1 C 93 % 1037,3 hPa 0,0 l/m 3,2 km/h (1 Bft) O-NO 67 0 min 0,0 UV-I 0 W/m -3,8 C -2,8 C 3,2 km/h (1 Bft)
25.01.2023 03:10 -2,8 C -1,1 C 93 % 1037,3 hPa 0,0 l/m 0,0 km/h (0 Bft) O-NO 67 0 min 0,0 UV-I 0 W/m -3,8 C -2,8 C 3,2 km/h (1 Bft)
25.01.2023 03:11 -2,8 C -1,1 C 93 % 1037,3 hPa 0,0 l/m 0,0 km/h (0 Bft) N 0 0 min 0,0 UV-I 0 W/m -3,8 C -2,8 C 0,0 km/h (0 Bft)
25.01.2023 03:12 -2,8 C -1,1 C 93 % 1037,3 hPa 0,0 l/m 3,2 km/h (1 Bft) O-NO 67 0 min 0,0 UV-I 0 W/m -3,8 C -2,8 C 6,4 km/h (2 Bft)
25.01.2023 03:13 -2,8 C -1,1 C 93 % 1037,4 hPa 0,0 l/m 3,2 km/h (1 Bft) O-NO 67 0 min 0,0 UV-I 0 W/m -3,8 C -2,8 C 4,8 km/h (1 Bft)
25.01.2023 03:14 -2,8 C -1,1 C 93 % 1037,3 hPa 0,0 l/m 4,8 km/h (1 Bft) NO 45 0 min 0,0 UV-I 0 W/m -3,8 C -2,8 C 6,4 km/h (2 Bft)
25.01.2023 03:15 -2,8 C -1,1 C 93 % 1037,4 hPa 0,0 l/m 4,8 km/h (1 Bft) N-NO 22 0 min 0,0 UV-I 0 W/m -3,8 C -2,8 C 6,4 km/h (2 Bft)
25.01.2023 03:16 -2,8 C -1,1 C 93 % 1037,3 hPa 0,0 l/m 6,4 km/h (2 Bft) NO 45 0 min 0,0 UV-I 0 W/m -3,8 C -2,8 C 8,0 km/h (2 Bft)
25.01.2023 03:17 -2,8 C -1,1 C 93 % 1037,4 hPa 0,0 l/m 4,8 km/h (1 Bft) NO 45 0 min 0,0 UV-I 0 W/m -3,8 C -2,8 C 6,4 km/h (2 Bft)
25.01.2023 03:18 -2,8 C -1,1 C 94 % 1037,4 hPa 0,0 l/m 4,8 km/h (1 Bft) NO 45 0 min 0,0 UV-I 0 W/m -3,6 C -2,8 C 6,4 km/h (2 Bft)
25.01.2023 03:19 -2,8 C -1,1 C 93 % 1037,4 hPa 0,0 l/m 4,8 km/h (1 Bft) NO 45 0 min 0,0 UV-I 0 W/m -3,8 C -2,8 C 4,8 km/h (1 Bft)
25.01.2023 03:20 -2,8 C -1,1 C 94 % 1037,5 hPa 0,0 l/m 3,2 km/h (1 Bft) NO 45 0 min 0,0 UV-I 0 W/m -3,6 C -2,8 C 4,8 km/h (1 Bft)
25.01.2023 03:21 -2,8 C -1,1 C 93 % 1037,4 hPa 0,0 l/m 4,8 km/h (1 Bft) NO 45 0 min 0,0 UV-I 0 W/m -3,8 C -2,8 C 8,0 km/h (2 Bft)
25.01.2023 03:22 -2,7 C -1,1 C 93 % 1037,4 hPa 0,0 l/m 3,2 km/h (1 Bft) NO 45 0 min 0,0 UV-I 0 W/m -3,7 C -2,7 C 6,4 km/h (2 Bft)
25.01.2023 03:23 -2,8 C -1,1 C 94 % 1037,3 hPa 0,0 l/m 4,8 km/h (1 Bft) NO 45 0 min 0,0 UV-I 0 W/m -3,6 C -2,8 C 4,8 km/h (1 Bft)
25.01.2023 03:24 -2,7 C -1,1 C 94 % 1037,3 hPa 0,0 l/m 1,6 km/h (1 Bft) NO 45 0 min 0,0 UV-I 0 W/m -3,5 C -2,7 C 3,2 km/h (1 Bft)
25.01.2023 03:25 -2,7 C -1,1 C 94 % 1037,3 hPa 0,0 l/m 4,8 km/h (1 Bft) NO 45 0 min 0,0 UV-I 0 W/m -3,5 C -2,7 C 8,0 km/h (2 Bft)
25.01.2023 03:26 -2,7 C -1,1 C 93 % 1037,3 hPa 0,0 l/m 6,4 km/h (2 Bft) N-NO 22 0 min 0,0 UV-I 0 W/m -3,7 C -2,7 C 6,4 km/h (2 Bft)
25.01.2023 03:27 -2,7 C -1,1 C 94 % 1037,4 hPa 0,0 l/m 4,8 km/h (1 Bft) NO 45 0 min 0,0 UV-I 0 W/m -3,5 C -2,7 C 6,4 km/h (2 Bft)
25.01.2023 03:28 -2,8 C -1,1 C 93 % 1037,4 hPa 0,0 l/m 4,8 km/h (1 Bft) NO 45 0 min 0,0 UV-I 0 W/m -3,8 C -2,8 C 6,4 km/h (2 Bft)
25.01.2023 03:29 -2,8 C -1,1 C 94 % 1037,3 hPa 0,0 l/m 4,8 km/h (1 Bft) NO 45 0 min 0,0 UV-I 0 W/m -3,6 C -2,8 C 8,0 km/h (2 Bft)
25.01.2023 03:30 -2,8 C -1,1 C 93 % 1037,3 hPa 0,0 l/m 4,8 km/h (1 Bft) NO 45 0 min 0,0 UV-I 0 W/m -3,8 C -2,8 C 6,4 km/h (2 Bft)
25.01.2023 03:31 -2,8 C -1,1 C 93 % 1037,4 hPa 0,0 l/m 4,8 km/h (1 Bft) NO 45 0 min 0,0 UV-I 0 W/m -3,8 C -2,8 C 6,4 km/h (2 Bft)
25.01.2023 03:32 -2,8 C -1,1 C 93 % 1037,4 hPa 0,0 l/m 4,8 km/h (1 Bft) N-NO 22 0 min 0,0 UV-I 0 W/m -3,8 C -2,8 C 6,4 km/h (2 Bft)
25.01.2023 03:33 -2,8 C -1,1 C 93 % 1037,3 hPa 0,0 l/m 3,2 km/h (1 Bft) N-NO 22 0 min 0,0 UV-I 0 W/m -3,8 C -2,8 C 4,8 km/h (1 Bft)
25.01.2023 03:34 -2,8 C -1,1 C 93 % 1037,3 hPa 0,0 l/m 4,8 km/h (1 Bft) N-NO 22 0 min 0,0 UV-I 0 W/m -3,8 C -2,8 C 6,4 km/h (2 Bft)
25.01.2023 03:35 -2,8 C -1,1 C 93 % 1037,3 hPa 0,0 l/m 6,4 km/h (2 Bft) NO 45 0 min 0,0 UV-I 0 W/m -3,8 C -2,8 C 8,0 km/h (2 Bft)
25.01.2023 03:36 -2,8 C -1,1 C 93 % 1037,3 hPa 0,0 l/m 6,4 km/h (2 Bft) NO 45 0 min 0,0 UV-I 0 W/m -3,8 C -2,8 C 8,0 km/h (2 Bft)
25.01.2023 03:37 -2,8 C -1,1 C 93 % 1037,4 hPa 0,0 l/m 4,8 km/h (1 Bft) NO 45 0 min 0,0 UV-I 0 W/m -3,8 C -2,8 C 6,4 km/h (2 Bft)
25.01.2023 03:38 -2,8 C -1,1 C 93 % 1037,3 hPa 0,0 l/m 6,4 km/h (2 Bft) NO 45 0 min 0,0 UV-I 0 W/m -3,8 C -2,8 C 8,0 km/h (2 Bft)
25.01.2023 03:39 -2,8 C -1,1 C 93 % 1037,4 hPa 0,0 l/m 4,8 km/h (1 Bft) O-NO 67 0 min 0,0 UV-I 0 W/m -3,8 C -2,8 C 8,0 km/h (2 Bft)
25.01.2023 03:40 -2,8 C -1,1 C 93 % 1037,4 hPa 0,0 l/m 3,2 km/h (1 Bft) O-NO 67 0 min 0,0 UV-I 0 W/m -3,8 C -2,8 C 6,4 km/h (2 Bft)
25.01.2023 03:41 -2,8 C -1,1 C 93 % 1037,3 hPa 0,0 l/m 3,2 km/h (1 Bft) O-NO 67 0 min 0,0 UV-I 0 W/m -3,8 C -2,8 C 6,4 km/h (2 Bft)
25.01.2023 03:42 -2,8 C -1,1 C 93 % 1037,4 hPa 0,0 l/m 3,2 km/h (1 Bft) O-NO 67 0 min 0,0 UV-I 0 W/m -3,8 C -2,8 C 3,2 km/h (1 Bft)
25.01.2023 03:43 -2,8 C -1,7 C 93 % 1037,4 hPa 0,0 l/m 3,2 km/h (1 Bft) O-NO 67 0 min 0,0 UV-I 0 W/m -3,8 C -2,8 C 4,8 km/h (1 Bft)
25.01.2023 03:44 -2,8 C -1,7 C 93 % 1037,4 hPa 0,0 l/m 3,2 km/h (1 Bft) O-NO 67 0 min 0,0 UV-I 0 W/m -3,8 C -2,8 C 4,8 km/h (1 Bft)
25.01.2023 03:45 -2,8 C -1,1 C 93 % 1037,3 hPa 0,0 l/m 1,6 km/h (1 Bft) O-NO 67 0 min 0,0 UV-I 0 W/m -3,8 C -2,8 C 3,2 km/h (1 Bft)
25.01.2023 03:46 -2,8 C -1,1 C 93 % 1037,4 hPa 0,0 l/m 3,2 km/h (1 Bft) O-NO 67 0 min 0,0 UV-I 0 W/m -3,8 C -2,8 C 4,8 km/h (1 Bft)
25.01.2023 03:47 -2,8 C -1,1 C 93 % 1037,3 hPa 0,0 l/m 3,2 km/h (1 Bft) O-NO 67 0 min 0,0 UV-I 0 W/m -3,8 C -2,8 C 4,8 km/h (1 Bft)
25.01.2023 03:48 -2,8 C -1,1 C 93 % 1037,3 hPa 0,0 l/m 1,6 km/h (1 Bft) O-NO 67 0 min 0,0 UV-I 0 W/m -3,8 C -2,8 C 3,2 km/h (1 Bft)
25.01.2023 03:49 -2,8 C -1,1 C 93 % 1037,3 hPa 0,0 l/m 3,2 km/h (1 Bft) O-NO 67 0 min 0,0 UV-I 0 W/m -3,8 C -2,8 C 4,8 km/h (1 Bft)
25.01.2023 03:50 -2,8 C -1,1 C 93 % 1037,3 hPa 0,0 l/m 1,6 km/h (1 Bft) O-NO 67 0 min 0,0 UV-I 0 W/m -3,8 C -2,8 C 3,2 km/h (1 Bft)
25.01.2023 03:51 -2,8 C -1,1 C 93 % 1037,3 hPa 0,0 l/m 3,2 km/h (1 Bft) O-NO 67 0 min 0,0 UV-I 0 W/m -3,8 C -2,8 C 6,4 km/h (2 Bft)
25.01.2023 03:52 -2,8 C -1,1 C 93 % 1037,3 hPa 0,0 l/m 4,8 km/h (1 Bft) N-NO 22 0 min 0,0 UV-I 0 W/m -3,8 C -2,8 C 8,0 km/h (2 Bft)
25.01.2023 03:53 -2,8 C -1,1 C 93 % 1037,2 hPa 0,0 l/m 4,8 km/h (1 Bft) N-NO 22 0 min 0,0 UV-I 0 W/m -3,8 C -2,8 C 6,4 km/h (2 Bft)
25.01.2023 03:54 -2,8 C -1,1 C 93 % 1037,4 hPa 0,0 l/m 4,8 km/h (1 Bft) NO 45 0 min 0,0 UV-I 0 W/m -3,8 C -2,8 C 6,4 km/h (2 Bft)
25.01.2023 03:55 -2,8 C -1,1 C 93 % 1037,3 hPa 0,0 l/m 3,2 km/h (1 Bft) NO 45 0 min 0,0 UV-I 0 W/m -3,8 C -2,8 C 4,8 km/h (1 Bft)
25.01.2023 03:56 -2,8 C -1,1 C 93 % 1037,3 hPa 0,0 l/m 3,2 km/h (1 Bft) NO 45 0 min 0,0 UV-I 0 W/m -3,8 C -2,8 C 6,4 km/h (2 Bft)
25.01.2023 03:57 -2,8 C -1,1 C 93 % 1037,2 hPa 0,0 l/m 3,2 km/h (1 Bft) O-NO 67 0 min 0,0 UV-I 0 W/m -3,8 C -2,8 C 6,4 km/h (2 Bft)
25.01.2023 03:58 -2,8 C -1,1 C 93 % 1037,4 hPa 0,0 l/m 3,2 km/h (1 Bft) O-NO 67 0 min 0,0 UV-I 0 W/m -3,8 C -2,8 C 4,8 km/h (1 Bft)
25.01.2023 03:59 -2,8 C -1,1 C 93 % 1037,3 hPa 0,0 l/m 1,6 km/h (1 Bft) NO 45 0 min 0,0 UV-I 0 W/m -3,8 C -2,8 C 3,2 km/h (1 Bft)
25.01.2023 04:00 -2,8 C -1,1 C 93 % 1037,2 hPa 0,0 l/m 1,6 km/h (1 Bft) NO 45 0 min 0,0 UV-I 0 W/m -3,8 C -2,8 C 4,8 km/h (1 Bft)
25.01.2023 04:01 -2,8 C -1,1 C 93 % 1037,4 hPa 0,0 l/m 6,4 km/h (2 Bft) NO 45 0 min 0,0 UV-I 0 W/m -3,8 C -2,8 C 11,3 km/h (2 Bft)
25.01.2023 04:02 -2,8 C -1,1 C 93 % 1037,3 hPa 0,0 l/m 4,8 km/h (1 Bft) NO 45 0 min 0,0 UV-I 0 W/m -3,8 C -2,8 C 6,4 km/h (2 Bft)
25.01.2023 04:03 -2,8 C -1,1 C 93 % 1037,2 hPa 0,0 l/m 3,2 km/h (1 Bft) NO 45 0 min 0,0 UV-I 0 W/m -3,8 C -2,8 C 6,4 km/h (2 Bft)
25.01.2023 04:04 -2,8 C -1,1 C 93 % 1037,3 hPa 0,0 l/m 6,4 km/h (2 Bft) NO 45 0 min 0,0 UV-I 0 W/m -3,8 C -2,8 C 8,0 km/h (2 Bft)
25.01.2023 04:05 -2,8 C -1,1 C 93 % 1037,3 hPa 0,0 l/m 3,2 km/h (1 Bft) O-NO 67 0 min 0,0 UV-I 0 W/m -3,8 C -2,8 C 4,8 km/h (1 Bft)
25.01.2023 04:06 -2,8 C -1,1 C 93 % 1037,4 hPa 0,0 l/m 3,2 km/h (1 Bft) O 90 0 min 0,0 UV-I 0 W/m -3,8 C -2,8 C 8,0 km/h (2 Bft)
25.01.2023 04:07 -2,8 C -1,1 C 93 % 1037,3 hPa 0,0 l/m 4,8 km/h (1 Bft) O-NO 67 0 min 0,0 UV-I 0 W/m -3,8 C -2,8 C 6,4 km/h (2 Bft)
25.01.2023 04:08 -2,8 C -1,7 C 93 % 1037,3 hPa 0,0 l/m 4,8 km/h (1 Bft) O-NO 67 0 min 0,0 UV-I 0 W/m -3,8 C -2,8 C 6,4 km/h (2 Bft)
25.01.2023 04:09 -2,8 C -1,1 C 93 % 1037,3 hPa 0,0 l/m 1,6 km/h (1 Bft) O-NO 67 0 min 0,0 UV-I 0 W/m -3,8 C -2,8 C 4,8 km/h (1 Bft)
25.01.2023 04:10 -2,8 C -1,1 C 93 % 1037,3 hPa 0,0 l/m 3,2 km/h (1 Bft) O-NO 67 0 min 0,0 UV-I 0 W/m -3,8 C -2,8 C 4,8 km/h (1 Bft)
25.01.2023 04:11 -2,8 C -1,1 C 93 % 1037,3 hPa 0,0 l/m 3,2 km/h (1 Bft) O-NO 67 0 min 0,0 UV-I 0 W/m -3,8 C -2,8 C 6,4 km/h (2 Bft)
25.01.2023 04:12 -2,9 C -1,7 C 93 % 1037,2 hPa 0,0 l/m 3,2 km/h (1 Bft) O 90 0 min 0,0 UV-I 0 W/m -3,9 C -2,9 C 4,8 km/h (1 Bft)
25.01.2023 04:13 -2,9 C -1,7 C 93 % 1037,3 hPa 0,0 l/m 4,8 km/h (1 Bft) O-NO 67 0 min 0,0 UV-I 0 W/m -3,9 C -2,9 C 4,8 km/h (1 Bft)
25.01.2023 04:14 -2,9 C -1,7 C 93 % 1037,3 hPa 0,0 l/m 4,8 km/h (1 Bft) O-NO 67 0 min 0,0 UV-I 0 W/m -3,9 C -2,9 C 4,8 km/h (1 Bft)
25.01.2023 04:15 -2,9 C -1,7 C 93 % 1037,2 hPa 0,0 l/m 3,2 km/h (1 Bft) O-NO 67 0 min 0,0 UV-I 0 W/m -3,9 C -2,9 C 6,4 km/h (2 Bft)
25.01.2023 04:16 -2,9 C -1,7 C 93 % 1037,2 hPa 0,0 l/m 1,6 km/h (1 Bft) O-NO 67 0 min 0,0 UV-I 0 W/m -3,9 C -2,9 C 1,6 km/h (1 Bft)
25.01.2023 04:17 -2,9 C -1,7 C 93 % 1037,3 hPa 0,0 l/m 3,2 km/h (1 Bft) O-NO 67 0 min 0,0 UV-I 0 W/m -3,9 C -2,9 C 6,4 km/h (2 Bft)
25.01.2023 04:18 -2,9 C -1,7 C 93 % 1037,2 hPa 0,0 l/m 3,2 km/h (1 Bft) O-NO 67 0 min 0,0 UV-I 0 W/m -3,9 C -2,9 C 4,8 km/h (1 Bft)
25.01.2023 04:19 -2,9 C -1,7 C 94 % 1037,3 hPa 0,0 l/m 3,2 km/h (1 Bft) O-NO 67 0 min 0,0 UV-I 0 W/m -3,7 C -2,9 C 4,8 km/h (1 Bft)
25.01.2023 04:20 -2,9 C -1,1 C 93 % 1037,3 hPa 0,0 l/m 6,4 km/h (2 Bft) NO 45 0 min 0,0 UV-I 0 W/m -3,9 C -2,9 C 8,0 km/h (2 Bft)
25.01.2023 04:21 -2,9 C -1,1 C 93 % 1037,3 hPa 0,0 l/m 6,4 km/h (2 Bft) NO 45 0 min 0,0 UV-I 0 W/m -3,9 C -2,9 C 9,7 km/h (2 Bft)
25.01.2023 04:22 -2,9 C -1,1 C 93 % 1037,3 hPa 0,0 l/m 6,4 km/h (2 Bft) NO 45 0 min 0,0 UV-I 0 W/m -3,9 C -2,9 C 8,0 km/h (2 Bft)
25.01.2023 04:23 -2,9 C -1,1 C 94 % 1037,3 hPa 0,0 l/m 4,8 km/h (1 Bft) N-NO 22 0 min 0,0 UV-I 0 W/m -3,7 C -2,9 C 6,4 km/h (2 Bft)
25.01.2023 04:24 -2,9 C -1,1 C 93 % 1037,2 hPa 0,0 l/m 4,8 km/h (1 Bft) NO 45 0 min 0,0 UV-I 0 W/m -3,9 C -2,9 C 8,0 km/h (2 Bft)
25.01.2023 04:25 -2,9 C -1,1 C 93 % 1037,2 hPa 0,0 l/m 6,4 km/h (2 Bft) NO 45 0 min 0,0 UV-I 0 W/m -3,9 C -2,9 C 8,0 km/h (2 Bft)
25.01.2023 04:26 -2,9 C -1,1 C 94 % 1037,3 hPa 0,0 l/m 4,8 km/h (1 Bft) NO 45 0 min 0,0 UV-I 0 W/m -3,7 C -2,9 C 6,4 km/h (2 Bft)
25.01.2023 04:27 -2,9 C -1,1 C 94 % 1037,2 hPa 0,0 l/m 4,8 km/h (1 Bft) NO 45 0 min 0,0 UV-I 0 W/m -3,7 C -2,9 C 6,4 km/h (2 Bft)
25.01.2023 04:28 -2,9 C -1,1 C 94 % 1037,3 hPa 0,0 l/m 4,8 km/h (1 Bft) NO 45 0 min 0,0 UV-I 0 W/m -3,7 C -2,9 C 6,4 km/h (2 Bft)
25.01.2023 04:29 -2,9 C -1,1 C 93 % 1037,2 hPa 0,0 l/m 6,4 km/h (2 Bft) NO 45 0 min 0,0 UV-I 0 W/m -3,9 C -2,9 C 8,0 km/h (2 Bft)
25.01.2023 04:30 -2,9 C -1,1 C 93 % 1037,3 hPa 0,0 l/m 6,4 km/h (2 Bft) NO 45 0 min 0,0 UV-I 0 W/m -3,9 C -2,9 C 8,0 km/h (2 Bft)
25.01.2023 04:31 -2,9 C -1,1 C 94 % 1037,3 hPa 0,0 l/m 6,4 km/h (2 Bft) NO 45 0 min 0,0 UV-I 0 W/m -3,7 C -2,9 C 8,0 km/h (2 Bft)
25.01.2023 04:32 -2,9 C -1,1 C 94 % 1037,3 hPa 0,0 l/m 6,4 km/h (2 Bft) NO 45 0 min 0,0 UV-I 0 W/m -3,7 C -2,9 C 9,7 km/h (2 Bft)
25.01.2023 04:33 -2,9 C -1,1 C 93 % 1037,3 hPa 0,0 l/m 8,0 km/h (2 Bft) NO 45 0 min 0,0 UV-I 0 W/m -3,9 C -4,7 C 9,7 km/h (2 Bft)
25.01.2023 04:34 -2,9 C -1,1 C 93 % 1037,3 hPa 0,0 l/m 6,4 km/h (2 Bft) N-NO 22 0 min 0,0 UV-I 0 W/m -3,9 C -2,9 C 8,0 km/h (2 Bft)
25.01.2023 04:35 -3,0 C -1,1 C 93 % 1037,2 hPa 0,0 l/m 4,8 km/h (1 Bft) NO 45 0 min 0,0 UV-I 0 W/m -4,0 C -3,0 C 6,4 km/h (2 Bft)
25.01.2023 04:36 -2,9 C -1,1 C 93 % 1037,3 hPa 0,0 l/m 6,4 km/h (2 Bft) NO 45 0 min 0,0 UV-I 0 W/m -3,9 C -2,9 C 9,7 km/h (2 Bft)
25.01.2023 04:37 -2,9 C -1,1 C 93 % 1037,2 hPa 0,0 l/m 3,2 km/h (1 Bft) NO 45 0 min 0,0 UV-I 0 W/m -3,9 C -2,9 C 4,8 km/h (1 Bft)
25.01.2023 04:38 -3,0 C -1,1 C 94 % 1037,2 hPa 0,0 l/m 3,2 km/h (1 Bft) NO 45 0 min 0,0 UV-I 0 W/m -3,8 C -3,0 C 4,8 km/h (1 Bft)
25.01.2023 04:39 -3,0 C -1,1 C 94 % 1037,2 hPa 0,0 l/m 3,2 km/h (1 Bft) NO 45 0 min 0,0 UV-I 0 W/m -3,8 C -3,0 C 3,2 km/h (1 Bft)
25.01.2023 04:40 -3,0 C -1,1 C 94 % 1037,2 hPa 0,0 l/m 1,6 km/h (1 Bft) NO 45 0 min 0,0 UV-I 0 W/m -3,8 C -3,0 C 3,2 km/h (1 Bft)
25.01.2023 04:41 -2,9 C -1,1 C 94 % 1037,2 hPa 0,0 l/m 3,2 km/h (1 Bft) NO 45 0 min 0,0 UV-I 0 W/m -3,7 C -2,9 C 8,0 km/h (2 Bft)
25.01.2023 04:42 -2,9 C -1,1 C 94 % 1037,1 hPa 0,0 l/m 4,8 km/h (1 Bft) NO 45 0 min 0,0 UV-I 0 W/m -3,7 C -2,9 C 6,4 km/h (2 Bft)
25.01.2023 04:43 -2,9 C -1,1 C 94 % 1037,2 hPa 0,0 l/m 3,2 km/h (1 Bft) O-NO 67 0 min 0,0 UV-I 0 W/m -3,7 C -2,9 C 6,4 km/h (2 Bft)
25.01.2023 04:44 -3,0 C -1,1 C 94 % 1037,1 hPa 0,0 l/m 3,2 km/h (1 Bft) O-NO 67 0 min 0,0 UV-I 0 W/m -3,8 C -3,0 C 6,4 km/h (2 Bft)
25.01.2023 04:45 -2,9 C -1,1 C 94 % 1037,1 hPa 0,0 l/m 4,8 km/h (1 Bft) NO 45 0 min 0,0 UV-I 0 W/m -3,7 C -2,9 C 6,4 km/h (2 Bft)
25.01.2023 04:46 -2,9 C -1,1 C 94 % 1037,1 hPa 0,0 l/m 4,8 km/h (1 Bft) NO 45 0 min 0,0 UV-I 0 W/m -3,7 C -2,9 C 6,4 km/h (2 Bft)
25.01.2023 04:47 -2,9 C -1,1 C 94 % 1037,1 hPa 0,0 l/m 3,2 km/h (1 Bft) NO 45 0 min 0,0 UV-I 0 W/m -3,7 C -2,9 C 4,8 km/h (1 Bft)
25.01.2023 04:48 -2,9 C -1,1 C 94 % 1037,1 hPa 0,0 l/m 3,2 km/h (1 Bft) NO 45 0 min 0,0 UV-I 0 W/m -3,7 C -2,9 C 4,8 km/h (1 Bft)
25.01.2023 04:49 -2,9 C -1,1 C 94 % 1037,1 hPa 0,0 l/m 4,8 km/h (1 Bft) NO 45 0 min 0,0 UV-I 0 W/m -3,7 C -2,9 C 6,4 km/h (2 Bft)
25.01.2023 04:50 -2,9 C -1,1 C 94 % 1037,0 hPa 0,0 l/m 4,8 km/h (1 Bft) NO 45 0 min 0,0 UV-I 0 W/m -3,7 C -2,9 C 8,0 km/h (2 Bft)
25.01.2023 04:51 -2,9 C -1,1 C 94 % 1037,1 hPa 0,0 l/m 4,8 km/h (1 Bft) NO 45 0 min 0,0 UV-I 0 W/m -3,7 C -2,9 C 6,4 km/h (2 Bft)
25.01.2023 04:52 -2,9 C -1,1 C 94 % 1037,1 hPa 0,0 l/m 4,8 km/h (1 Bft) NO 45 0 min 0,0 UV-I 0 W/m -3,7 C -2,9 C 8,0 km/h (2 Bft)
25.01.2023 04:53 -2,9 C -1,1 C 94 % 1037,1 hPa 0,0 l/m 6,4 km/h (2 Bft) N-NO 22 0 min 0,0 UV-I 0 W/m -3,7 C -2,9 C 8,0 km/h (2 Bft)
25.01.2023 04:54 -2,9 C -1,1 C 94 % 1037,1 hPa 0,0 l/m 4,8 km/h (1 Bft) N-NO 22 0 min 0,0 UV-I 0 W/m -3,7 C -2,9 C 6,4 km/h (2 Bft)
25.01.2023 04:55 -2,9 C -1,1 C 94 % 1037,0 hPa 0,0 l/m 4,8 km/h (1 Bft) N-NO 22 0 min 0,0 UV-I 0 W/m -3,7 C -2,9 C 6,4 km/h (2 Bft)
25.01.2023 04:56 -2,9 C -1,1 C 94 % 1037,1 hPa 0,0 l/m 4,8 km/h (1 Bft) N-NO 22 0 min 0,0 UV-I 0 W/m -3,7 C -2,9 C 6,4 km/h (2 Bft)
25.01.2023 04:57 -2,9 C -1,1 C 94 % 1037,1 hPa 0,0 l/m 4,8 km/h (1 Bft) N-NO 22 0 min 0,0 UV-I 0 W/m -3,7 C -2,9 C 4,8 km/h (1 Bft)
25.01.2023 04:58 -2,9 C -1,1 C 94 % 1037,2 hPa 0,0 l/m 3,2 km/h (1 Bft) N-NO 22 0 min 0,0 UV-I 0 W/m -3,7 C -2,9 C 6,4 km/h (2 Bft)
25.01.2023 04:59 -2,9 C -1,1 C 94 % 1037,3 hPa 0,0 l/m 3,2 km/h (1 Bft) N-NO 22 0 min 0,0 UV-I 0 W/m -3,7 C -2,9 C 6,4 km/h (2 Bft)
25.01.2023 05:00 -2,9 C -1,1 C 94 % 1037,2 hPa 0,0 l/m 4,8 km/h (1 Bft) NO 45 0 min 0,0 UV-I 0 W/m -3,7 C -2,9 C 6,4 km/h (2 Bft)
25.01.2023 05:01 -2,9 C -1,1 C 94 % 1037,1 hPa 0,0 l/m 4,8 km/h (1 Bft) NO 45 0 min 0,0 UV-I 0 W/m -3,7 C -2,9 C 6,4 km/h (2 Bft)
25.01.2023 05:02 -2,9 C -1,1 C 94 % 1037,1 hPa 0,0 l/m 4,8 km/h (1 Bft) NO 45 0 min 0,0 UV-I 0 W/m -3,7 C -2,9 C 6,4 km/h (2 Bft)
25.01.2023 05:03 -2,9 C -1,1 C 94 % 1037,1 hPa 0,0 l/m 3,2 km/h (1 Bft) NO 45 0 min 0,0 UV-I 0 W/m -3,7 C -2,9 C 4,8 km/h (1 Bft)
25.01.2023 05:04 -2,9 C -1,1 C 94 % 1037,2 hPa 0,0 l/m 4,8 km/h (1 Bft) NO 45 0 min 0,0 UV-I 0 W/m -3,7 C -2,9 C 6,4 km/h (2 Bft)
25.01.2023 05:05 -2,9 C -1,1 C 94 % 1037,2 hPa 0,0 l/m 4,8 km/h (1 Bft) NO 45 0 min 0,0 UV-I 0 W/m -3,7 C -2,9 C 6,4 km/h (2 Bft)
25.01.2023 05:06 -2,9 C -1,1 C 94 % 1037,2 hPa 0,0 l/m 4,8 km/h (1 Bft) NO 45 0 min 0,0 UV-I 0 W/m -3,7 C -2,9 C 4,8 km/h (1 Bft)
25.01.2023 05:07 -2,9 C -1,1 C 94 % 1037,1 hPa 0,0 l/m 3,2 km/h (1 Bft) NO 45 0 min 0,0 UV-I 0 W/m -3,7 C -2,9 C 4,8 km/h (1 Bft)
25.01.2023 05:08 -2,9 C -1,1 C 93 % 1037,2 hPa 0,0 l/m 3,2 km/h (1 Bft) NO 45 0 min 0,0 UV-I 0 W/m -3,9 C -2,9 C 4,8 km/h (1 Bft)
25.01.2023 05:09 -2,9 C -1,1 C 94 % 1037,2 hPa 0,0 l/m 1,6 km/h (1 Bft) NO 45 0 min 0,0 UV-I 0 W/m -3,7 C -2,9 C 3,2 km/h (1 Bft)
25.01.2023 05:10 -2,9 C -1,1 C 93 % 1037,2 hPa 0,0 l/m 1,6 km/h (1 Bft) NO 45 0 min 0,0 UV-I 0 W/m -3,9 C -2,9 C 4,8 km/h (1 Bft)
25.01.2023 05:11 -2,9 C -1,1 C 94 % 1037,1 hPa 0,0 l/m 1,6 km/h (1 Bft) NO 45 0 min 0,0 UV-I 0 W/m -3,7 C -2,9 C 3,2 km/h (1 Bft)
25.01.2023 05:12 -2,9 C -1,1 C 94 % 1037,1 hPa 0,0 l/m 4,8 km/h (1 Bft) O 90 0 min 0,0 UV-I 0 W/m -3,7 C -2,9 C 9,7 km/h (2 Bft)
25.01.2023 05:13 -2,9 C -1,1 C 94 % 1037,0 hPa 0,0 l/m 3,2 km/h (1 Bft) O 90 0 min 0,0 UV-I 0 W/m -3,7 C -2,9 C 4,8 km/h (1 Bft)
25.01.2023 05:14 -2,9 C -1,7 C 94 % 1037,0 hPa 0,0 l/m 3,2 km/h (1 Bft) O 90 0 min 0,0 UV-I 0 W/m -3,7 C -2,9 C 6,4 km/h (2 Bft)
25.01.2023 05:15 -2,9 C -2,2 C 93 % 1037,0 hPa 0,0 l/m 3,2 km/h (1 Bft) O 90 0 min 0,0 UV-I 0 W/m -3,9 C -2,9 C 4,8 km/h (1 Bft)
25.01.2023 05:16 -2,9 C -2,2 C 94 % 1037,0 hPa 0,0 l/m 4,8 km/h (1 Bft) NO 45 0 min 0,0 UV-I 0 W/m -3,7 C -2,9 C 8,0 km/h (2 Bft)
25.01.2023 05:17 -2,9 C -1,7 C 93 % 1037,0 hPa 0,0 l/m 3,2 km/h (1 Bft) NO 45 0 min 0,0 UV-I 0 W/m -3,9 C -2,9 C 4,8 km/h (1 Bft)
25.01.2023 05:18 -2,9 C -1,7 C 94 % 1037,0 hPa 0,0 l/m 3,2 km/h (1 Bft) NO 45 0 min 0,0 UV-I 0 W/m -3,7 C -2,9 C 4,8 km/h (1 Bft)
25.01.2023 05:19 -3,0 C -1,7 C 93 % 1037,0 hPa 0,0 l/m 1,6 km/h (1 Bft) NO 45 0 min 0,0 UV-I 0 W/m -4,0 C -3,0 C 3,2 km/h (1 Bft)
25.01.2023 05:20 -2,9 C -1,7 C 93 % 1037,0 hPa 0,0 l/m 0,0 km/h (0 Bft) NO 45 0 min 0,0 UV-I 0 W/m -3,9 C -2,9 C 1,6 km/h (1 Bft)
25.01.2023 05:21 -2,9 C -1,7 C 94 % 1036,9 hPa 0,0 l/m 0,0 km/h (0 Bft) NO 45 0 min 0,0 UV-I 0 W/m -3,7 C -2,9 C 1,6 km/h (1 Bft)
25.01.2023 05:22 -3,0 C -1,7 C 94 % 1036,9 hPa 0,0 l/m 1,6 km/h (1 Bft) NO 45 0 min 0,0 UV-I 0 W/m -3,8 C -3,0 C 1,6 km/h (1 Bft)
25.01.2023 05:23 -3,0 C -1,7 C 94 % 1036,9 hPa 0,0 l/m 1,6 km/h (1 Bft) NO 45 0 min 0,0 UV-I 0 W/m -3,8 C -3,0 C 1,6 km/h (1 Bft)
25.01.2023 05:24 -2,9 C -1,1 C 94 % 1036,9 hPa 0,0 l/m 3,2 km/h (1 Bft) NO 45 0 min 0,0 UV-I 0 W/m -3,7 C -2,9 C 4,8 km/h (1 Bft)
25.01.2023 05:25 -3,0 C -1,1 C 94 % 1036,9 hPa 0,0 l/m 3,2 km/h (1 Bft) NO 45 0 min 0,0 UV-I 0 W/m -3,8 C -3,0 C 4,8 km/h (1 Bft)
25.01.2023 05:26 -3,0 C -1,1 C 94 % 1036,9 hPa 0,0 l/m 4,8 km/h (1 Bft) NO 45 0 min 0,0 UV-I 0 W/m -3,8 C -3,0 C 6,4 km/h (2 Bft)
25.01.2023 05:27 -2,9 C -1,1 C 94 % 1037,0 hPa 0,0 l/m 4,8 km/h (1 Bft) NO 45 0 min 0,0 UV-I 0 W/m -3,7 C -2,9 C 6,4 km/h (2 Bft)
25.01.2023 05:28 -2,9 C -1,1 C 94 % 1037,0 hPa 0,0 l/m 3,2 km/h (1 Bft) NO 45 0 min 0,0 UV-I 0 W/m -3,7 C -2,9 C 4,8 km/h (1 Bft)
25.01.2023 05:29 -2,9 C -1,1 C 94 % 1036,9 hPa 0,0 l/m 3,2 km/h (1 Bft) NO 45 0 min 0,0 UV-I 0 W/m -3,7 C -2,9 C 4,8 km/h (1 Bft)
25.01.2023 05:30 -2,9 C -1,1 C 94 % 1036,9 hPa 0,0 l/m 3,2 km/h (1 Bft) NO 45 0 min 0,0 UV-I 0 W/m -3,7 C -2,9 C 4,8 km/h (1 Bft)
25.01.2023 05:31 -3,0 C -1,1 C 94 % 1037,0 hPa 0,0 l/m 3,2 km/h (1 Bft) NO 45 0 min 0,0 UV-I 0 W/m -3,8 C -3,0 C 4,8 km/h (1 Bft)
25.01.2023 05:32 -2,9 C -1,1 C 94 % 1036,9 hPa 0,0 l/m 3,2 km/h (1 Bft) NO 45 0 min 0,0 UV-I 0 W/m -3,7 C -2,9 C 4,8 km/h (1 Bft)
25.01.2023 05:33 -2,9 C -1,1 C 94 % 1036,9 hPa 0,0 l/m 3,2 km/h (1 Bft) NO 45 0 min 0,0 UV-I 0 W/m -3,7 C -2,9 C 6,4 km/h (2 Bft)
25.01.2023 05:34 -3,0 C -1,1 C 94 % 1036,9 hPa 0,0 l/m 3,2 km/h (1 Bft) NO 45 0 min 0,0 UV-I 0 W/m -3,8 C -3,0 C 4,8 km/h (1 Bft)
25.01.2023 05:35 -3,0 C -1,1 C 94 % 1037,0 hPa 0,0 l/m 1,6 km/h (1 Bft) NO 45 0 min 0,0 UV-I 0 W/m -3,8 C -3,0 C 3,2 km/h (1 Bft)
25.01.2023 05:36 -2,9 C -1,1 C 94 % 1037,0 hPa 0,0 l/m 1,6 km/h (1 Bft) NO 45 0 min 0,0 UV-I 0 W/m -3,7 C -2,9 C 1,6 km/h (1 Bft)
25.01.2023 05:37 -2,9 C -1,1 C 94 % 1036,9 hPa 0,0 l/m 1,6 km/h (1 Bft) NO 45 0 min 0,0 UV-I 0 W/m -3,7 C -2,9 C 1,6 km/h (1 Bft)
25.01.2023 05:38 -3,0 C -1,1 C 94 % 1037,0 hPa 0,0 l/m 0,0 km/h (0 Bft) NO 45 0 min 0,0 UV-I 0 W/m -3,8 C -3,0 C 1,6 km/h (1 Bft)
25.01.2023 05:39 -2,9 C -1,1 C 94 % 1037,0 hPa 0,0 l/m 3,2 km/h (1 Bft) NO 45 0 min 0,0 UV-I 0 W/m -3,7 C -2,9 C 4,8 km/h (1 Bft)
25.01.2023 05:40 -2,9 C -1,7 C 93 % 1036,9 hPa 0,0 l/m 3,2 km/h (1 Bft) NO 45 0 min 0,0 UV-I 0 W/m -3,9 C -2,9 C 4,8 km/h (1 Bft)
25.01.2023 05:41 -3,0 C -1,7 C 94 % 1036,9 hPa 0,0 l/m 3,2 km/h (1 Bft) NO 45 0 min 0,0 UV-I 0 W/m -3,8 C -3,0 C 4,8 km/h (1 Bft)
25.01.2023 05:42 -2,9 C -1,7 C 94 % 1036,8 hPa 0,0 l/m 1,6 km/h (1 Bft) NO 45 0 min 0,0 UV-I 0 W/m -3,7 C -2,9 C 3,2 km/h (1 Bft)
25.01.2023 05:43 -3,0 C -1,7 C 94 % 1036,8 hPa 0,0 l/m 3,2 km/h (1 Bft) NO 45 0 min 0,0 UV-I 0 W/m -3,8 C -3,0 C 4,8 km/h (1 Bft)
25.01.2023 05:44 -3,0 C -1,7 C 94 % 1036,8 hPa 0,0 l/m 4,8 km/h (1 Bft) NO 45 0 min 0,0 UV-I 0 W/m -3,8 C -3,0 C 6,4 km/h (2 Bft)
25.01.2023 05:45 -2,9 C -1,7 C 94 % 1036,8 hPa 0,0 l/m 4,8 km/h (1 Bft) NO 45 0 min 0,0 UV-I 0 W/m -3,7 C -2,9 C 6,4 km/h (2 Bft)
25.01.2023 05:46 -2,9 C -1,7 C 94 % 1036,7 hPa 0,0 l/m 4,8 km/h (1 Bft) O-NO 67 0 min 0,0 UV-I 0 W/m -3,7 C -2,9 C 6,4 km/h (2 Bft)
25.01.2023 05:47 -2,9 C -1,1 C 94 % 1036,8 hPa 0,0 l/m 4,8 km/h (1 Bft) O-NO 67 0 min 0,0 UV-I 0 W/m -3,7 C -2,9 C 6,4 km/h (2 Bft)
25.01.2023 05:48 -3,0 C -1,1 C 94 % 1036,7 hPa 0,0 l/m 3,2 km/h (1 Bft) O-NO 67 0 min 0,0 UV-I 0 W/m -3,8 C -3,0 C 4,8 km/h (1 Bft)
25.01.2023 05:49 -3,0 C -1,1 C 94 % 1036,7 hPa 0,0 l/m 4,8 km/h (1 Bft) NO 45 0 min 0,0 UV-I 0 W/m -3,8 C -3,0 C 8,0 km/h (2 Bft)
25.01.2023 05:50 -3,0 C -1,1 C 94 % 1036,8 hPa 0,0 l/m 4,8 km/h (1 Bft) NO 45 0 min 0,0 UV-I 0 W/m -3,8 C -3,0 C 6,4 km/h (2 Bft)
25.01.2023 05:51 -3,0 C -1,7 C 93 % 1036,7 hPa 0,0 l/m 4,8 km/h (1 Bft) N-NO 22 0 min 0,0 UV-I 0 W/m -4,0 C -3,0 C 6,4 km/h (2 Bft)
25.01.2023 05:52 -3,0 C -1,1 C 94 % 1036,7 hPa 0,0 l/m 3,2 km/h (1 Bft) N-NO 22 0 min 0,0 UV-I 0 W/m -3,8 C -3,0 C 3,2 km/h (1 Bft)
25.01.2023 05:53 -3,0 C -1,1 C 94 % 1036,6 hPa 0,0 l/m 3,2 km/h (1 Bft) N-NO 22 0 min 0,0 UV-I 0 W/m -3,8 C -3,0 C 6,4 km/h (2 Bft)
25.01.2023 05:54 -3,1 C -1,1 C 93 % 1036,7 hPa 0,0 l/m 3,2 km/h (1 Bft) N-NO 22 0 min 0,0 UV-I 0 W/m -4,1 C -3,1 C 4,8 km/h (1 Bft)
25.01.2023 05:55 -3,0 C -1,1 C 94 % 1036,6 hPa 0,0 l/m 4,8 km/h (1 Bft) N-NO 22 0 min 0,0 UV-I 0 W/m -3,8 C -3,0 C 6,4 km/h (2 Bft)
25.01.2023 05:56 -3,1 C -1,1 C 93 % 1036,6 hPa 0,0 l/m 1,6 km/h (1 Bft) N-NO 22 0 min 0,0 UV-I 0 W/m -4,1 C -3,1 C 3,2 km/h (1 Bft)
25.01.2023 05:57 -3,1 C -1,1 C 93 % 1036,6 hPa 0,0 l/m 0,0 km/h (0 Bft) N-NO 22 0 min 0,0 UV-I 0 W/m -4,1 C -3,1 C 1,6 km/h (1 Bft)
25.01.2023 05:58 -3,1 C -1,1 C 94 % 1036,5 hPa 0,0 l/m 0,0 km/h (0 Bft) N-NO 22 0 min 0,0 UV-I 0 W/m -3,9 C -3,1 C 3,2 km/h (1 Bft)
25.01.2023 05:59 -3,1 C -1,7 C 93 % 1036,6 hPa 0,0 l/m 3,2 km/h (1 Bft) N-NO 22 0 min 0,0 UV-I 0 W/m -4,1 C -3,1 C 6,4 km/h (2 Bft)
25.01.2023 06:00 -3,1 C -1,1 C 93 % 1036,6 hPa 0,0 l/m 3,2 km/h (1 Bft) N-NO 22 0 min 0,0 UV-I 0 W/m -4,1 C -3,1 C 4,8 km/h (1 Bft)
25.01.2023 06:01 -3,1 C -1,1 C 94 % 1036,6 hPa 0,0 l/m 4,8 km/h (1 Bft) N-NO 22 0 min 0,0 UV-I 0 W/m -3,9 C -3,1 C 6,4 km/h (2 Bft)
25.01.2023 06:02 -3,1 C -1,1 C 94 % 1036,6 hPa 0,0 l/m 3,2 km/h (1 Bft) N-NO 22 0 min 0,0 UV-I 0 W/m -3,9 C -3,1 C 4,8 km/h (1 Bft)
25.01.2023 06:03 -3,1 C -1,1 C 94 % 1036,6 hPa 0,0 l/m 3,2 km/h (1 Bft) N-NO 22 0 min 0,0 UV-I 0 W/m -3,9 C -3,1 C 4,8 km/h (1 Bft)
25.01.2023 06:04 -3,1 C -1,1 C 94 % 1036,5 hPa 0,0 l/m 3,2 km/h (1 Bft) N-NO 22 0 min 0,0 UV-I 0 W/m -3,9 C -3,1 C 3,2 km/h (1 Bft)
25.01.2023 06:05 -3,1 C -1,1 C 93 % 1036,4 hPa 0,0 l/m 1,6 km/h (1 Bft) N-NO 22 0 min 0,0 UV-I 0 W/m -4,1 C -3,1 C 3,2 km/h (1 Bft)
25.01.2023 06:06 -3,1 C -1,7 C 94 % 1036,5 hPa 0,0 l/m 1,6 km/h (1 Bft) N-NO 22 0 min 0,0 UV-I 0 W/m -3,9 C -3,1 C 3,2 km/h (1 Bft)
25.01.2023 06:07 -3,1 C -1,7 C 93 % 1036,5 hPa 0,0 l/m 3,2 km/h (1 Bft) N-NO 22 0 min 0,0 UV-I 0 W/m -4,1 C -3,1 C 4,8 km/h (1 Bft)
25.01.2023 06:08 -3,1 C -1,1 C 94 % 1036,5 hPa 0,0 l/m 4,8 km/h (1 Bft) N-NO 22 0 min 0,0 UV-I 0 W/m -3,9 C -3,1 C 6,4 km/h (2 Bft)
25.01.2023 06:09 -3,1 C -1,1 C 93 % 1036,5 hPa 0,0 l/m 4,8 km/h (1 Bft) N-NO 22 0 min 0,0 UV-I 0 W/m -4,1 C -3,1 C 4,8 km/h (1 Bft)
25.01.2023 06:10 -3,1 C -1,1 C 93 % 1036,4 hPa 0,0 l/m 3,2 km/h (1 Bft) N-NO 22 0 min 0,0 UV-I 0 W/m -4,1 C -3,1 C 4,8 km/h (1 Bft)
25.01.2023 06:11 -3,1 C -1,1 C 93 % 1036,4 hPa 0,0 l/m 1,6 km/h (1 Bft) N-NO 22 0 min 0,0 UV-I 0 W/m -4,1 C -3,1 C 3,2 km/h (1 Bft)
25.01.2023 06:12 -3,1 C -1,1 C 93 % 1036,4 hPa 0,0 l/m 1,6 km/h (1 Bft) N-NO 22 0 min 0,0 UV-I 0 W/m -4,1 C -3,1 C 3,2 km/h (1 Bft)
25.01.2023 06:13 -3,1 C -1,1 C 93 % 1036,5 hPa 0,0 l/m 3,2 km/h (1 Bft) N-NO 22 0 min 0,0 UV-I 0 W/m -4,1 C -3,1 C 3,2 km/h (1 Bft)
25.01.2023 06:14 -3,1 C -1,1 C 93 % 1036,4 hPa 0,0 l/m 1,6 km/h (1 Bft) N-NO 22 0 min 0,0 UV-I 0 W/m -4,1 C -3,1 C 3,2 km/h (1 Bft)
25.01.2023 06:15 -3,1 C -1,1 C 93 % 1036,4 hPa 0,0 l/m 3,2 km/h (1 Bft) N-NO 22 0 min 0,0 UV-I 0 W/m -4,1 C -3,1 C 4,8 km/h (1 Bft)
25.01.2023 06:16 -3,1 C -1,1 C 93 % 1036,4 hPa 0,0 l/m 3,2 km/h (1 Bft) N-NO 22 0 min 0,0 UV-I 0 W/m -4,1 C -3,1 C 4,8 km/h (1 Bft)
25.01.2023 06:17 -3,1 C -1,1 C 93 % 1036,3 hPa 0,0 l/m 3,2 km/h (1 Bft) N-NO 22 0 min 0,0 UV-I 0 W/m -4,1 C -3,1 C 4,8 km/h (1 Bft)
25.01.2023 06:18 -3,1 C -1,1 C 93 % 1036,4 hPa 0,0 l/m 3,2 km/h (1 Bft) N-NO 22 0 min 0,0 UV-I 0 W/m -4,1 C -3,1 C 4,8 km/h (1 Bft)
25.01.2023 06:19 -3,2 C -1,1 C 93 % 1036,4 hPa 0,0 l/m 3,2 km/h (1 Bft) N-NO 22 0 min 0,0 UV-I 0 W/m -4,2 C -3,2 C 4,8 km/h (1 Bft)
25.01.2023 06:20 -3,1 C -1,1 C 93 % 1036,4 hPa 0,0 l/m 1,6 km/h (1 Bft) N-NO 22 0 min 0,0 UV-I 0 W/m -4,1 C -3,1 C 3,2 km/h (1 Bft)
25.01.2023 06:21 -3,1 C -1,1 C 93 % 1036,4 hPa 0,0 l/m 3,2 km/h (1 Bft) N-NO 22 0 min 0,0 UV-I 0 W/m -4,1 C -3,1 C 4,8 km/h (1 Bft)
25.01.2023 06:22 -3,1 C -1,1 C 93 % 1036,3 hPa 0,0 l/m 6,4 km/h (2 Bft) N-NO 22 0 min 0,0 UV-I 0 W/m -4,1 C -3,1 C 8,0 km/h (2 Bft)
25.01.2023 06:23 -3,2 C -1,1 C 93 % 1036,4 hPa 0,0 l/m 4,8 km/h (1 Bft) N-NO 22 0 min 0,0 UV-I 0 W/m -4,2 C -3,2 C 6,4 km/h (2 Bft)
25.01.2023 06:24 -3,1 C -1,1 C 93 % 1036,5 hPa 0,0 l/m 3,2 km/h (1 Bft) N-NO 22 0 min 0,0 UV-I 0 W/m -4,1 C -3,1 C 4,8 km/h (1 Bft)
25.01.2023 06:25 -3,1 C -1,1 C 93 % 1036,4 hPa 0,0 l/m 3,2 km/h (1 Bft) N-NO 22 0 min 0,0 UV-I 0 W/m -4,1 C -3,1 C 4,8 km/h (1 Bft)
25.01.2023 06:26 -3,2 C -1,1 C 93 % 1036,5 hPa 0,0 l/m 3,2 km/h (1 Bft) N-NO 22 0 min 0,0 UV-I 0 W/m -4,2 C -3,2 C 4,8 km/h (1 Bft)
25.01.2023 06:27 -3,2 C -1,1 C 93 % 1036,4 hPa 0,0 l/m 3,2 km/h (1 Bft) N-NO 22 0 min 0,0 UV-I 0 W/m -4,2 C -3,2 C 4,8 km/h (1 Bft)
25.01.2023 06:28 -3,2 C -1,1 C 93 % 1036,5 hPa 0,0 l/m 3,2 km/h (1 Bft) N-NO 22 0 min 0,0 UV-I 0 W/m -4,2 C -3,2 C 3,2 km/h (1 Bft)
25.01.2023 06:29 -3,2 C -1,1 C 93 % 1036,5 hPa 0,0 l/m 3,2 km/h (1 Bft) N-NO 22 0 min 0,0 UV-I 0 W/m -4,2 C -3,2 C 3,2 km/h (1 Bft)
25.01.2023 06:30 -3,2 C -1,1 C 93 % 1036,4 hPa 0,0 l/m 1,6 km/h (1 Bft) N-NO 22 0 min 0,0 UV-I 0 W/m -4,2 C -3,2 C 3,2 km/h (1 Bft)
25.01.2023 06:31 -3,2 C -1,1 C 93 % 1036,5 hPa 0,0 l/m 1,6 km/h (1 Bft) N-NO 22 0 min 0,0 UV-I 0 W/m -4,2 C -3,2 C 1,6 km/h (1 Bft)
25.01.2023 06:32 -3,2 C -1,1 C 93 % 1036,5 hPa 0,0 l/m 0,0 km/h (0 Bft) N-NO 22 0 min 0,0 UV-I 0 W/m -4,2 C -3,2 C 1,6 km/h (1 Bft)
25.01.2023 06:33 -3,2 C -1,1 C 93 % 1036,4 hPa 0,0 l/m 0,0 km/h (0 Bft) N-NO 22 0 min 0,0 UV-I 0 W/m -4,2 C -3,2 C 1,6 km/h (1 Bft)
25.01.2023 06:34 -3,2 C -1,1 C 93 % 1036,4 hPa 0,0 l/m 1,6 km/h (1 Bft) N-NO 22 0 min 0,0 UV-I 0 W/m -4,2 C -3,2 C 1,6 km/h (1 Bft)
25.01.2023 06:35 -3,2 C -1,1 C 93 % 1036,5 hPa 0,0 l/m 3,2 km/h (1 Bft) N-NO 22 0 min 0,0 UV-I 0 W/m -4,2 C -3,2 C 4,8 km/h (1 Bft)
25.01.2023 06:36 -3,2 C -1,1 C 93 % 1036,4 hPa 0,0 l/m 3,2 km/h (1 Bft) N-NO 22 0 min 0,0 UV-I 0 W/m -4,2 C -3,2 C 4,8 km/h (1 Bft)
25.01.2023 06:37 -3,2 C -1,1 C 93 % 1036,4 hPa 0,0 l/m 3,2 km/h (1 Bft) N-NO 22 0 min 0,0 UV-I 0 W/m -4,2 C -3,2 C 4,8 km/h (1 Bft)
25.01.2023 06:38 -3,2 C -1,1 C 93 % 1036,5 hPa 0,0 l/m 3,2 km/h (1 Bft) N-NO 22 0 min 0,0 UV-I 0 W/m -4,2 C -3,2 C 4,8 km/h (1 Bft)
25.01.2023 06:39 -3,2 C -1,1 C 93 % 1036,4 hPa 0,0 l/m 1,6 km/h (1 Bft) N-NO 22 0 min 0,0 UV-I 0 W/m -4,2 C -3,2 C 4,8 km/h (1 Bft)
25.01.2023 06:40 -3,2 C -1,1 C 93 % 1036,5 hPa 0,0 l/m 1,6 km/h (1 Bft) N-NO 22 0 min 0,0 UV-I 0 W/m -4,2 C -3,2 C 3,2 km/h (1 Bft)
25.01.2023 06:41 -3,2 C -1,1 C 93 % 1036,5 hPa 0,0 l/m 1,6 km/h (1 Bft) N-NO 22 0 min 0,0 UV-I 0 W/m -4,2 C -3,2 C 4,8 km/h (1 Bft)
25.01.2023 06:42 -3,2 C -1,1 C 93 % 1036,4 hPa 0,0 l/m 3,2 km/h (1 Bft) N-NO 22 0 min 0,0 UV-I 0 W/m -4,2 C -3,2 C 6,4 km/h (2 Bft)
25.01.2023 06:43 -3,2 C -1,1 C 93 % 1036,5 hPa 0,0 l/m 3,2 km/h (1 Bft) N-NO 22 0 min 0,0 UV-I 0 W/m -4,2 C -3,2 C 6,4 km/h (2 Bft)
25.01.2023 06:44 -3,2 C -1,1 C 93 % 1036,5 hPa 0,0 l/m 3,2 km/h (1 Bft) N-NO 22 0 min 0,0 UV-I 0 W/m -4,2 C -3,2 C 4,8 km/h (1 Bft)
25.01.2023 06:45 -3,2 C -1,1 C 93 % 1036,5 hPa 0,0 l/m 1,6 km/h (1 Bft) N-NO 22 0 min 0,0 UV-I 0 W/m -4,2 C -3,2 C 3,2 km/h (1 Bft)
25.01.2023 06:46 -3,2 C -1,1 C 93 % 1036,4 hPa 0,0 l/m 3,2 km/h (1 Bft) N-NO 22 0 min 0,0 UV-I 0 W/m -4,2 C -3,2 C 4,8 km/h (1 Bft)
25.01.2023 06:47 -3,2 C -1,1 C 93 % 1036,5 hPa 0,0 l/m 0,0 km/h (0 Bft) N-NO 22 0 min 0,0 UV-I 0 W/m -4,2 C -3,2 C 1,6 km/h (1 Bft)
25.01.2023 06:48 -3,2 C -1,1 C 93 % 1036,4 hPa 0,0 l/m 1,6 km/h (1 Bft) N-NO 22 0 min 0,0 UV-I 0 W/m -4,2 C -3,2 C 3,2 km/h (1 Bft)
25.01.2023 06:49 -3,2 C -1,7 C 93 % 1036,4 hPa 0,0 l/m 3,2 km/h (1 Bft) N-NO 22 0 min 0,0 UV-I 0 W/m -4,2 C -3,2 C 6,4 km/h (2 Bft)
25.01.2023 06:50 -3,3 C -1,7 C 93 % 1036,5 hPa 0,0 l/m 3,2 km/h (1 Bft) N-NO 22 0 min 0,0 UV-I 0 W/m -4,3 C -3,3 C 4,8 km/h (1 Bft)
25.01.2023 06:51 -3,3 C -1,7 C 93 % 1036,5 hPa 0,0 l/m 4,8 km/h (1 Bft) N-NO 22 0 min 0,0 UV-I 0 W/m -4,3 C -3,3 C 4,8 km/h (1 Bft)
25.01.2023 06:52 -3,2 C -1,7 C 93 % 1036,5 hPa 0,0 l/m 4,8 km/h (1 Bft) NO 45 0 min 0,0 UV-I 0 W/m -4,2 C -3,2 C 6,4 km/h (2 Bft)
25.01.2023 06:53 -3,3 C -1,7 C 93 % 1036,4 hPa 0,0 l/m 3,2 km/h (1 Bft) NO 45 0 min 0,0 UV-I 0 W/m -4,3 C -3,3 C 4,8 km/h (1 Bft)
25.01.2023 06:54 -3,3 C -1,7 C 93 % 1036,5 hPa 0,0 l/m 1,6 km/h (1 Bft) NO 45 0 min 0,0 UV-I 0 W/m -4,3 C -3,3 C 1,6 km/h (1 Bft)
25.01.2023 06:55 -3,3 C -1,1 C 93 % 1036,4 hPa 0,0 l/m 3,2 km/h (1 Bft) NO 45 0 min 0,0 UV-I 0 W/m -4,3 C -3,3 C 6,4 km/h (2 Bft)
25.01.2023 06:56 -3,3 C -1,1 C 93 % 1036,4 hPa 0,0 l/m 3,2 km/h (1 Bft) NO 45 0 min 0,0 UV-I 0 W/m -4,3 C -3,3 C 6,4 km/h (2 Bft)
25.01.2023 06:57 -3,3 C -1,1 C 93 % 1036,4 hPa 0,0 l/m 1,6 km/h (1 Bft) NO 45 0 min 0,0 UV-I 0 W/m -4,3 C -3,3 C 3,2 km/h (1 Bft)
25.01.2023 06:58 -3,3 C -1,1 C 93 % 1036,5 hPa 0,0 l/m 0,0 km/h (0 Bft) NO 45 0 min 0,0 UV-I 0 W/m -4,3 C -3,3 C 1,6 km/h (1 Bft)
25.01.2023 06:59 -3,3 C -1,1 C 93 % 1036,4 hPa 0,0 l/m 1,6 km/h (1 Bft) NO 45 0 min 0,0 UV-I 0 W/m -4,3 C -3,3 C 4,8 km/h (1 Bft)
25.01.2023 07:00 -3,3 C -1,7 C 93 % 1036,4 hPa 0,0 l/m 3,2 km/h (1 Bft) NO 45 0 min 0,0 UV-I 0 W/m -4,3 C -3,3 C 4,8 km/h (1 Bft)
25.01.2023 07:01 -3,3 C -1,1 C 93 % 1036,4 hPa 0,0 l/m 1,6 km/h (1 Bft) NO 45 0 min 0,0 UV-I 0 W/m -4,3 C -3,3 C 3,2 km/h (1 Bft)
25.01.2023 07:02 -3,3 C -1,1 C 93 % 1036,4 hPa 0,0 l/m 3,2 km/h (1 Bft) NO 45 0 min 0,0 UV-I 0 W/m -4,3 C -3,3 C 4,8 km/h (1 Bft)
25.01.2023 07:03 -3,3 C -1,7 C 93 % 1036,4 hPa 0,0 l/m 1,6 km/h (1 Bft) NO 45 0 min 0,0 UV-I 0 W/m -4,3 C -3,3 C 1,6 km/h (1 Bft)
25.01.2023 07:04 -3,3 C -1,7 C 93 % 1036,4 hPa 0,0 l/m 0,0 km/h (0 Bft) N 0 0 min 0,0 UV-I 0 W/m -4,3 C -3,3 C 0,0 km/h (0 Bft)
25.01.2023 07:05 -3,3 C -1,7 C 93 % 1036,4 hPa 0,0 l/m 0,0 km/h (0 Bft) N 0 0 min 0,0 UV-I 0 W/m -4,3 C -3,3 C 0,0 km/h (0 Bft)
25.01.2023 07:06 -3,3 C -1,7 C 93 % 1036,4 hPa 0,0 l/m 1,6 km/h (1 Bft) NO 45 0 min 0,0 UV-I 0 W/m -4,3 C -3,3 C 3,2 km/h (1 Bft)
25.01.2023 07:07 -3,3 C -1,7 C 93 % 1036,4 hPa 0,0 l/m 1,6 km/h (1 Bft) NO 45 0 min 0,0 UV-I 0 W/m -4,3 C -3,3 C 3,2 km/h (1 Bft)
25.01.2023 07:08 -3,3 C -1,7 C 93 % 1036,4 hPa 0,0 l/m 1,6 km/h (1 Bft) NO 45 0 min 0,0 UV-I 0 W/m -4,3 C -3,3 C 3,2 km/h (1 Bft)
25.01.2023 07:09 -3,3 C -1,7 C 93 % 1036,3 hPa 0,0 l/m 0,0 km/h (0 Bft) NO 45 0 min 0,0 UV-I 0 W/m -4,3 C -3,3 C 1,6 km/h (1 Bft)
25.01.2023 07:10 -3,3 C -1,7 C 93 % 1036,3 hPa 0,0 l/m 0,0 km/h (0 Bft) N 0 0 min 0,0 UV-I 0 W/m -4,3 C -3,3 C 0,0 km/h (0 Bft)
25.01.2023 07:11 -3,3 C -2,2 C 93 % 1036,2 hPa 0,0 l/m 0,0 km/h (0 Bft) N 0 0 min 0,0 UV-I 0 W/m -4,3 C -3,3 C 0,0 km/h (0 Bft)
25.01.2023 07:12 -3,3 C -2,2 C 93 % 1036,3 hPa 0,0 l/m 0,0 km/h (0 Bft) N 0 0 min 0,0 UV-I 0 W/m -4,3 C -3,3 C 0,0 km/h (0 Bft)
25.01.2023 07:13 -3,3 C -2,2 C 93 % 1036,2 hPa 0,0 l/m 0,0 km/h (0 Bft) N 0 0 min 0,0 UV-I 0 W/m -4,3 C -3,3 C 0,0 km/h (0 Bft)
25.01.2023 07:14 -3,3 C -2,2 C 93 % 1036,3 hPa 0,0 l/m 0,0 km/h (0 Bft) N 0 0 min 0,0 UV-I 0 W/m -4,3 C -3,3 C 0,0 km/h (0 Bft)
25.01.2023 07:15 -3,3 C -2,8 C 93 % 1036,3 hPa 0,0 l/m 0,0 km/h (0 Bft) N 0 0 min 0,0 UV-I 0 W/m -4,3 C -3,3 C 0,0 km/h (0 Bft)
25.01.2023 07:16 -3,3 C -2,8 C 93 % 1036,3 hPa 0,0 l/m 0,0 km/h (0 Bft) N 0 0 min 0,0 UV-I 0 W/m -4,3 C -3,3 C 0,0 km/h (0 Bft)
25.01.2023 07:17 -3,3 C -2,8 C 93 % 1036,2 hPa 0,0 l/m 0,0 km/h (0 Bft) N 0 0 min 0,0 UV-I 0 W/m -4,3 C -3,3 C 0,0 km/h (0 Bft)
25.01.2023 07:18 -3,3 C -2,8 C 93 % 1036,2 hPa 0,0 l/m 0,0 km/h (0 Bft) N 0 0 min 0,0 UV-I 0 W/m -4,3 C -3,3 C 0,0 km/h (0 Bft)
25.01.2023 07:19 -3,3 C -2,8 C 93 % 1036,2 hPa 0,0 l/m 0,0 km/h (0 Bft) N 0 0 min 0,0 UV-I 0 W/m -4,3 C -3,3 C 0,0 km/h (0 Bft)
25.01.2023 07:20 -3,3 C -2,2 C 93 % 1036,1 hPa 0,0 l/m 0,0 km/h (0 Bft) N 0 0 min 0,0 UV-I 0 W/m -4,3 C -3,3 C 0,0 km/h (0 Bft)
25.01.2023 07:21 -3,3 C -2,2 C 93 % 1036,2 hPa 0,0 l/m 0,0 km/h (0 Bft) N 0 0 min 0,0 UV-I 0 W/m -4,3 C -3,3 C 0,0 km/h (0 Bft)
25.01.2023 07:22 -3,3 C -2,2 C 93 % 1036,2 hPa 0,0 l/m 0,0 km/h (0 Bft) N 0 0 min 0,0 UV-I 0 W/m -4,3 C -3,3 C 0,0 km/h (0 Bft)
25.01.2023 07:23 -3,3 C -2,2 C 93 % 1036,1 hPa 0,0 l/m 0,0 km/h (0 Bft) N 0 0 min 0,0 UV-I 0 W/m -4,3 C -3,3 C 0,0 km/h (0 Bft)
25.01.2023 07:24 -3,3 C -2,8 C 93 % 1036,1 hPa 0,0 l/m 0,0 km/h (0 Bft) N 0 0 min 0,0 UV-I 0 W/m -4,3 C -3,3 C 0,0 km/h (0 Bft)
25.01.2023 07:25 -3,3 C -2,2 C 93 % 1036,1 hPa 0,0 l/m 0,0 km/h (0 Bft) N 0 0 min 0,0 UV-I 0 W/m -4,3 C -3,3 C 0,0 km/h (0 Bft)
25.01.2023 07:26 -3,3 C -2,2 C 93 % 1036,1 hPa 0,0 l/m 0,0 km/h (0 Bft) N 0 0 min 0,0 UV-I 0 W/m -4,3 C -3,3 C 0,0 km/h (0 Bft)
25.01.2023 07:27 -3,3 C -2,2 C 93 % 1036,0 hPa 0,0 l/m 0,0 km/h (0 Bft) N 0 0 min 0,0 UV-I 0 W/m -4,3 C -3,3 C 0,0 km/h (0 Bft)
25.01.2023 07:28 -3,3 C -2,2 C 93 % 1036,0 hPa 0,0 l/m 0,0 km/h (0 Bft) N 0 0 min 0,0 UV-I 0 W/m -4,3 C -3,3 C 0,0 km/h (0 Bft)
25.01.2023 07:29 -3,3 C -2,2 C 93 % 1036,0 hPa 0,0 l/m 0,0 km/h (0 Bft) N 0 0 min 0,0 UV-I 0 W/m -4,3 C -3,3 C 0,0 km/h (0 Bft)
25.01.2023 07:30 -3,3 C -2,2 C 93 % 1036,1 hPa 0,0 l/m 0,0 km/h (0 Bft) N 0 0 min 0,0 UV-I 0 W/m -4,3 C -3,3 C 0,0 km/h (0 Bft)
25.01.2023 07:31 -3,3 C -2,8 C 93 % 1036,2 hPa 0,0 l/m 0,0 km/h (0 Bft) N 0 0 min 0,0 UV-I 0 W/m -4,3 C -3,3 C 0,0 km/h (0 Bft)
25.01.2023 07:32 -3,3 C -2,8 C 93 % 1036,1 hPa 0,0 l/m 0,0 km/h (0 Bft) N 0 0 min 0,0 UV-I 0 W/m -4,3 C -3,3 C 0,0 km/h (0 Bft)
25.01.2023 07:33 -3,3 C -2,8 C 93 % 1036,1 hPa 0,0 l/m 0,0 km/h (0 Bft) N 0 0 min 0,0 UV-I 0 W/m -4,3 C -3,3 C 0,0 km/h (0 Bft)
25.01.2023 07:34 -3,3 C -2,8 C 93 % 1036,0 hPa 0,0 l/m 0,0 km/h (0 Bft) N 0 0 min 0,0 UV-I 0 W/m -4,3 C -3,3 C 0,0 km/h (0 Bft)
25.01.2023 07:35 -3,3 C -2,8 C 93 % 1036,1 hPa 0,0 l/m 0,0 km/h (0 Bft) N 0 0 min 0,0 UV-I 0 W/m -4,3 C -3,3 C 0,0 km/h (0 Bft)
25.01.2023 07:36 -3,3 C -2,8 C 93 % 1036,1 hPa 0,0 l/m 0,0 km/h (0 Bft) N 0 0 min 0,0 UV-I 0 W/m -4,3 C -3,3 C 0,0 km/h (0 Bft)
25.01.2023 07:37 -3,3 C -2,8 C 93 % 1036,1 hPa 0,0 l/m 0,0 km/h (0 Bft) N 0 0 min 0,0 UV-I 0 W/m -4,3 C -3,3 C 0,0 km/h (0 Bft)
25.01.2023 07:38 -3,3 C -2,8 C 93 % 1036,0 hPa 0,0 l/m 0,0 km/h (0 Bft) N 0 0 min 0,0 UV-I 0 W/m -4,3 C -3,3 C 0,0 km/h (0 Bft)
25.01.2023 07:39 -3,3 C -2,8 C 93 % 1035,9 hPa 0,0 l/m 0,0 km/h (0 Bft) N 0 0 min 0,0 UV-I 0 W/m -4,3 C -3,3 C 0,0 km/h (0 Bft)
25.01.2023 07:42 -3,3 C -3,3 C 93 % 1035,9 hPa 0,0 l/m 0,0 km/h (0 Bft) NO 39 0 min 0,0 UV-I 0 W/m -4,3 C -3,3 C 0,0 km/h (0 Bft)
25.01.2023 07:45 -3,3 C -3,3 C 93 % 1035,9 hPa 0,0 l/m 0,1 km/h (0 Bft) NO 39 0 min 0,0 UV-I 0 W/m -4,3 C -3,3 C 1,6 km/h (1 Bft)
25.01.2023 07:48 -3,3 C -3,3 C 93 % 1035,8 hPa 0,0 l/m 0,0 km/h (0 Bft) NO 39 0 min 0,0 UV-I 0 W/m -4,3 C -3,3 C 0,0 km/h (0 Bft)
25.01.2023 07:51 -3,3 C -3,3 C 93 % 1035,9 hPa 0,0 l/m 0,2 km/h (0 Bft) NO 39 0 min 0,0 UV-I 0 W/m -4,3 C -3,3 C 1,6 km/h (1 Bft)
25.01.2023 07:54 -3,4 C -3,3 C 93 % 1036,0 hPa 0,0 l/m 0,8 km/h (0 Bft) NO 39 0 min 0,0 UV-I 0 W/m -4,4 C -3,4 C 3,2 km/h (1 Bft)
25.01.2023 07:57 -3,4 C -3,3 C 93 % 1036,0 hPa 0,0 l/m 1,5 km/h (1 Bft) NO 44 0 min 0,0 UV-I 0 W/m -4,4 C -3,4 C 4,8 km/h (1 Bft)
25.01.2023 08:00 -3,4 C -3,3 C 93 % 1035,9 hPa 0,0 l/m 1,3 km/h (1 Bft) NO 44 0 min 0,0 UV-I 0 W/m -4,4 C -3,4 C 3,2 km/h (1 Bft)
25.01.2023 08:01 -3,4 C -3,3 C 93 % 1035,9 hPa 0,0 l/m 3,2 km/h (1 Bft) NO 45 0 min 0,0 UV-I 0 W/m -4,4 C -3,4 C 4,8 km/h (1 Bft)
25.01.2023 08:02 -3,4 C -3,3 C 93 % 1036,0 hPa 0,0 l/m 0,0 km/h (0 Bft) NO 45 0 min 0,0 UV-I 0 W/m -4,4 C -3,4 C 1,6 km/h (1 Bft)
25.01.2023 08:03 -3,4 C -3,3 C 93 % 1035,9 hPa 0,0 l/m 0,0 km/h (0 Bft) N 0 0 min 0,0 UV-I 0 W/m -4,4 C -3,4 C 0,0 km/h (0 Bft)
25.01.2023 08:04 -3,4 C -3,3 C 93 % 1036,0 hPa 0,0 l/m 0,0 km/h (0 Bft) N 0 0 min 0,0 UV-I 0 W/m -4,4 C -3,4 C 0,0 km/h (0 Bft)
25.01.2023 08:06 -3,4 C -3,3 C 93 % 1035,9 hPa 0,0 l/m 0,0 km/h (0 Bft) NO 44 0 min 0,0 UV-I 0 W/m -4,4 C -3,4 C 0,0 km/h (0 Bft)
25.01.2023 08:09 -3,4 C -3,3 C 93 % 1036,0 hPa 0,0 l/m 0,3 km/h (0 Bft) NO 44 0 min 0,0 UV-I 0 W/m -4,4 C -3,4 C 1,6 km/h (1 Bft)
25.01.2023 08:12 -3,5 C -3,3 C 93 % 1035,9 hPa 0,0 l/m 0,8 km/h (0 Bft) NO 44 0 min 0,0 UV-I 0 W/m -4,5 C -3,5 C 3,2 km/h (1 Bft)
25.01.2023 08:15 -3,6 C -3,3 C 93 % 1036,0 hPa 0,0 l/m 0,8 km/h (0 Bft) NO 44 0 min 0,0 UV-I 0 W/m -4,6 C -3,6 C 3,2 km/h (1 Bft)
25.01.2023 08:18 -3,6 C -3,3 C 93 % 1036,0 hPa 0,0 l/m 0,1 km/h (0 Bft) NO 44 0 min 0,0 UV-I 0 W/m -4,6 C -3,6 C 1,6 km/h (1 Bft)
25.01.2023 08:21 -3,6 C -3,3 C 93 % 1035,9 hPa 0,0 l/m 1,5 km/h (1 Bft) NO 44 0 min 0,0 UV-I 0 W/m -4,6 C -3,6 C 3,2 km/h (1 Bft)
25.01.2023 08:24 -3,6 C -3,3 C 93 % 1036,0 hPa 0,0 l/m 0,3 km/h (0 Bft) NO 44 0 min 0,0 UV-I 0 W/m -4,6 C -3,6 C 1,6 km/h (1 Bft)
25.01.2023 08:27 -3,6 C -3,3 C 93 % 1036,0 hPa 0,0 l/m 0,0 km/h (0 Bft) NO 44 0 min 0,0 UV-I 5 W/m -4,6 C -3,6 C 0,0 km/h (0 Bft)
25.01.2023 08:30 -3,6 C -3,3 C 93 % 1035,9 hPa 0,0 l/m 0,0 km/h (0 Bft) NO 44 0 min 0,0 UV-I 5 W/m -4,6 C -3,6 C 0,0 km/h (0 Bft)
25.01.2023 08:33 -3,7 C -3,3 C 93 % 1035,8 hPa 0,0 l/m 0,0 km/h (0 Bft) NO 44 0 min 0,0 UV-I 7 W/m -4,7 C -3,7 C 0,0 km/h (0 Bft)
25.01.2023 08:36 -3,7 C -3,3 C 93 % 1035,8 hPa 0,0 l/m 0,0 km/h (0 Bft) NO 42 0 min 0,0 UV-I 9 W/m -4,7 C -3,7 C 0,0 km/h (0 Bft)
25.01.2023 08:39 -3,7 C -3,3 C 93 % 1035,8 hPa 0,0 l/m 0,0 km/h (0 Bft) NO 42 0 min 0,0 UV-I 10 W/m -4,7 C -3,7 C 0,0 km/h (0 Bft)
25.01.2023 08:42 -3,7 C -3,3 C 93 % 1035,8 hPa 0,0 l/m 0,0 km/h (0 Bft) NO 42 0 min 0,0 UV-I 11 W/m -4,7 C -3,7 C 0,0 km/h (0 Bft)
25.01.2023 08:45 -3,7 C -3,3 C 93 % 1035,9 hPa 0,0 l/m 0,0 km/h (0 Bft) NO 42 0 min 0,0 UV-I 12 W/m -4,7 C -3,7 C 0,0 km/h (0 Bft)
25.01.2023 08:48 -3,7 C -3,3 C 93 % 1035,8 hPa 0,0 l/m 0,1 km/h (0 Bft) NO 42 0 min 0,0 UV-I 14 W/m -4,7 C -3,7 C 1,6 km/h (1 Bft)
25.01.2023 08:51 -3,7 C -3,3 C 93 % 1035,8 hPa 0,0 l/m 0,0 km/h (0 Bft) NO 42 0 min 0,0 UV-I 16 W/m -4,7 C -3,7 C 0,0 km/h (0 Bft)
25.01.2023 08:54 -3,7 C -3,9 C 93 % 1035,9 hPa 0,0 l/m 0,4 km/h (0 Bft) NO 42 0 min 0,0 UV-I 19 W/m -4,7 C -3,7 C 1,6 km/h (1 Bft)
25.01.2023 08:57 -3,8 C -3,9 C 93 % 1035,9 hPa 0,0 l/m 0,0 km/h (0 Bft) NO 42 0 min 0,0 UV-I 22 W/m -4,8 C -3,8 C 0,0 km/h (0 Bft)
25.01.2023 09:00 -3,7 C -3,3 C 93 % 1035,9 hPa 0,0 l/m 0,0 km/h (0 Bft) NO 42 0 min 0,0 UV-I 24 W/m -4,7 C -3,7 C 0,0 km/h (0 Bft)
25.01.2023 09:03 -3,8 C -3,3 C 93 % 1035,9 hPa 0,0 l/m 0,0 km/h (0 Bft) NO 42 0 min 0,0 UV-I 26 W/m -4,8 C -3,8 C 0,0 km/h (0 Bft)
25.01.2023 09:06 -3,7 C -3,9 C 93 % 1036,0 hPa 0,0 l/m 0,7 km/h (0 Bft) NO 42 0 min 0,0 UV-I 29 W/m -4,7 C -3,7 C 1,6 km/h (1 Bft)
25.01.2023 09:09 -3,8 C -3,9 C 92 % 1036,0 hPa 0,0 l/m 0,1 km/h (0 Bft) NO 42 0 min 0,0 UV-I 30 W/m -4,9 C -3,8 C 1,6 km/h (1 Bft)
25.01.2023 09:12 -3,8 C -3,9 C 92 % 1035,9 hPa 0,0 l/m 0,1 km/h (0 Bft) NO 42 0 min 0,0 UV-I 32 W/m -4,9 C -3,8 C 1,6 km/h (1 Bft)
25.01.2023 09:15 -3,8 C -3,9 C 92 % 1036,0 hPa 0,0 l/m 0,1 km/h (0 Bft) NO 42 0 min 0,0 UV-I 35 W/m -4,9 C -3,8 C 1,6 km/h (1 Bft)
25.01.2023 09:18 -3,8 C -3,9 C 92 % 1036,0 hPa 0,0 l/m 0,2 km/h (0 Bft) NO 42 0 min 0,0 UV-I 36 W/m -4,9 C -3,8 C 1,6 km/h (1 Bft)
25.01.2023 09:21 -3,8 C -3,9 C 93 % 1036,0 hPa 0,0 l/m 0,0 km/h (0 Bft) NO 42 0 min 0,0 UV-I 38 W/m -4,8 C -3,8 C 0,0 km/h (0 Bft)
25.01.2023 09:24 -3,8 C -3,9 C 92 % 1036,0 hPa 0,0 l/m 0,0 km/h (0 Bft) NO 42 0 min 0,0 UV-I 42 W/m -4,9 C -3,8 C 0,0 km/h (0 Bft)
25.01.2023 09:27 -3,8 C -3,9 C 92 % 1036,1 hPa 0,0 l/m 0,0 km/h (0 Bft) NO 42 0 min 0,0 UV-I 43 W/m -4,9 C -3,8 C 0,0 km/h (0 Bft)
25.01.2023 09:30 -3,9 C -3,3 C 93 % 1036,0 hPa 0,0 l/m 0,0 km/h (0 Bft) NO 42 0 min 0,0 UV-I 45 W/m -4,9 C -3,9 C 0,0 km/h (0 Bft)
25.01.2023 09:33 -3,8 C -3,3 C 93 % 1036,1 hPa 0,0 l/m 0,0 km/h (0 Bft) NO 42 0 min 0,0 UV-I 48 W/m -4,8 C -3,8 C 0,0 km/h (0 Bft)
25.01.2023 09:36 -3,8 C -3,3 C 93 % 1036,0 hPa 0,0 l/m 0,0 km/h (0 Bft) NO 42 0 min 0,0 UV-I 52 W/m -4,8 C -3,8 C 0,0 km/h (0 Bft)
25.01.2023 09:39 -3,8 C -3,3 C 93 % 1036,1 hPa 0,0 l/m 0,0 km/h (0 Bft) NO 42 0 min 0,0 UV-I 53 W/m -4,8 C -3,8 C 0,0 km/h (0 Bft)
25.01.2023 09:42 -3,8 C -3,3 C 93 % 1035,9 hPa 0,0 l/m 0,0 km/h (0 Bft) NO 42 0 min 0,0 UV-I 56 W/m -4,8 C -3,8 C 0,0 km/h (0 Bft)
25.01.2023 09:45 -3,8 C -3,3 C 92 % 1036,0 hPa 0,0 l/m 0,0 km/h (0 Bft) NO 42 0 min 0,0 UV-I 59 W/m -4,9 C -3,8 C 0,0 km/h (0 Bft)
25.01.2023 09:48 -3,8 C -3,3 C 93 % 1035,9 hPa 0,0 l/m 0,0 km/h (0 Bft) NO 42 0 min 0,0 UV-I 65 W/m -4,8 C -3,8 C 0,0 km/h (0 Bft)
25.01.2023 09:51 -3,8 C -3,3 C 93 % 1035,8 hPa 0,0 l/m 0,0 km/h (0 Bft) NO 42 0 min 0,0 UV-I 70 W/m -4,8 C -3,8 C 0,0 km/h (0 Bft)
25.01.2023 09:54 -3,7 C -3,3 C 93 % 1035,8 hPa 0,0 l/m 0,0 km/h (0 Bft) NO 44 0 min 0,0 UV-I 72 W/m -4,7 C -3,7 C 0,0 km/h (0 Bft)
25.01.2023 09:57 -3,7 C -3,3 C 92 % 1035,9 hPa 0,0 l/m 0,0 km/h (0 Bft) NO 44 0 min 0,0 UV-I 75 W/m -4,8 C -3,7 C 0,0 km/h (0 Bft)
25.01.2023 10:00 -3,7 C -3,3 C 93 % 1035,8 hPa 0,0 l/m 0,0 km/h (0 Bft) NO 44 0 min 0,0 UV-I 78 W/m -4,7 C -3,7 C 0,0 km/h (0 Bft)
25.01.2023 10:03 -3,7 C -2,8 C 93 % 1035,7 hPa 0,0 l/m 0,0 km/h (0 Bft) NO 44 0 min 0,0 UV-I 83 W/m -4,7 C -3,7 C 0,0 km/h (0 Bft)
25.01.2023 10:06 -3,7 C -2,2 C 93 % 1035,7 hPa 0,0 l/m 0,0 km/h (0 Bft) NO 44 0 min 0,0 UV-I 86 W/m -4,7 C -3,7 C 0,0 km/h (0 Bft)
25.01.2023 10:09 -3,6 C -2,2 C 93 % 1035,6 hPa 0,0 l/m 0,0 km/h (0 Bft) NO 44 0 min 0,0 UV-I 85 W/m -4,6 C -3,6 C 0,0 km/h (0 Bft)
25.01.2023 10:12 -3,5 C -2,8 C 93 % 1035,6 hPa 0,0 l/m 0,0 km/h (0 Bft) NO 44 0 min 0,0 UV-I 88 W/m -4,5 C -3,5 C 0,0 km/h (0 Bft)
25.01.2023 10:15 -3,4 C -2,8 C 93 % 1035,7 hPa 0,0 l/m 0,0 km/h (0 Bft) NO 44 0 min 0,0 UV-I 93 W/m -4,4 C -3,4 C 0,0 km/h (0 Bft)
25.01.2023 10:18 -3,3 C -2,8 C 93 % 1035,6 hPa 0,0 l/m 0,0 km/h (0 Bft) NO 44 0 min 0,0 UV-I 94 W/m -4,3 C -3,3 C 0,0 km/h (0 Bft)
25.01.2023 10:21 -3,3 C -2,8 C 93 % 1035,6 hPa 0,0 l/m 0,0 km/h (0 Bft) NO 44 0 min 0,0 UV-I 96 W/m -4,3 C -3,3 C 0,0 km/h (0 Bft)
25.01.2023 10:24 -3,3 C -2,2 C 93 % 1035,6 hPa 0,0 l/m 0,0 km/h (0 Bft) NO 44 0 min 0,2 UV-I 97 W/m -4,3 C -3,3 C 0,0 km/h (0 Bft)
25.01.2023 10:27 -3,2 C -1,7 C 93 % 1035,7 hPa 0,0 l/m 0,0 km/h (0 Bft) NO 44 0 min 0,5 UV-I 101 W/m -4,2 C -3,2 C 0,0 km/h (0 Bft)
25.01.2023 10:30 -3,2 C -1,7 C 93 % 1035,6 hPa 0,0 l/m 0,0 km/h (0 Bft) NO 44 0 min 0,5 UV-I 106 W/m -4,2 C -3,2 C 0,0 km/h (0 Bft)
25.01.2023 10:33 -3,2 C -2,2 C 93 % 1035,7 hPa 0,0 l/m 0,0 km/h (0 Bft) NO 44 0 min 0,5 UV-I 109 W/m -4,2 C -3,2 C 0,0 km/h (0 Bft)
25.01.2023 10:36 -3,1 C -1,1 C 93 % 1035,6 hPa 0,0 l/m 0,0 km/h (0 Bft) NO 44 0 min 0,5 UV-I 113 W/m -4,1 C -3,1 C 0,0 km/h (0 Bft)
25.01.2023 10:39 -3,2 C -1,1 C 93 % 1035,7 hPa 0,0 l/m 0,0 km/h (0 Bft) NO 44 0 min 0,5 UV-I 111 W/m -4,2 C -3,2 C 0,0 km/h (0 Bft)
25.01.2023 10:42 -3,2 C -0,6 C 93 % 1035,6 hPa 0,0 l/m 0,0 km/h (0 Bft) NO 44 0 min 0,6 UV-I 112 W/m -4,2 C -3,2 C 0,0 km/h (0 Bft)
25.01.2023 10:45 -3,2 C -0,6 C 93 % 1035,6 hPa 0,0 l/m 0,0 km/h (0 Bft) NO 44 0 min 0,6 UV-I 121 W/m -4,2 C -3,2 C 0,0 km/h (0 Bft)
25.01.2023 10:48 -3,2 C -0,6 C 93 % 1035,6 hPa 0,0 l/m 0,0 km/h (0 Bft) NO 44 0 min 0,6 UV-I 127 W/m -4,2 C -3,2 C 0,0 km/h (0 Bft)
25.01.2023 10:51 -3,2 C -0,6 C 93 % 1035,6 hPa 0,0 l/m 0,0 km/h (0 Bft) NO 44 0 min 0,6 UV-I 128 W/m -4,2 C -3,2 C 0,0 km/h (0 Bft)
25.01.2023 10:54 -3,2 C 0,0 C 93 % 1035,6 hPa 0,0 l/m 0,0 km/h (0 Bft) NO 44 0 min 0,6 UV-I 130 W/m -4,2 C -3,2 C 0,0 km/h (0 Bft)
25.01.2023 10:57 -3,2 C 0,0 C 93 % 1035,5 hPa 0,0 l/m 0,0 km/h (0 Bft) NO 44 0 min 0,7 UV-I 134 W/m -4,2 C -3,2 C 0,0 km/h (0 Bft)
25.01.2023 11:00 -3,2 C 0,0 C 93 % 1035,5 hPa 0,0 l/m 0,0 km/h (0 Bft) NO 44 0 min 0,7 UV-I 143 W/m -4,2 C -3,2 C 0,0 km/h (0 Bft)
25.01.2023 11:03 -3,2 C 0,0 C 93 % 1035,4 hPa 0,0 l/m 0,0 km/h (0 Bft) NO 44 0 min 0,7 UV-I 150 W/m -4,2 C -3,2 C 0,0 km/h (0 Bft)
25.01.2023 11:06 -3,1 C 0,0 C 93 % 1035,4 hPa 0,0 l/m 0,0 km/h (0 Bft) NO 44 0 min 0,7 UV-I 146 W/m -4,1 C -3,1 C 0,0 km/h (0 Bft)
25.01.2023 11:09 -3,1 C 0,0 C 93 % 1035,3 hPa 0,0 l/m 0,0 km/h (0 Bft) NO 44 0 min 0,7 UV-I 145 W/m -4,1 C -3,1 C 0,0 km/h (0 Bft)
25.01.2023 11:12 -3,1 C 0,0 C 93 % 1035,3 hPa 0,0 l/m 0,0 km/h (0 Bft) NO 44 0 min 0,7 UV-I 149 W/m -4,1 C -3,1 C 0,0 km/h (0 Bft)
25.01.2023 11:15 -3,1 C 0,6 C 93 % 1035,3 hPa 0,0 l/m 0,0 km/h (0 Bft) NO 44 0 min 0,7 UV-I 149 W/m -4,1 C -3,1 C 0,0 km/h (0 Bft)
25.01.2023 11:18 -3,1 C 0,0 C 93 % 1035,2 hPa 0,0 l/m 0,0 km/h (0 Bft) NO 44 0 min 0,8 UV-I 154 W/m -4,1 C -3,1 C 0,0 km/h (0 Bft)
25.01.2023 11:21 -3,0 C 0,6 C 93 % 1035,1 hPa 0,0 l/m 0,0 km/h (0 Bft) NO 44 0 min 0,8 UV-I 163 W/m -4,0 C -3,0 C 0,0 km/h (0 Bft)
25.01.2023 11:24 -2,9 C 0,0 C 93 % 1035,2 hPa 0,0 l/m 0,0 km/h (0 Bft) NO 44 0 min 0,8 UV-I 154 W/m -3,9 C -2,9 C 0,0 km/h (0 Bft)
25.01.2023 11:27 -2,8 C 0,0 C 93 % 1035,2 hPa 0,0 l/m 0,0 km/h (0 Bft) NO 44 0 min 0,8 UV-I 154 W/m -3,8 C -2,8 C 0,0 km/h (0 Bft)
25.01.2023 11:30 -2,7 C 0,6 C 93 % 1035,1 hPa 0,0 l/m 0,0 km/h (0 Bft) NO 44 0 min 0,8 UV-I 155 W/m -3,7 C -2,7 C 0,0 km/h (0 Bft)
25.01.2023 11:33 -2,7 C 0,0 C 93 % 1035,2 hPa 0,0 l/m 0,0 km/h (0 Bft) NO 44 0 min 0,8 UV-I 155 W/m -3,7 C -2,7 C 0,0 km/h (0 Bft)
25.01.2023 11:36 -2,5 C 0,0 C 93 % 1035,1 hPa 0,0 l/m 0,0 km/h (0 Bft) NO 44 0 min 0,8 UV-I 156 W/m -3,5 C -2,5 C 0,0 km/h (0 Bft)
25.01.2023 11:39 -2,3 C 0,0 C 94 % 1034,9 hPa 0,0 l/m 0,0 km/h (0 Bft) NO 44 0 min 0,8 UV-I 165 W/m -3,1 C -2,3 C 0,0 km/h (0 Bft)
25.01.2023 11:42 -2,2 C -0,6 C 93 % 1034,9 hPa 0,0 l/m 0,0 km/h (0 Bft) NO 44 0 min 0,8 UV-I 165 W/m -3,2 C -2,2 C 0,0 km/h (0 Bft)
25.01.2023 11:45 -2,2 C -0,6 C 93 % 1034,9 hPa 0,0 l/m 0,0 km/h (0 Bft) NO 44 0 min 0,8 UV-I 163 W/m -3,2 C -2,2 C 0,0 km/h (0 Bft)
25.01.2023 11:48 -2,2 C 0,0 C 93 % 1034,8 hPa 0,0 l/m 0,0 km/h (0 Bft) NO 44 0 min 0,9 UV-I 171 W/m -3,2 C -2,2 C 0,0 km/h (0 Bft)
25.01.2023 11:51 -2,2 C 0,6 C 93 % 1034,8 hPa 0,0 l/m 0,0 km/h (0 Bft) NO 44 0 min 0,9 UV-I 187 W/m -3,2 C -2,2 C 0,0 km/h (0 Bft)
25.01.2023 11:54 -2,2 C 0,0 C 93 % 1034,7 hPa 0,0 l/m 0,0 km/h (0 Bft) NO 44 0 min 0,9 UV-I 189 W/m -3,2 C -2,2 C 0,0 km/h (0 Bft)
25.01.2023 11:57 -2,2 C 0,0 C 93 % 1034,8 hPa 0,0 l/m 0,0 km/h (0 Bft) NO 42 0 min 0,9 UV-I 188 W/m -3,2 C -2,2 C 0,0 km/h (0 Bft)
25.01.2023 12:00 -2,3 C 0,0 C 93 % 1034,6 hPa 0,0 l/m 0,0 km/h (0 Bft) NO 42 0 min 0,9 UV-I 188 W/m -3,3 C -2,3 C 0,0 km/h (0 Bft)
25.01.2023 12:03 -2,2 C 0,0 C 93 % 1034,5 hPa 0,0 l/m 0,0 km/h (0 Bft) NO 42 0 min 0,9 UV-I 186 W/m -3,2 C -2,2 C 0,0 km/h (0 Bft)
25.01.2023 12:06 -1,9 C 0,0 C 94 % 1034,6 hPa 0,0 l/m 0,0 km/h (0 Bft) NO 42 0 min 0,9 UV-I 185 W/m -2,7 C -1,9 C 0,0 km/h (0 Bft)
25.01.2023 12:09 -1,8 C 0,0 C 94 % 1034,6 hPa 0,0 l/m 0,0 km/h (0 Bft) NO 42 0 min 0,9 UV-I 187 W/m -2,6 C -1,8 C 0,0 km/h (0 Bft)
25.01.2023 12:12 -1,7 C 0,0 C 94 % 1034,6 hPa 0,0 l/m 0,0 km/h (0 Bft) NO 42 0 min 0,9 UV-I 188 W/m -2,5 C -1,7 C 0,0 km/h (0 Bft)
25.01.2023 12:15 -1,7 C 0,0 C 94 % 1034,5 hPa 0,0 l/m 0,0 km/h (0 Bft) NO 42 0 min 0,9 UV-I 193 W/m -2,5 C -1,7 C 0,0 km/h (0 Bft)
25.01.2023 12:18 -1,6 C 0,6 C 94 % 1034,5 hPa 0,0 l/m 0,0 km/h (0 Bft) NO 42 0 min 0,9 UV-I 192 W/m -2,4 C -1,6 C 0,0 km/h (0 Bft)
25.01.2023 12:21 -1,6 C 0,6 C 94 % 1034,4 hPa 0,0 l/m 0,0 km/h (0 Bft) NO 42 0 min 0,9 UV-I 177 W/m -2,4 C -1,6 C 0,0 km/h (0 Bft)
25.01.2023 12:24 -1,7 C 1,1 C 94 % 1034,3 hPa 0,0 l/m 0,0 km/h (0 Bft) NO 42 0 min 1,0 UV-I 186 W/m -2,5 C -1,7 C 0,0 km/h (0 Bft)
25.01.2023 12:27 -1,7 C 1,1 C 93 % 1034,3 hPa 0,0 l/m 0,0 km/h (0 Bft) NO 42 0 min 0,9 UV-I 180 W/m -2,7 C -1,7 C 0,0 km/h (0 Bft)
25.01.2023 12:30 -1,9 C 1,1 C 93 % 1034,2 hPa 0,0 l/m 0,0 km/h (0 Bft) NO 42 0 min 1,0 UV-I 185 W/m -2,9 C -1,9 C 0,0 km/h (0 Bft)
25.01.2023 12:33 -2,4 C 1,7 C 93 % 1034,2 hPa 0,0 l/m 0,0 km/h (0 Bft) NO 42 0 min 1,0 UV-I 182 W/m -3,4 C -2,4 C 0,0 km/h (0 Bft)
25.01.2023 12:36 -2,6 C 1,1 C 93 % 1034,2 hPa 0,0 l/m 0,0 km/h (0 Bft) NO 42 0 min 1,0 UV-I 171 W/m -3,6 C -2,6 C 0,0 km/h (0 Bft)
25.01.2023 12:39 -2,8 C 0,6 C 93 % 1034,1 hPa 0,0 l/m 0,0 km/h (0 Bft) NO 42 0 min 1,0 UV-I 177 W/m -3,8 C -2,8 C 0,0 km/h (0 Bft)
25.01.2023 12:42 -2,8 C 1,1 C 93 % 1034,0 hPa 0,0 l/m 0,0 km/h (0 Bft) NO 42 0 min 1,0 UV-I 183 W/m -3,8 C -2,8 C 0,0 km/h (0 Bft)
25.01.2023 12:45 -2,9 C 1,1 C 93 % 1034,0 hPa 0,0 l/m 0,0 km/h (0 Bft) NO 42 0 min 1,0 UV-I 186 W/m -3,9 C -2,9 C 0,0 km/h (0 Bft)
25.01.2023 12:48 -2,8 C 1,7 C 93 % 1033,8 hPa 0,0 l/m 0,0 km/h (0 Bft) NO 42 0 min 1,0 UV-I 186 W/m -3,8 C -2,8 C 0,0 km/h (0 Bft)
25.01.2023 12:51 -2,8 C 1,7 C 93 % 1033,9 hPa 0,0 l/m 0,0 km/h (0 Bft) NO 42 0 min 1,0 UV-I 188 W/m -3,8 C -2,8 C 0,0 km/h (0 Bft)
25.01.2023 12:54 -2,8 C 1,1 C 93 % 1033,8 hPa 0,0 l/m 0,0 km/h (0 Bft) NO 42 0 min 1,0 UV-I 181 W/m -3,8 C -2,8 C 0,0 km/h (0 Bft)
25.01.2023 12:57 -2,8 C 1,1 C 93 % 1033,8 hPa 0,0 l/m 0,0 km/h (0 Bft) NO 42 0 min 1,0 UV-I 184 W/m -3,8 C -2,8 C 0,0 km/h (0 Bft)
25.01.2023 13:00 -2,9 C 1,7 C 93 % 1033,7 hPa 0,0 l/m 0,0 km/h (0 Bft) NO 42 0 min 1,0 UV-I 192 W/m -3,9 C -2,9 C 0,0 km/h (0 Bft)
25.01.2023 13:03 -2,8 C 1,7 C 93 % 1033,8 hPa 0,0 l/m 0,0 km/h (0 Bft) NO 42 0 min 1,0 UV-I 198 W/m -3,8 C -2,8 C 0,0 km/h (0 Bft)
25.01.2023 13:06 -2,8 C 1,1 C 93 % 1033,7 hPa 0,0 l/m 0,0 km/h (0 Bft) NO 42 0 min 1,0 UV-I 203 W/m -3,8 C -2,8 C 0,0 km/h (0 Bft)
25.01.2023 13:09 -2,8 C 1,1 C 93 % 1033,7 hPa 0,0 l/m 0,0 km/h (0 Bft) NO 42 0 min 1,0 UV-I 216 W/m -3,8 C -2,8 C 0,0 km/h (0 Bft)
25.01.2023 13:12 -2,7 C 1,7 C 93 % 1033,7 hPa 0,0 l/m 0,0 km/h (0 Bft) NO 42 0 min 1,0 UV-I 213 W/m -3,7 C -2,7 C 0,0 km/h (0 Bft)
25.01.2023 13:15 -2,6 C 1,1 C 93 % 1033,6 hPa 0,0 l/m 0,0 km/h (0 Bft) NO 42 0 min 1,0 UV-I 195 W/m -3,6 C -2,6 C 0,0 km/h (0 Bft)
25.01.2023 13:18 -2,6 C 1,7 C 93 % 1033,5 hPa 0,0 l/m 0,0 km/h (0 Bft) NO 42 0 min 1,0 UV-I 191 W/m -3,6 C -2,6 C 0,0 km/h (0 Bft)
25.01.2023 13:21 -2,7 C 0,6 C 93 % 1033,3 hPa 0,0 l/m 0,0 km/h (0 Bft) NO 42 0 min 1,0 UV-I 179 W/m -3,7 C -2,7 C 0,0 km/h (0 Bft)
25.01.2023 13:24 -2,7 C 1,1 C 93 % 1033,4 hPa 0,0 l/m 0,0 km/h (0 Bft) NO 42 0 min 1,0 UV-I 180 W/m -3,7 C -2,7 C 0,0 km/h (0 Bft)
25.01.2023 13:27 -2,6 C 1,1 C 93 % 1033,3 hPa 0,0 l/m 0,0 km/h (0 Bft) NO 42 0 min 0,9 UV-I 173 W/m -3,6 C -2,6 C 0,0 km/h (0 Bft)
25.01.2023 13:30 -2,6 C 1,7 C 93 % 1033,2 hPa 0,0 l/m 0,0 km/h (0 Bft) NO 42 0 min 0,9 UV-I 176 W/m -3,6 C -2,6 C 0,0 km/h (0 Bft)
25.01.2023 13:33 -2,6 C 2,2 C 93 % 1033,1 hPa 0,0 l/m 0,0 km/h (0 Bft) NO 42 0 min 1,0 UV-I 177 W/m -3,6 C -2,6 C 0,0 km/h (0 Bft)
25.01.2023 13:36 -2,7 C 1,7 C 93 % 1033,0 hPa 0,0 l/m 0,0 km/h (0 Bft) NO 42 0 min 0,9 UV-I 158 W/m -3,7 C -2,7 C 0,0 km/h (0 Bft)
25.01.2023 13:39 -2,8 C 0,6 C 93 % 1033,0 hPa 0,0 l/m 0,0 km/h (0 Bft) NO 42 0 min 0,9 UV-I 165 W/m -3,8 C -2,8 C 0,0 km/h (0 Bft)
25.01.2023 13:42 -2,8 C 0,0 C 93 % 1033,0 hPa 0,0 l/m 0,0 km/h (0 Bft) NO 42 0 min 0,9 UV-I 185 W/m -3,8 C -2,8 C 0,0 km/h (0 Bft)
25.01.2023 13:45 -2,6 C 0,6 C 94 % 1032,9 hPa 0,0 l/m 0,0 km/h (0 Bft) NO 42 0 min 1,0 UV-I 201 W/m -3,4 C -2,6 C 0,0 km/h (0 Bft)
25.01.2023 13:48 -2,7 C 0,6 C 93 % 1032,9 hPa 0,0 l/m 0,0 km/h (0 Bft) NO 42 0 min 1,0 UV-I 204 W/m -3,7 C -2,7 C 0,0 km/h (0 Bft)
25.01.2023 13:51 -2,8 C 0,6 C 93 % 1032,9 hPa 0,0 l/m 0,0 km/h (0 Bft) NO 42 0 min 0,9 UV-I 184 W/m -3,8 C -2,8 C 0,0 km/h (0 Bft)
25.01.2023 13:54 -2,8 C 0,0 C 93 % 1032,8 hPa 0,0 l/m 0,0 km/h (0 Bft) NO 42 0 min 1,0 UV-I 191 W/m -3,8 C -2,8 C 0,0 km/h (0 Bft)
25.01.2023 13:57 -2,7 C 0,0 C 93 % 1032,8 hPa 0,0 l/m 0,0 km/h (0 Bft) NO 42 0 min 0,9 UV-I 182 W/m -3,7 C -2,7 C 0,0 km/h (0 Bft)
25.01.2023 14:00 -2,7 C -0,6 C 93 % 1032,6 hPa 0,0 l/m 0,0 km/h (0 Bft) NO 42 0 min 0,9 UV-I 192 W/m -3,7 C -2,7 C 0,0 km/h (0 Bft)
25.01.2023 14:03 -2,6 C 0,6 C 93 % 1032,5 hPa 0,0 l/m 0,0 km/h (0 Bft) NO 42 0 min 0,9 UV-I 184 W/m -3,6 C -2,6 C 0,0 km/h (0 Bft)
25.01.2023 14:06 -2,4 C 1,7 C 93 % 1032,4 hPa 0,0 l/m 0,0 km/h (0 Bft) NO 42 0 min 0,9 UV-I 189 W/m -3,4 C -2,4 C 0,0 km/h (0 Bft)
25.01.2023 14:09 -2,3 C 1,7 C 94 % 1032,3 hPa 0,0 l/m 0,0 km/h (0 Bft) NO 42 0 min 0,9 UV-I 182 W/m -3,1 C -2,3 C 0,0 km/h (0 Bft)
25.01.2023 14:12 -2,4 C 2,2 C 93 % 1032,3 hPa 0,0 l/m 0,0 km/h (0 Bft) NO 42 0 min 0,8 UV-I 165 W/m -3,4 C -2,4 C 0,0 km/h (0 Bft)
25.01.2023 14:15 -2,5 C 2,2 C 93 % 1032,2 hPa 0,0 l/m 0,0 km/h (0 Bft) NO 42 0 min 0,8 UV-I 175 W/m -3,5 C -2,5 C 0,0 km/h (0 Bft)
25.01.2023 14:18 -2,3 C 2,8 C 93 % 1032,2 hPa 0,0 l/m 0,0 km/h (0 Bft) NO 42 0 min 0,8 UV-I 174 W/m -3,3 C -2,3 C 0,0 km/h (0 Bft)
25.01.2023 14:21 -2,3 C 2,2 C 94 % 1032,1 hPa 0,0 l/m 0,0 km/h (0 Bft) NO 42 0 min 0,8 UV-I 156 W/m -3,1 C -2,3 C 0,0 km/h (0 Bft)
25.01.2023 14:24 -2,4 C 2,8 C 93 % 1032,1 hPa 0,0 l/m 0,0 km/h (0 Bft) NO 42 0 min 0,8 UV-I 157 W/m -3,4 C -2,4 C 0,0 km/h (0 Bft)
25.01.2023 14:27 -2,3 C 2,2 C 94 % 1032,1 hPa 0,0 l/m 0,0 km/h (0 Bft) NO 42 0 min 0,8 UV-I 158 W/m -3,1 C -2,3 C 0,0 km/h (0 Bft)
25.01.2023 14:30 -2,3 C 2,2 C 94 % 1032,0 hPa 0,0 l/m 0,0 km/h (0 Bft) NO 42 0 min 0,7 UV-I 147 W/m -3,1 C -2,3 C 0,0 km/h (0 Bft)
25.01.2023 14:33 -2,4 C 2,2 C 93 % 1032,0 hPa 0,0 l/m 0,0 km/h (0 Bft) NO 42 0 min 0,7 UV-I 147 W/m -3,4 C -2,4 C 0,0 km/h (0 Bft)
25.01.2023 14:36 -2,2 C 2,2 C 94 % 1031,9 hPa 0,0 l/m 0,0 km/h (0 Bft) NO 42 0 min 0,7 UV-I 154 W/m -3,0 C -2,2 C 0,0 km/h (0 Bft)
25.01.2023 14:39 -2,4 C 1,1 C 93 % 1031,7 hPa 0,0 l/m 0,0 km/h (0 Bft) NO 42 0 min 0,7 UV-I 158 W/m -3,4 C -2,4 C 0,0 km/h (0 Bft)
25.01.2023 14:42 -2,6 C 0,6 C 93 % 1031,6 hPa 0,0 l/m 0,0 km/h (0 Bft) NO 42 0 min 0,7 UV-I 151 W/m -3,6 C -2,6 C 0,0 km/h (0 Bft)
25.01.2023 14:45 -2,6 C 0,0 C 93 % 1031,6 hPa 0,0 l/m 0,0 km/h (0 Bft) NO 42 0 min 0,6 UV-I 146 W/m -3,6 C -2,6 C 0,0 km/h (0 Bft)
25.01.2023 14:48 -2,3 C 0,0 C 93 % 1031,5 hPa 0,0 l/m 0,0 km/h (0 Bft) NO 42 0 min 0,6 UV-I 137 W/m -3,3 C -2,3 C 0,0 km/h (0 Bft)
25.01.2023 14:51 -2,3 C 0,0 C 94 % 1031,5 hPa 0,0 l/m 0,0 km/h (0 Bft) NO 42 0 min 0,6 UV-I 138 W/m -3,1 C -2,3 C 0,0 km/h (0 Bft)
25.01.2023 14:54 -2,2 C 0,0 C 94 % 1031,5 hPa 0,0 l/m 0,0 km/h (0 Bft) NO 42 0 min 0,6 UV-I 139 W/m -3,0 C -2,2 C 0,0 km/h (0 Bft)
25.01.2023 14:57 -2,2 C -0,6 C 94 % 1031,4 hPa 0,0 l/m 0,0 km/h (0 Bft) NO 42 0 min 0,6 UV-I 140 W/m -3,0 C -2,2 C 0,0 km/h (0 Bft)
25.01.2023 15:00 -2,2 C 0,0 C 94 % 1031,4 hPa 0,0 l/m 0,0 km/h (0 Bft) NO 42 0 min 0,6 UV-I 138 W/m -3,0 C -2,2 C 0,0 km/h (0 Bft)
25.01.2023 15:03 -2,2 C -0,6 C 93 % 1031,3 hPa 0,0 l/m 0,0 km/h (0 Bft) NO 42 0 min 0,6 UV-I 138 W/m -3,2 C -2,2 C 0,0 km/h (0 Bft)
25.01.2023 15:06 -2,1 C 0,0 C 94 % 1031,3 hPa 0,0 l/m 0,0 km/h (0 Bft) NO 42 0 min 0,5 UV-I 133 W/m -2,9 C -2,1 C 0,0 km/h (0 Bft)
25.01.2023 15:09 -1,9 C 0,0 C 94 % 1031,3 hPa 0,0 l/m 0,0 km/h (0 Bft) NO 42 0 min 0,5 UV-I 123 W/m -2,7 C -1,9 C 0,0 km/h (0 Bft)
25.01.2023 15:12 -2,1 C -0,6 C 93 % 1031,2 hPa 0,0 l/m 0,0 km/h (0 Bft) NO 42 0 min 0,5 UV-I 111 W/m -3,1 C -2,1 C 0,0 km/h (0 Bft)
25.01.2023 15:15 -2,1 C -0,6 C 93 % 1031,2 hPa 0,0 l/m 0,0 km/h (0 Bft) NO 42 0 min 0,5 UV-I 114 W/m -3,1 C -2,1 C 0,0 km/h (0 Bft)
25.01.2023 15:18 -2,2 C 0,0 C 93 % 1031,2 hPa 0,0 l/m 0,0 km/h (0 Bft) NO 42 0 min 0,5 UV-I 113 W/m -3,2 C -2,2 C 0,0 km/h (0 Bft)
25.01.2023 15:21 -2,2 C 0,0 C 93 % 1031,2 hPa 0,0 l/m 0,0 km/h (0 Bft) NO 42 0 min 0,5 UV-I 113 W/m -3,2 C -2,2 C 0,0 km/h (0 Bft)
25.01.2023 15:24 -2,3 C -0,6 C 93 % 1031,2 hPa 0,0 l/m 0,0 km/h (0 Bft) NO 42 0 min 0,4 UV-I 109 W/m -3,3 C -2,3 C 0,0 km/h (0 Bft)
25.01.2023 15:27 -2,3 C 0,0 C 94 % 1031,1 hPa 0,0 l/m 0,0 km/h (0 Bft) NO 42 0 min 0,0 UV-I 101 W/m -3,1 C -2,3 C 0,0 km/h (0 Bft)
25.01.2023 15:30 -2,2 C 0,6 C 94 % 1031,2 hPa 0,0 l/m 0,0 km/h (0 Bft) NO 42 0 min 0,0 UV-I 100 W/m -3,0 C -2,2 C 0,0 km/h (0 Bft)
25.01.2023 15:33 -2,3 C 0,6 C 93 % 1031,1 hPa 0,0 l/m 0,0 km/h (0 Bft) NO 42 0 min 0,0 UV-I 99 W/m -3,3 C -2,3 C 0,0 km/h (0 Bft)
25.01.2023 15:36 -2,3 C 0,6 C 94 % 1031,0 hPa 0,0 l/m 0,0 km/h (0 Bft) NO 42 0 min 0,0 UV-I 91 W/m -3,1 C -2,3 C 0,0 km/h (0 Bft)
25.01.2023 15:39 -2,3 C 0,6 C 94 % 1031,1 hPa 0,0 l/m 0,0 km/h (0 Bft) NO 42 0 min 0,0 UV-I 90 W/m -3,1 C -2,3 C 0,0 km/h (0 Bft)
25.01.2023 15:42 -2,3 C 0,0 C 93 % 1031,1 hPa 0,0 l/m 0,0 km/h (0 Bft) NO 42 0 min 0,0 UV-I 89 W/m -3,3 C -2,3 C 0,0 km/h (0 Bft)
25.01.2023 15:45 -2,4 C -0,6 C 93 % 1030,9 hPa 0,0 l/m 0,0 km/h (0 Bft) NO 42 0 min 0,0 UV-I 87 W/m -3,4 C -2,4 C 0,0 km/h (0 Bft)
25.01.2023 15:48 -2,4 C 0,0 C 93 % 1030,9 hPa 0,0 l/m 0,0 km/h (0 Bft) NO 42 0 min 0,0 UV-I 92 W/m -3,4 C -2,4 C 0,0 km/h (0 Bft)
25.01.2023 15:51 -2,4 C -0,6 C 93 % 1030,9 hPa 0,0 l/m 0,0 km/h (0 Bft) NO 42 0 min 0,0 UV-I 89 W/m -3,4 C -2,4 C 0,0 km/h (0 Bft)
25.01.2023 15:54 -2,5 C -1,1 C 93 % 1030,9 hPa 0,0 l/m 0,0 km/h (0 Bft) NO 42 0 min 0,0 UV-I 79 W/m -3,5 C -2,5 C 0,0 km/h (0 Bft)
25.01.2023 15:57 -2,6 C -1,7 C 93 % 1030,8 hPa 0,0 l/m 0,0 km/h (0 Bft) NO 42 0 min 0,0 UV-I 71 W/m -3,6 C -2,6 C 0,0 km/h (0 Bft)
25.01.2023 16:00 -2,6 C -1,7 C 93 % 1031,0 hPa 0,0 l/m 0,0 km/h (0 Bft) NO 42 0 min 0,0 UV-I 66 W/m -3,6 C -2,6 C 0,0 km/h (0 Bft)
25.01.2023 16:03 -2,6 C -1,7 C 93 % 1031,0 hPa 0,0 l/m 0,0 km/h (0 Bft) NO 42 0 min 0,0 UV-I 64 W/m -3,6 C -2,6 C 0,0 km/h (0 Bft)
25.01.2023 16:06 -2,5 C -1,1 C 93 % 1030,9 hPa 0,0 l/m 0,0 km/h (0 Bft) NO 42 0 min 0,0 UV-I 59 W/m -3,5 C -2,5 C 0,0 km/h (0 Bft)
25.01.2023 16:09 -2,4 C -1,1 C 93 % 1030,8 hPa 0,0 l/m 0,0 km/h (0 Bft) NO 42 0 min 0,0 UV-I 57 W/m -3,4 C -2,4 C 0,0 km/h (0 Bft)
25.01.2023 16:12 -2,4 C -0,6 C 93 % 1030,8 hPa 0,0 l/m 0,0 km/h (0 Bft) NO 42 0 min 0,0 UV-I 55 W/m -3,4 C -2,4 C 0,0 km/h (0 Bft)
25.01.2023 16:15 -2,3 C -0,6 C 94 % 1030,8 hPa 0,0 l/m 0,0 km/h (0 Bft) NO 42 0 min 0,0 UV-I 52 W/m -3,1 C -2,3 C 0,0 km/h (0 Bft)
25.01.2023 16:18 -2,4 C 0,0 C 94 % 1030,9 hPa 0,0 l/m 0,0 km/h (0 Bft) NO 42 0 min 0,0 UV-I 47 W/m -3,2 C -2,4 C 0,0 km/h (0 Bft)
25.01.2023 16:21 -2,4 C 0,0 C 94 % 1030,8 hPa 0,0 l/m 0,0 km/h (0 Bft) NO 42 0 min 0,0 UV-I 45 W/m -3,2 C -2,4 C 0,0 km/h (0 Bft)
25.01.2023 16:24 -2,4 C 0,0 C 93 % 1030,7 hPa 0,0 l/m 0,0 km/h (0 Bft) NO 42 0 min 0,0 UV-I 38 W/m -3,4 C -2,4 C 0,0 km/h (0 Bft)
25.01.2023 16:27 -2,4 C 0,0 C 93 % 1030,8 hPa 0,0 l/m 0,0 km/h (0 Bft) NO 42 0 min 0,0 UV-I 32 W/m -3,4 C -2,4 C 0,0 km/h (0 Bft)
25.01.2023 16:30 -2,4 C 0,0 C 93 % 1030,7 hPa 0,0 l/m 0,0 km/h (0 Bft) NO 42 0 min 0,0 UV-I 32 W/m -3,4 C -2,4 C 0,0 km/h (0 Bft)
25.01.2023 16:33 -2,4 C -1,1 C 93 % 1030,8 hPa 0,0 l/m 0,0 km/h (0 Bft) NO 42 0 min 0,0 UV-I 28 W/m -3,4 C -2,4 C 0,0 km/h (0 Bft)
25.01.2023 16:36 -2,4 C -2,2 C 93 % 1030,7 hPa 0,0 l/m 0,0 km/h (0 Bft) NO 42 0 min 0,0 UV-I 25 W/m -3,4 C -2,4 C 0,0 km/h (0 Bft)
25.01.2023 16:39 -2,4 C -2,2 C 93 % 1030,7 hPa 0,0 l/m 0,0 km/h (0 Bft) NO 42 0 min 0,0 UV-I 25 W/m -3,4 C -2,4 C 0,0 km/h (0 Bft)
25.01.2023 16:42 -2,5 C -2,2 C 93 % 1030,6 hPa 0,0 l/m 0,0 km/h (0 Bft) NO 42 0 min 0,0 UV-I 21 W/m -3,5 C -2,5 C 0,0 km/h (0 Bft)
25.01.2023 16:45 -2,6 C -2,2 C 93 % 1030,6 hPa 0,0 l/m 0,0 km/h (0 Bft) NO 42 0 min 0,0 UV-I 19 W/m -3,6 C -2,6 C 0,0 km/h (0 Bft)
25.01.2023 16:48 -2,6 C -2,8 C 93 % 1030,6 hPa 0,0 l/m 0,0 km/h (0 Bft) NO 42 0 min 0,0 UV-I 17 W/m -3,6 C -2,6 C 0,0 km/h (0 Bft)
25.01.2023 16:51 -2,6 C -2,2 C 93 % 1030,6 hPa 0,0 l/m 0,0 km/h (0 Bft) NO 42 0 min 0,0 UV-I 14 W/m -3,6 C -2,6 C 0,0 km/h (0 Bft)
25.01.2023 16:54 -2,6 C -2,2 C 93 % 1030,5 hPa 0,0 l/m 0,0 km/h (0 Bft) NO 42 0 min 0,0 UV-I 13 W/m -3,6 C -2,6 C 0,0 km/h (0 Bft)
25.01.2023 16:57 -2,7 C -2,2 C 93 % 1030,5 hPa 0,0 l/m 0,0 km/h (0 Bft) NO 42 0 min 0,0 UV-I 13 W/m -3,7 C -2,7 C 0,0 km/h (0 Bft)
25.01.2023 17:00 -2,7 C -2,2 C 93 % 1030,5 hPa 0,0 l/m 0,0 km/h (0 Bft) NO 42 0 min 0,0 UV-I 12 W/m -3,7 C -2,7 C 0,0 km/h (0 Bft)
25.01.2023 17:03 -2,8 C -2,8 C 93 % 1030,5 hPa 0,0 l/m 0,0 km/h (0 Bft) NO 42 0 min 0,0 UV-I 10 W/m -3,8 C -2,8 C 0,0 km/h (0 Bft)
25.01.2023 17:06 -2,8 C -3,3 C 93 % 1030,5 hPa 0,0 l/m 0,0 km/h (0 Bft) NO 42 0 min 0,0 UV-I 8 W/m -3,8 C -2,8 C 0,0 km/h (0 Bft)
25.01.2023 17:09 -3,0 C -3,3 C 93 % 1030,5 hPa 0,0 l/m 0,0 km/h (0 Bft) NO 42 0 min 0,0 UV-I 6 W/m -4,0 C -3,0 C 0,0 km/h (0 Bft)
25.01.2023 17:12 -3,1 C -3,3 C 93 % 1030,4 hPa 0,0 l/m 0,0 km/h (0 Bft) NO 42 0 min 0,0 UV-I 5 W/m -4,1 C -3,1 C 0,0 km/h (0 Bft)
25.01.2023 17:15 -3,2 C -3,9 C 93 % 1030,4 hPa 0,0 l/m 0,0 km/h (0 Bft) NO 42 0 min 0,0 UV-I 2 W/m -4,2 C -3,2 C 0,0 km/h (0 Bft)
25.01.2023 17:18 -3,3 C -3,9 C 93 % 1030,4 hPa 0,0 l/m 0,0 km/h (0 Bft) NO 42 0 min 0,0 UV-I 0 W/m -4,3 C -3,3 C 0,0 km/h (0 Bft)
25.01.2023 17:21 -3,4 C -3,9 C 93 % 1030,5 hPa 0,0 l/m 0,0 km/h (0 Bft) NO 42 0 min 0,0 UV-I 0 W/m -4,4 C -3,4 C 0,0 km/h (0 Bft)
25.01.2023 17:24 -3,5 C -3,9 C 93 % 1030,4 hPa 0,0 l/m 0,0 km/h (0 Bft) NO 42 0 min 0,0 UV-I 0 W/m -4,5 C -3,5 C 0,0 km/h (0 Bft)
25.01.2023 17:27 -3,6 C -3,9 C 93 % 1030,4 hPa 0,0 l/m 0,0 km/h (0 Bft) NO 42 0 min 0,0 UV-I 0 W/m -4,6 C -3,6 C 0,0 km/h (0 Bft)
25.01.2023 17:30 -3,6 C -3,9 C 93 % 1030,3 hPa 0,0 l/m 0,0 km/h (0 Bft) NO 42 0 min 0,0 UV-I 0 W/m -4,6 C -3,6 C 0,0 km/h (0 Bft)
25.01.2023 17:33 -3,6 C -3,9 C 93 % 1030,3 hPa 0,0 l/m 0,0 km/h (0 Bft) NO 42 0 min 0,0 UV-I 0 W/m -4,6 C -3,6 C 0,0 km/h (0 Bft)
25.01.2023 17:36 -3,7 C -4,4 C 93 % 1030,3 hPa 0,0 l/m 0,0 km/h (0 Bft) NO 42 0 min 0,0 UV-I 0 W/m -4,7 C -3,7 C 0,0 km/h (0 Bft)
25.01.2023 17:39 -3,7 C -4,4 C 93 % 1030,3 hPa 0,0 l/m 0,0 km/h (0 Bft) NO 42 0 min 0,0 UV-I 0 W/m -4,7 C -3,7 C 0,0 km/h (0 Bft)
25.01.2023 17:42 -3,8 C -3,9 C 93 % 1030,2 hPa 0,0 l/m 0,0 km/h (0 Bft) NO 42 0 min 0,0 UV-I 0 W/m -4,8 C -3,8 C 0,0 km/h (0 Bft)
25.01.2023 17:45 -3,8 C -4,4 C 92 % 1030,2 hPa 0,0 l/m 0,0 km/h (0 Bft) NO 42 0 min 0,0 UV-I 0 W/m -4,9 C -3,8 C 0,0 km/h (0 Bft)
25.01.2023 17:48 -3,9 C -4,4 C 93 % 1030,2 hPa 0,0 l/m 0,0 km/h (0 Bft) NO 42 0 min 0,0 UV-I 0 W/m -4,9 C -3,9 C 0,0 km/h (0 Bft)
25.01.2023 17:51 -3,9 C -3,9 C 93 % 1030,2 hPa 0,0 l/m 0,0 km/h (0 Bft) NO 42 0 min 0,0 UV-I 0 W/m -4,9 C -3,9 C 0,0 km/h (0 Bft)
25.01.2023 17:54 -3,9 C -3,9 C 93 % 1030,2 hPa 0,0 l/m 0,0 km/h (0 Bft) NO 42 0 min 0,0 UV-I 0 W/m -4,9 C -3,9 C 0,0 km/h (0 Bft)
25.01.2023 17:57 -3,9 C -3,9 C 93 % 1030,2 hPa 0,0 l/m 0,0 km/h (0 Bft) NO 42 0 min 0,0 UV-I 0 W/m -4,9 C -3,9 C 0,0 km/h (0 Bft)
25.01.2023 18:00 -3,9 C -3,9 C 93 % 1030,2 hPa 0,0 l/m 0,0 km/h (0 Bft) NO 42 0 min 0,0 UV-I 0 W/m -4,9 C -3,9 C 0,0 km/h (0 Bft)
25.01.2023 18:03 -3,9 C -3,9 C 93 % 1030,2 hPa 0,0 l/m 0,0 km/h (0 Bft) NO 42 0 min 0,0 UV-I 0 W/m -4,9 C -3,9 C 0,0 km/h (0 Bft)
25.01.2023 18:06 -3,9 C -3,9 C 93 % 1030,2 hPa 0,0 l/m 0,0 km/h (0 Bft) NO 42 0 min 0,0 UV-I 0 W/m -4,9 C -3,9 C 0,0 km/h (0 Bft)
25.01.2023 18:09 -3,9 C -3,9 C 93 % 1030,2 hPa 0,0 l/m 0,0 km/h (0 Bft) NO 42 0 min 0,0 UV-I 0 W/m -4,9 C -3,9 C 0,0 km/h (0 Bft)
25.01.2023 18:12 -3,9 C -4,4 C 93 % 1030,2 hPa 0,0 l/m 0,0 km/h (0 Bft) NO 42 0 min 0,0 UV-I 0 W/m -4,9 C -3,9 C 0,0 km/h (0 Bft)
25.01.2023 18:15 -4,0 C -4,4 C 93 % 1030,2 hPa 0,0 l/m 0,0 km/h (0 Bft) NO 42 0 min 0,0 UV-I 0 W/m -5,0 C -4,0 C 0,0 km/h (0 Bft)
25.01.2023 18:18 -4,1 C -4,4 C 93 % 1030,1 hPa 0,0 l/m 0,0 km/h (0 Bft) NO 42 0 min 0,0 UV-I 0 W/m -5,1 C -4,1 C 0,0 km/h (0 Bft)
25.01.2023 18:21 -4,1 C -4,4 C 92 % 1030,0 hPa 0,0 l/m 0,0 km/h (0 Bft) SO 130 0 min 0,0 UV-I 0 W/m -5,2 C -4,1 C 0,0 km/h (0 Bft)
25.01.2023 18:24 -4,1 C -4,4 C 92 % 1030,1 hPa 0,0 l/m 0,0 km/h (0 Bft) SO 131 0 min 0,0 UV-I 0 W/m -5,2 C -4,1 C 0,0 km/h (0 Bft)
25.01.2023 18:27 -4,2 C -4,4 C 92 % 1029,9 hPa 0,0 l/m 0,0 km/h (0 Bft) SO 132 0 min 0,0 UV-I 0 W/m -5,3 C -4,2 C 0,0 km/h (0 Bft)
25.01.2023 18:30 -4,2 C -4,4 C 92 % 1030,1 hPa 0,0 l/m 0,0 km/h (0 Bft) SO 132 0 min 0,0 UV-I 0 W/m -5,3 C -4,2 C 0,0 km/h (0 Bft)
25.01.2023 18:33 -4,3 C -4,4 C 92 % 1030,1 hPa 0,0 l/m 0,0 km/h (0 Bft) SO 132 0 min 0,0 UV-I 0 W/m -5,4 C -4,3 C 0,0 km/h (0 Bft)
25.01.2023 18:36 -4,3 C -4,4 C 92 % 1029,9 hPa 0,0 l/m 0,0 km/h (0 Bft) SO 132 0 min 0,0 UV-I 0 W/m -5,4 C -4,3 C 0,0 km/h (0 Bft)
25.01.2023 18:39 -4,4 C -4,4 C 92 % 1030,0 hPa 0,0 l/m 0,0 km/h (0 Bft) SO 132 0 min 0,0 UV-I 0 W/m -5,5 C -4,4 C 0,0 km/h (0 Bft)
25.01.2023 18:42 -4,4 C -4,4 C 92 % 1029,9 hPa 0,0 l/m 0,0 km/h (0 Bft) SO 132 0 min 0,0 UV-I 0 W/m -5,5 C -4,4 C 0,0 km/h (0 Bft)
25.01.2023 18:45 -4,4 C -4,4 C 92 % 1029,9 hPa 0,0 l/m 0,0 km/h (0 Bft) SO 132 0 min 0,0 UV-I 0 W/m -5,5 C -4,4 C 0,0 km/h (0 Bft)
25.01.2023 18:48 -4,4 C -4,4 C 92 % 1029,9 hPa 0,0 l/m 0,0 km/h (0 Bft) SO 132 0 min 0,0 UV-I 0 W/m -5,5 C -4,4 C 0,0 km/h (0 Bft)
25.01.2023 18:51 -4,4 C -4,4 C 92 % 1029,9 hPa 0,0 l/m 0,0 km/h (0 Bft) SO 132 0 min 0,0 UV-I 0 W/m -5,5 C -4,4 C 0,0 km/h (0 Bft)
25.01.2023 18:54 -4,5 C -4,4 C 92 % 1029,7 hPa 0,0 l/m 0,0 km/h (0 Bft) SO 132 0 min 0,0 UV-I 0 W/m -5,6 C -4,5 C 0,0 km/h (0 Bft)
25.01.2023 18:57 -4,5 C -4,4 C 92 % 1029,7 hPa 0,0 l/m 0,0 km/h (0 Bft) SO 134 0 min 0,0 UV-I 0 W/m -5,6 C -4,5 C 0,0 km/h (0 Bft)
25.01.2023 19:00 -4,6 C -4,4 C 92 % 1029,7 hPa 0,0 l/m 0,0 km/h (0 Bft) S-SO 151 0 min 0,0 UV-I 0 W/m -5,7 C -4,6 C 0,0 km/h (0 Bft)
25.01.2023 19:03 -4,6 C -5,0 C 92 % 1029,7 hPa 0,0 l/m 0,0 km/h (0 Bft) S-SO 151 0 min 0,0 UV-I 0 W/m -5,7 C -4,6 C 0,0 km/h (0 Bft)
25.01.2023 19:06 -4,6 C -4,4 C 92 % 1029,6 hPa 0,0 l/m 0,0 km/h (0 Bft) S-SO 151 0 min 0,0 UV-I 0 W/m -5,7 C -4,6 C 0,0 km/h (0 Bft)
25.01.2023 19:09 -4,6 C -5,0 C 92 % 1029,7 hPa 0,0 l/m 0,0 km/h (0 Bft) S-SO 151 0 min 0,0 UV-I 0 W/m -5,7 C -4,6 C 0,0 km/h (0 Bft)
25.01.2023 19:12 -4,7 C -5,0 C 92 % 1029,6 hPa 0,0 l/m 0,0 km/h (0 Bft) S-SO 151 0 min 0,0 UV-I 0 W/m -5,8 C -4,7 C 0,0 km/h (0 Bft)
25.01.2023 19:15 -4,7 C -5,0 C 92 % 1029,7 hPa 0,0 l/m 0,0 km/h (0 Bft) S-SO 151 0 min 0,0 UV-I 0 W/m -5,8 C -4,7 C 0,0 km/h (0 Bft)
25.01.2023 19:18 -4,7 C -5,0 C 92 % 1029,6 hPa 0,0 l/m 0,0 km/h (0 Bft) S-SO 151 0 min 0,0 UV-I 0 W/m -5,8 C -4,7 C 0,0 km/h (0 Bft)
25.01.2023 19:21 -4,7 C -5,0 C 92 % 1029,6 hPa 0,0 l/m 0,0 km/h (0 Bft) S-SO 151 0 min 0,0 UV-I 0 W/m -5,8 C -4,7 C 0,0 km/h (0 Bft)
25.01.2023 19:24 -4,8 C -5,0 C 92 % 1029,6 hPa 0,0 l/m 0,0 km/h (0 Bft) S-SO 151 0 min 0,0 UV-I 0 W/m -5,9 C -4,8 C 0,0 km/h (0 Bft)
25.01.2023 19:27 -4,8 C -5,0 C 92 % 1029,6 hPa 0,0 l/m 0,0 km/h (0 Bft) S-SO 151 0 min 0,0 UV-I 0 W/m -5,9 C -4,8 C 0,0 km/h (0 Bft)
25.01.2023 19:30 -4,8 C -5,0 C 92 % 1029,6 hPa 0,0 l/m 0,0 km/h (0 Bft) S-SO 151 0 min 0,0 UV-I 0 W/m -5,9 C -4,8 C 0,0 km/h (0 Bft)
25.01.2023 19:33 -4,8 C -5,0 C 92 % 1029,6 hPa 0,0 l/m 0,0 km/h (0 Bft) S-SO 151 0 min 0,0 UV-I 0 W/m -5,9 C -4,8 C 0,0 km/h (0 Bft)
25.01.2023 19:36 -4,8 C -5,0 C 92 % 1029,6 hPa 0,0 l/m 0,0 km/h (0 Bft) S-SO 151 0 min 0,0 UV-I 0 W/m -5,9 C -4,8 C 0,0 km/h (0 Bft)
25.01.2023 19:39 -4,9 C -5,0 C 92 % 1029,6 hPa 0,0 l/m 0,0 km/h (0 Bft) S-SO 151 0 min 0,0 UV-I 0 W/m -6,0 C -4,9 C 0,0 km/h (0 Bft)
25.01.2023 19:42 -4,9 C -5,0 C 92 % 1029,6 hPa 0,0 l/m 0,0 km/h (0 Bft) S-SO 151 0 min 0,0 UV-I 0 W/m -6,0 C -4,9 C 0,0 km/h (0 Bft)
25.01.2023 19:45 -4,9 C -5,0 C 92 % 1029,6 hPa 0,0 l/m 0,0 km/h (0 Bft) S-SO 151 0 min 0,0 UV-I 0 W/m -6,0 C -4,9 C 0,0 km/h (0 Bft)
25.01.2023 19:48 -5,0 C -5,0 C 92 % 1029,5 hPa 0,0 l/m 0,0 km/h (0 Bft) S-SO 151 0 min 0,0 UV-I 0 W/m -6,1 C -5,0 C 0,0 km/h (0 Bft)
25.01.2023 19:51 -5,0 C -5,0 C 92 % 1029,5 hPa 0,0 l/m 0,0 km/h (0 Bft) S-SO 151 0 min 0,0 UV-I 0 W/m -6,1 C -5,0 C 0,0 km/h (0 Bft)
25.01.2023 19:54 -5,1 C -5,0 C 92 % 1029,4 hPa 0,0 l/m 0,0 km/h (0 Bft) S-SO 151 0 min 0,0 UV-I 0 W/m -6,2 C -5,1 C 0,0 km/h (0 Bft)
25.01.2023 19:57 -5,1 C -5,0 C 92 % 1029,3 hPa 0,0 l/m 0,0 km/h (0 Bft) S-SO 151 0 min 0,0 UV-I 0 W/m -6,2 C -5,1 C 0,0 km/h (0 Bft)
25.01.2023 20:00 -5,1 C -5,0 C 92 % 1029,3 hPa 0,0 l/m 0,0 km/h (0 Bft) S-SO 151 0 min 0,0 UV-I 0 W/m -6,2 C -5,1 C 0,0 km/h (0 Bft)
25.01.2023 20:03 -5,1 C -5,0 C 92 % 1029,4 hPa 0,0 l/m 0,0 km/h (0 Bft) S-SO 151 0 min 0,0 UV-I 0 W/m -6,2 C -5,1 C 0,0 km/h (0 Bft)
25.01.2023 20:06 -5,1 C -5,0 C 92 % 1029,3 hPa 0,0 l/m 0,0 km/h (0 Bft) S-SO 151 0 min 0,0 UV-I 0 W/m -6,2 C -5,1 C 0,0 km/h (0 Bft)
25.01.2023 20:09 -5,1 C -5,0 C 92 % 1029,3 hPa 0,0 l/m 0,0 km/h (0 Bft) S-SO 151 0 min 0,0 UV-I 0 W/m -6,2 C -5,1 C 0,0 km/h (0 Bft)
25.01.2023 20:12 -5,1 C -5,0 C 92 % 1029,4 hPa 0,0 l/m 0,0 km/h (0 Bft) S-SO 151 0 min 0,0 UV-I 0 W/m -6,2 C -5,1 C 0,0 km/h (0 Bft)
25.01.2023 20:15 -5,1 C -5,0 C 92 % 1029,4 hPa 0,0 l/m 0,0 km/h (0 Bft) S-SO 151 0 min 0,0 UV-I 0 W/m -6,2 C -5,1 C 0,0 km/h (0 Bft)
25.01.2023 20:18 -5,1 C -5,0 C 92 % 1029,5 hPa 0,0 l/m 0,0 km/h (0 Bft) S-SO 151 0 min 0,0 UV-I 0 W/m -6,2 C -5,1 C 0,0 km/h (0 Bft)
25.01.2023 20:21 -5,1 C -4,4 C 92 % 1029,5 hPa 0,0 l/m 0,0 km/h (0 Bft) S-SO 151 0 min 0,0 UV-I 0 W/m -6,2 C -5,1 C 0,0 km/h (0 Bft)
25.01.2023 20:24 -5,1 C -5,0 C 92 % 1029,6 hPa 0,0 l/m 0,0 km/h (0 Bft) S-SO 151 0 min 0,0 UV-I 0 W/m -6,2 C -5,1 C 0,0 km/h (0 Bft)
25.01.2023 20:27 -5,1 C -5,0 C 92 % 1029,4 hPa 0,0 l/m 0,0 km/h (0 Bft) S-SO 151 0 min 0,0 UV-I 0 W/m -6,2 C -5,1 C 0,0 km/h (0 Bft)
25.01.2023 20:30 -5,1 C -5,0 C 92 % 1029,5 hPa 0,0 l/m 0,0 km/h (0 Bft) S-SO 151 0 min 0,0 UV-I 0 W/m -6,2 C -5,1 C 0,0 km/h (0 Bft)
25.01.2023 20:33 -5,1 C -4,4 C 92 % 1029,5 hPa 0,0 l/m 0,0 km/h (0 Bft) S-SO 151 0 min 0,0 UV-I 0 W/m -6,2 C -5,1 C 0,0 km/h (0 Bft)
25.01.2023 20:36 -5,1 C -4,4 C 92 % 1029,2 hPa 0,0 l/m 0,0 km/h (0 Bft) S-SO 151 0 min 0,0 UV-I 0 W/m -6,2 C -5,1 C 0,0 km/h (0 Bft)
25.01.2023 20:39 -5,0 C -4,4 C 92 % 1029,3 hPa 0,0 l/m 0,0 km/h (0 Bft) S-SO 151 0 min 0,0 UV-I 0 W/m -6,1 C -5,0 C 0,0 km/h (0 Bft)
25.01.2023 20:42 -5,0 C -4,4 C 92 % 1029,1 hPa 0,0 l/m 0,0 km/h (0 Bft) S-SO 151 0 min 0,0 UV-I 0 W/m -6,1 C -5,0 C 0,0 km/h (0 Bft)
25.01.2023 20:45 -4,9 C -5,0 C 92 % 1029,0 hPa 0,0 l/m 0,0 km/h (0 Bft) S-SO 151 0 min 0,0 UV-I 0 W/m -6,0 C -4,9 C 0,0 km/h (0 Bft)
25.01.2023 20:48 -4,9 C -4,4 C 92 % 1029,0 hPa 0,0 l/m 0,0 km/h (0 Bft) S-SO 151 0 min 0,0 UV-I 0 W/m -6,0 C -4,9 C 0,0 km/h (0 Bft)
25.01.2023 20:51 -4,9 C -4,4 C 92 % 1029,0 hPa 0,0 l/m 0,0 km/h (0 Bft) S-SO 151 0 min 0,0 UV-I 0 W/m -6,0 C -4,9 C 0,0 km/h (0 Bft)
25.01.2023 20:54 -4,9 C -4,4 C 92 % 1028,9 hPa 0,0 l/m 0,0 km/h (0 Bft) S-SO 151 0 min 0,0 UV-I 0 W/m -6,0 C -4,9 C 0,0 km/h (0 Bft)
25.01.2023 20:57 -4,9 C -4,4 C 92 % 1028,9 hPa 0,0 l/m 0,0 km/h (0 Bft) S-SO 151 0 min 0,0 UV-I 0 W/m -6,0 C -4,9 C 0,0 km/h (0 Bft)
25.01.2023 21:00 -4,9 C -4,4 C 92 % 1028,9 hPa 0,0 l/m 0,0 km/h (0 Bft) S-SO 151 0 min 0,0 UV-I 0 W/m -6,0 C -4,9 C 0,0 km/h (0 Bft)
25.01.2023 21:03 -4,9 C -3,9 C 92 % 1028,8 hPa 0,0 l/m 0,0 km/h (0 Bft) S-SO 151 0 min 0,0 UV-I 0 W/m -6,0 C -4,9 C 0,0 km/h (0 Bft)
25.01.2023 21:06 -4,9 C -3,9 C 92 % 1028,8 hPa 0,0 l/m 0,0 km/h (0 Bft) S-SO 151 0 min 0,0 UV-I 0 W/m -6,0 C -4,9 C 0,0 km/h (0 Bft)
25.01.2023 21:09 -4,9 C -2,2 C 92 % 1028,7 hPa 0,0 l/m 0,0 km/h (0 Bft) S-SO 151 0 min 0,0 UV-I 0 W/m -6,0 C -4,9 C 0,0 km/h (0 Bft)
25.01.2023 21:12 -4,9 C -2,8 C 92 % 1028,7 hPa 0,0 l/m 0,0 km/h (0 Bft) S-SO 151 0 min 0,0 UV-I 0 W/m -6,0 C -4,9 C 0,0 km/h (0 Bft)
25.01.2023 21:15 -4,9 C -2,8 C 92 % 1028,6 hPa 0,0 l/m 0,0 km/h (0 Bft) S-SO 151 0 min 0,0 UV-I 0 W/m -6,0 C -4,9 C 0,0 km/h (0 Bft)
25.01.2023 21:18 -4,8 C -3,3 C 92 % 1028,6 hPa 0,0 l/m 0,0 km/h (0 Bft) S-SO 151 0 min 0,0 UV-I 0 W/m -5,9 C -4,8 C 0,0 km/h (0 Bft)
25.01.2023 21:21 -4,8 C -2,8 C 92 % 1028,5 hPa 0,0 l/m 0,0 km/h (0 Bft) S-SO 150 0 min 0,0 UV-I 0 W/m -5,9 C -4,8 C 0,0 km/h (0 Bft)
25.01.2023 21:24 -4,8 C -3,3 C 92 % 1028,5 hPa 0,0 l/m 0,0 km/h (0 Bft) S-SO 150 0 min 0,0 UV-I 0 W/m -5,9 C -4,8 C 0,0 km/h (0 Bft)
25.01.2023 21:27 -4,8 C -3,9 C 92 % 1028,5 hPa 0,0 l/m 0,0 km/h (0 Bft) S-SO 150 0 min 0,0 UV-I 0 W/m -5,9 C -4,8 C 0,0 km/h (0 Bft)
25.01.2023 21:30 -4,8 C -4,4 C 92 % 1028,4 hPa 0,0 l/m 0,0 km/h (0 Bft) S-SO 150 0 min 0,0 UV-I 0 W/m -5,9 C -4,8 C 0,0 km/h (0 Bft)
25.01.2023 21:33 -4,8 C -3,9 C 92 % 1028,3 hPa 0,0 l/m 0,0 km/h (0 Bft) S-SO 150 0 min 0,0 UV-I 0 W/m -5,9 C -4,8 C 0,0 km/h (0 Bft)
25.01.2023 21:36 -4,8 C -4,4 C 92 % 1028,4 hPa 0,0 l/m 0,0 km/h (0 Bft) S-SO 150 0 min 0,0 UV-I 0 W/m -5,9 C -4,8 C 0,0 km/h (0 Bft)
25.01.2023 21:39 -4,9 C -5,0 C 92 % 1028,2 hPa 0,0 l/m 0,0 km/h (0 Bft) S-SO 150 0 min 0,0 UV-I 0 W/m -6,0 C -4,9 C 0,0 km/h (0 Bft)
25.01.2023 21:42 -4,9 C -4,4 C 92 % 1028,1 hPa 0,0 l/m 0,0 km/h (0 Bft) S-SO 150 0 min 0,0 UV-I 0 W/m -6,0 C -4,9 C 0,0 km/h (0 Bft)
25.01.2023 21:45 -4,9 C -5,0 C 92 % 1028,1 hPa 0,0 l/m 0,0 km/h (0 Bft) S-SO 150 0 min 0,0 UV-I 0 W/m -6,0 C -4,9 C 0,0 km/h (0 Bft)
25.01.2023 21:48 -4,9 C -5,0 C 92 % 1028,1 hPa 0,0 l/m 0,0 km/h (0 Bft) S-SO 150 0 min 0,0 UV-I 0 W/m -6,0 C -4,9 C 0,0 km/h (0 Bft)
25.01.2023 21:51 -4,9 C -5,0 C 92 % 1028,0 hPa 0,0 l/m 0,0 km/h (0 Bft) S-SO 150 0 min 0,0 UV-I 0 W/m -6,0 C -4,9 C 0,0 km/h (0 Bft)
25.01.2023 21:54 -5,0 C -5,0 C 92 % 1028,0 hPa 0,0 l/m 0,0 km/h (0 Bft) S-SO 150 0 min 0,0 UV-I 0 W/m -6,1 C -5,0 C 0,0 km/h (0 Bft)
25.01.2023 21:57 -5,1 C -5,0 C 92 % 1028,0 hPa 0,0 l/m 0,0 km/h (0 Bft) S-SO 150 0 min 0,0 UV-I 0 W/m -6,2 C -5,1 C 0,0 km/h (0 Bft)
25.01.2023 22:00 -5,1 C -5,0 C 92 % 1028,0 hPa 0,0 l/m 0,0 km/h (0 Bft) S-SO 150 0 min 0,0 UV-I 0 W/m -6,2 C -5,1 C 0,0 km/h (0 Bft)
25.01.2023 22:03 -5,1 C -5,0 C 92 % 1028,1 hPa 0,0 l/m 0,0 km/h (0 Bft) S-SO 150 0 min 0,0 UV-I 0 W/m -6,2 C -5,1 C 0,0 km/h (0 Bft)
25.01.2023 22:06 -5,2 C -5,0 C 92 % 1028,0 hPa 0,0 l/m 0,0 km/h (0 Bft) S-SO 150 0 min 0,0 UV-I 0 W/m -6,3 C -5,2 C 0,0 km/h (0 Bft)
25.01.2023 22:09 -5,2 C -5,6 C 92 % 1028,1 hPa 0,0 l/m 0,0 km/h (0 Bft) S-SO 150 0 min 0,0 UV-I 0 W/m -6,3 C -5,2 C 0,0 km/h (0 Bft)
25.01.2023 22:12 -5,3 C -5,0 C 92 % 1028,2 hPa 0,0 l/m 0,0 km/h (0 Bft) S-SO 150 0 min 0,0 UV-I 0 W/m -6,4 C -5,3 C 0,0 km/h (0 Bft)
25.01.2023 22:15 -5,3 C -5,0 C 92 % 1028,2 hPa 0,0 l/m 0,0 km/h (0 Bft) S-SO 150 0 min 0,0 UV-I 0 W/m -6,4 C -5,3 C 0,0 km/h (0 Bft)
25.01.2023 22:18 -5,3 C -5,0 C 92 % 1028,1 hPa 0,0 l/m 0,0 km/h (0 Bft) S-SO 150 0 min 0,0 UV-I 0 W/m -6,4 C -5,3 C 0,0 km/h (0 Bft)
25.01.2023 22:21 -5,3 C -5,0 C 92 % 1028,0 hPa 0,0 l/m 0,0 km/h (0 Bft) S-SO 150 0 min 0,0 UV-I 0 W/m -6,4 C -5,3 C 0,0 km/h (0 Bft)
25.01.2023 22:24 -5,3 C -5,0 C 92 % 1027,9 hPa 0,0 l/m 0,0 km/h (0 Bft) S-SO 150 0 min 0,0 UV-I 0 W/m -6,4 C -5,3 C 0,0 km/h (0 Bft)
25.01.2023 22:27 -5,4 C -5,6 C 92 % 1028,0 hPa 0,0 l/m 0,0 km/h (0 Bft) S-SO 151 0 min 0,0 UV-I 0 W/m -6,5 C -5,4 C 0,0 km/h (0 Bft)
25.01.2023 22:30 -5,4 C -5,6 C 91 % 1027,9 hPa 0,0 l/m 0,0 km/h (0 Bft) S-SO 151 0 min 0,0 UV-I 0 W/m -6,6 C -5,4 C 0,0 km/h (0 Bft)
25.01.2023 22:33 -5,5 C -5,6 C 91 % 1027,8 hPa 0,0 l/m 0,0 km/h (0 Bft) S-SO 151 0 min 0,0 UV-I 0 W/m -6,7 C -5,5 C 0,0 km/h (0 Bft)
25.01.2023 22:36 -5,6 C -5,6 C 91 % 1027,7 hPa 0,0 l/m 0,0 km/h (0 Bft) S-SO 151 0 min 0,0 UV-I 0 W/m -6,8 C -5,6 C 0,0 km/h (0 Bft)
25.01.2023 22:39 -5,6 C -5,6 C 92 % 1027,7 hPa 0,0 l/m 0,0 km/h (0 Bft) S-SO 151 0 min 0,0 UV-I 0 W/m -6,7 C -5,6 C 0,0 km/h (0 Bft)
25.01.2023 22:42 -5,7 C -6,1 C 92 % 1027,7 hPa 0,0 l/m 0,0 km/h (0 Bft) S-SO 150 0 min 0,0 UV-I 0 W/m -6,8 C -5,7 C 0,0 km/h (0 Bft)
25.01.2023 22:45 -5,7 C -6,1 C 91 % 1027,7 hPa 0,0 l/m 0,0 km/h (0 Bft) S-SO 150 0 min 0,0 UV-I 0 W/m -6,9 C -5,7 C 0,0 km/h (0 Bft)
25.01.2023 22:48 -5,8 C -6,1 C 91 % 1027,7 hPa 0,0 l/m 0,0 km/h (0 Bft) S-SO 150 0 min 0,0 UV-I 0 W/m -7,0 C -5,8 C 0,0 km/h (0 Bft)
25.01.2023 22:51 -5,8 C -6,1 C 91 % 1027,5 hPa 0,0 l/m 0,0 km/h (0 Bft) S-SO 150 0 min 0,0 UV-I 0 W/m -7,0 C -5,8 C 0,0 km/h (0 Bft)
25.01.2023 22:54 -5,9 C -6,1 C 91 % 1027,6 hPa 0,0 l/m 0,0 km/h (0 Bft) S-SO 150 0 min 0,0 UV-I 0 W/m -7,1 C -5,9 C 0,0 km/h (0 Bft)
25.01.2023 22:57 -5,9 C -5,6 C 91 % 1027,7 hPa 0,0 l/m 0,0 km/h (0 Bft) S-SO 150 0 min 0,0 UV-I 0 W/m -7,1 C -5,9 C 0,0 km/h (0 Bft)
25.01.2023 23:00 -6,0 C -5,6 C 91 % 1027,5 hPa 0,0 l/m 0,0 km/h (0 Bft) SO 146 0 min 0,0 UV-I 0 W/m -7,2 C -6,0 C 0,0 km/h (0 Bft)
25.01.2023 23:03 -6,1 C -5,6 C 91 % 1027,6 hPa 0,0 l/m 0,0 km/h (0 Bft) SO 146 0 min 0,0 UV-I 0 W/m -7,3 C -6,1 C 0,0 km/h (0 Bft)
25.01.2023 23:06 -6,1 C -5,6 C 91 % 1027,6 hPa 0,0 l/m 0,0 km/h (0 Bft) SO 146 0 min 0,0 UV-I 0 W/m -7,3 C -6,1 C 0,0 km/h (0 Bft)
25.01.2023 23:09 -6,1 C -6,1 C 91 % 1027,5 hPa 0,0 l/m 0,0 km/h (0 Bft) SO 146 0 min 0,0 UV-I 0 W/m -7,3 C -6,1 C 0,0 km/h (0 Bft)
25.01.2023 23:12 -6,2 C -6,1 C 91 % 1027,6 hPa 0,0 l/m 0,0 km/h (0 Bft) SO 146 0 min 0,0 UV-I 0 W/m -7,4 C -6,2 C 0,0 km/h (0 Bft)
25.01.2023 23:15 -6,2 C -6,1 C 91 % 1027,5 hPa 0,0 l/m 0,0 km/h (0 Bft) SO 146 0 min 0,0 UV-I 0 W/m -7,4 C -6,2 C 0,0 km/h (0 Bft)
25.01.2023 23:18 -6,3 C -6,7 C 91 % 1027,5 hPa 0,0 l/m 0,0 km/h (0 Bft) SO 146 0 min 0,0 UV-I 0 W/m -7,5 C -6,3 C 0,0 km/h (0 Bft)
25.01.2023 23:21 -6,4 C -6,7 C 91 % 1027,4 hPa 0,0 l/m 0,0 km/h (0 Bft) SO 146 0 min 0,0 UV-I 0 W/m -7,6 C -6,4 C 0,0 km/h (0 Bft)
25.01.2023 23:24 -6,4 C -6,7 C 91 % 1027,4 hPa 0,0 l/m 0,0 km/h (0 Bft) SO 146 0 min 0,0 UV-I 0 W/m -7,6 C -6,4 C 0,0 km/h (0 Bft)
25.01.2023 23:27 -6,5 C -6,7 C 91 % 1027,4 hPa 0,0 l/m 0,0 km/h (0 Bft) SO 146 0 min 0,0 UV-I 0 W/m -7,7 C -6,5 C 0,0 km/h (0 Bft)
25.01.2023 23:30 -6,5 C -6,7 C 91 % 1027,3 hPa 0,0 l/m 0,0 km/h (0 Bft) SO 146 0 min 0,0 UV-I 0 W/m -7,7 C -6,5 C 0,0 km/h (0 Bft)
25.01.2023 23:33 -6,6 C -6,7 C 91 % 1027,3 hPa 0,0 l/m 0,0 km/h (0 Bft) SO 146 0 min 0,0 UV-I 0 W/m -7,8 C -6,6 C 0,0 km/h (0 Bft)
25.01.2023 23:36 -6,6 C -6,7 C 91 % 1027,3 hPa 0,0 l/m 0,0 km/h (0 Bft) SO 146 0 min 0,0 UV-I 0 W/m -7,8 C -6,6 C 0,0 km/h (0 Bft)
25.01.2023 23:39 -6,6 C -6,7 C 91 % 1027,1 hPa 0,0 l/m 0,0 km/h (0 Bft) SO 146 0 min 0,0 UV-I 0 W/m -7,8 C -6,6 C 0,0 km/h (0 Bft)
25.01.2023 23:42 -6,7 C -6,7 C 91 % 1027,1 hPa 0,0 l/m 0,0 km/h (0 Bft) SO 146 0 min 0,0 UV-I 0 W/m -7,9 C -6,7 C 0,0 km/h (0 Bft)
25.01.2023 23:45 -6,7 C -6,7 C 91 % 1027,1 hPa 0,0 l/m 0,0 km/h (0 Bft) S-SO 148 0 min 0,0 UV-I 0 W/m -7,9 C -6,7 C 0,0 km/h (0 Bft)
25.01.2023 23:48 -6,8 C -6,7 C 91 % 1027,2 hPa 0,0 l/m 0,0 km/h (0 Bft) S-SO 150 0 min 0,0 UV-I 0 W/m -8,0 C -6,8 C 0,0 km/h (0 Bft)
25.01.2023 23:51 -6,8 C -7,2 C 91 % 1027,0 hPa 0,0 l/m 0,0 km/h (0 Bft) S-SO 150 0 min 0,0 UV-I 0 W/m -8,0 C -6,8 C 0,0 km/h (0 Bft)
25.01.2023 23:54 -6,9 C -7,2 C 91 % 1026,9 hPa 0,0 l/m 0,0 km/h (0 Bft) S-SO 151 0 min 0,0 UV-I 0 W/m -8,1 C -6,9 C 0,0 km/h (0 Bft)
25.01.2023 23:57 -6,9 C -7,2 C 91 % 1027,1 hPa 0,0 l/m 0,0 km/h (0 Bft) S-SO 151 0 min 0,0 UV-I 0 W/m -8,1 C -6,9 C 0,0 km/h (0 Bft)
25.01.2023 23:58 -6,9 C -7,2 C 91 % 1027,1 hPa 0,0 l/m 0,0 km/h (0 Bft) N 0 0 min 0,0 UV-I 0 W/m -8,1 C -6,9 C 0,0 km/h (0 Bft)
25.01.2023 23:59 -6,9 C -7,2 C 91 % 1027,2 hPa 0,0 l/m 0,0 km/h (0 Bft) N 0 0 min 0,0 UV-I 0 W/m -8,1 C -6,9 C 0,0 km/h (0 Bft)
_ Min-Zeit 23:54 23:51 22:30 23:54 - 00:23 - - - - - 23:54 23:54 01:39
Minimum _ -6,9 C -7,2 C 91 % 1026,9 hPa - 0,0 km/h (0 Bft) - - - - - -8,1 C -6,9 C 0,0 km/h (0 Bft)
_ Max-Zeit 12:21 14:18 00:32 00:04 00:00 00:19 - - 00:00 12:24 13:09 12:18 12:18 02:13
Maximum _ -1,5 C 2,8 C 94 % 1038,7 hPa 0,0 l/m 8,0 km/h
O (2 Bft)
- - 0 min 1,0 UV-I 216 W/m -2,4 C -1,6 C 11,3 km/h
N-NO (2 Bft)
Durchschnitt _ -3,5 C -2,2 C 93 % 1033,5 hPa #0,0 l/m 1,1 km/h (1 Bft) NO - #0 min. 0,8 UV-I 112 W/m -4,4 C -3,5 C 1,7 km/h (1 Bft)